[[{"header":{"parameterUnit":"m.s-1","parameterCategory":1,"la1":30.6,"la2":28.766,"lo1":-90.7593,"lo2":-88.6598,"dy":0.0162,"dx":0.0183,"nx":116,"ny":114,"refTime":"2023-09-19T18:00:00:Z","depth":0,"parameterNumber":2,"parameterNumberName":"U-component_of_WINDS"},"data":[0.0,0.0,0.0,0.0,0.0,0.0,0.0,0.0,0.0,0.0,0.0,0.0,0.0,0.0,0.0,0.0,0.0,0.0,0.0,0.0,0.0,0.0,0.0,0.0,0.0,0.0,0.0,0.0,0.0,0.0,0.0,0.0,0.0,0.0,0.0,0.0,0.0,0.0,0.0,0.0,0.0,0.0,0.0,0.0,0.0,0.0,0.0,0.0,0.0,0.0,0.0,0.0,0.0,0.0,0.0,0.0,0.0,0.0,0.0,0.0,0.0,0.0,0.0,0.0,0.0,0.0,0.0,0.0,0.0,0.0,0.0,0.0,0.0,0.0,0.0,0.0,0.0,0.0,0.0,0.0,0.0,0.0,0.0,0.0,0.0,0.0,0.0,0.0,0.0,0.0,0.0,0.0,0.0,0.0,0.0,0.0,0.0,0.0,0.0,0.0,0.0,0.0,0.0,0.0,0.0,0.0,0.0,0.0,0.0,0.0,0.0,0.0,0.0,0.0,0.0,0.0,0.0,0.0,0.0,0.0,0.0,0.0,0.0,0.0,0.0,0.0,0.0,0.0,0.0,0.0,0.0,0.0,0.0,0.0,0.0,0.0,0.0,0.0,0.0,0.0,0.0,0.0,0.0,0.0,0.0,0.0,0.0,0.0,0.0,0.0,0.0,0.0,0.0,0.0,0.0,0.0,0.0,0.0,0.0,0.0,0.0,0.0,0.0,0.0,0.0,0.0,0.0,0.0,0.0,0.0,0.0,0.0,0.0,0.0,0.0,0.0,0.0,0.0,0.0,0.0,0.0,0.0,0.0,0.0,0.0,0.0,0.0,0.0,0.0,0.0,0.0,0.0,0.0,0.0,0.0,0.0,0.0,0.0,0.0,0.0,0.0,0.0,0.0,0.0,0.0,0.0,0.0,0.0,0.0,0.0,0.0,0.0,0.0,0.0,0.0,0.0,0.0,0.0,0.0,0.0,0.0,0.0,0.0,0.0,0.0,0.0,0.0,0.0,0.0,0.0,0.0,0.0,0.0,0.0,0.0,0.0,0.0,0.0,0.0,0.0,0.0,0.0,0.0,0.0,0.0,0.0,0.0,0.0,0.0,0.0,0.0,0.0,0.0,0.0,0.0,0.0,0.0,0.0,0.0,0.0,0.0,0.0,0.0,0.0,0.0,0.0,0.0,0.0,0.0,0.0,0.0,0.0,0.0,0.0,0.0,0.0,0.0,0.0,0.0,0.0,0.0,0.0,0.0,0.0,0.0,0.0,0.0,0.0,0.0,0.0,0.0,0.0,0.0,0.0,0.0,0.0,0.0,0.0,0.0,0.0,0.0,0.0,0.0,0.0,0.0,0.0,0.0,0.0,0.0,0.0,0.0,0.0,0.0,0.0,0.0,0.0,0.0,0.0,0.0,0.0,0.0,0.0,0.0,0.0,0.0,0.0,0.0,0.0,0.0,0.0,0.0,0.0,0.0,0.0,0.0,0.0,0.0,0.0,0.0,0.0,0.0,0.0,0.0,0.0,0.0,0.0,0.0,0.0,0.0,0.0,0.0,0.0,0.0,0.0,0.0,0.0,0.0,0.0,0.0,0.0,0.0,0.0,0.0,0.0,0.0,0.0,0.0,0.0,0.0,0.0,0.0,0.0,0.0,0.0,0.0,0.0,0.0,0.0,0.0,0.0,0.0,0.0,0.0,0.0,0.0,0.0,0.0,0.0,0.0,0.0,0.0,0.0,0.0,0.0,0.0,0.0,0.0,0.0,0.0,0.0,0.0,0.0,0.0,0.0,0.0,0.0,0.0,0.0,0.0,0.0,0.0,0.0,0.0,0.0,0.0,0.0,0.0,0.0,0.0,0.0,0.0,0.0,0.0,0.0,0.0,0.0,0.0,0.0,0.0,0.0,0.0,0.0,0.0,0.0,0.0,0.0,0.0,0.0,0.0,0.0,0.0,0.0,0.0,0.0,0.0,0.0,0.0,0.0,0.0,0.0,0.0,0.0,0.0,0.0,0.0,0.0,0.0,0.0,0.0,0.0,0.0,0.0,0.0,0.0,0.0,0.0,0.0,0.0,0.0,0.0,0.0,0.0,0.0,0.0,0.0,0.0,0.0,0.0,0.0,0.0,0.0,0.0,0.0,0.0,0.0,0.0,0.0,0.0,0.0,0.0,0.0,0.0,0.0,0.0,0.0,0.0,0.0,0.0,0.0,0.0,0.0,0.0,0.0,0.0,0.0,0.0,0.0,0.0,0.0,0.0,0.0,0.0,0.0,0.0,0.0,0.0,0.0,0.0,0.0,0.0,0.0,0.0,0.0,0.0,0.0,0.0,0.0,0.0,0.0,0.0,0.0,0.0,0.0,0.0,0.0,0.0,0.0,0.0,0.0,0.0,0.0,0.0,0.0,0.0,0.0,0.0,0.0,0.0,0.0,0.0,0.0,0.0,0.0,0.0,0.0,0.0,0.0,0.0,0.0,0.0,0.0,0.0,0.0,0.0,0.0,0.0,0.0,0.0,0.0,0.0,0.0,0.0,0.0,0.0,0.0,0.0,0.0,0.0,0.0,0.0,0.0,0.0,0.0,0.0,0.0,0.0,0.0,0.0,0.0,0.0,0.0,0.0,0.0,0.0,0.0,0.0,0.0,0.0,0.0,0.0,0.0,0.0,0.0,0.0,0.0,0.0,0.0,0.0,0.0,0.0,0.0,0.0,0.0,0.0,0.0,0.0,0.0,0.0,0.0,0.0,0.0,0.0,0.0,0.0,0.0,0.0,0.0,0.0,0.0,0.0,0.0,0.0,0.0,0.0,0.0,0.0,0.0,0.0,0.0,0.0,0.0,0.0,0.0,0.0,0.0,0.0,0.0,0.0,0.0,0.0,0.0,0.0,0.0,0.0,0.0,0.0,0.0,0.0,0.0,0.0,0.0,0.0,0.0,0.0,0.0,0.0,0.0,0.0,0.0,0.0,0.0,0.0,0.0,0.0,0.0,0.0,0.0,0.0,0.0,0.0,0.0,0.0,0.0,0.0,0.0,0.0,0.0,0.0,0.0,0.0,0.0,0.0,0.0,0.0,0.0,0.0,0.0,0.0,0.0,0.0,0.0,0.0,0.0,0.0,0.0,0.0,0.0,0.0,0.0,0.0,0.0,0.0,0.0,0.0,0.0,0.0,0.0,0.0,0.0,0.0,0.0,0.0,0.0,0.0,0.0,0.0,0.0,0.0,0.0,0.0,0.0,0.0,0.0,0.0,0.0,0.0,0.0,0.0,0.0,0.0,0.0,0.0,0.0,0.0,0.0,0.0,0.0,0.0,0.0,0.0,0.0,0.0,0.0,0.0,0.0,0.0,0.0,0.0,0.0,0.0,0.0,0.0,0.0,0.0,0.0,0.0,0.0,0.0,0.0,0.0,0.0,0.0,0.0,0.0,0.0,0.0,0.0,0.0,0.0,0.0,0.0,0.0,0.0,0.0,0.0,0.0,0.0,0.0,0.0,0.0,0.0,0.0,0.0,0.0,0.0,0.0,0.0,0.0,0.0,0.0,0.0,0.0,0.0,0.0,0.0,0.0,0.0,0.0,0.0,0.0,0.0,0.0,0.0,0.0,0.0,0.0,0.0,0.0,0.0,0.0,0.0,0.0,0.0,0.0,0.0,0.0,0.0,0.0,0.0,0.0,0.0,0.0,0.0,0.0,0.0,0.0,0.0,0.0,0.0,0.0,0.0,0.0,0.0,0.0,0.0,0.0,0.0,0.0,0.0,0.0,0.0,0.0,0.0,0.0,0.0,0.0,0.0,0.0,0.0,0.0,0.0,0.0,0.0,0.0,0.0,0.0,0.0,0.0,0.0,0.0,0.0,0.0,0.0,0.0,0.0,0.0,0.0,0.0,0.0,0.0,0.0,0.0,0.0,0.0,0.0,0.0,0.0,0.0,0.0,0.0,0.0,0.0,0.0,0.0,0.0,0.0,0.0,0.0,0.0,0.0,0.0,0.0,0.0,0.0,0.0,0.0,0.0,0.0,0.0,0.0,0.0,0.0,0.0,0.0,0.0,0.0,0.0,0.0,0.0,0.0,0.0,0.0,0.0,0.0,0.0,0.0,0.0,0.0,0.0,0.0,0.0,0.0,0.0,0.0,0.0,0.0,0.0,0.0,0.0,0.0,0.0,0.0,0.0,0.0,0.0,0.0,0.0,0.0,0.0,0.0,0.0,0.0,0.0,0.0,0.0,0.0,0.0,0.0,0.0,0.0,0.0,0.0,0.0,0.0,0.0,0.0,0.0,0.0,0.0,0.0,0.0,0.0,0.0,0.0,0.0,0.0,0.0,0.0,0.0,0.0,0.0,0.0,0.0,0.0,0.0,0.0,0.0,0.0,0.0,0.0,0.0,0.0,0.0,0.0,0.0,0.0,0.0,0.0,0.0,0.0,0.0,0.0,0.0,0.0,0.0,0.0,0.0,0.0,0.0,0.0,0.0,0.0,0.0,0.0,0.0,0.0,0.0,0.0,0.0,0.0,0.0,0.0,0.0,0.0,0.0,0.0,0.0,0.0,0.0,0.0,0.0,0.0,0.0,0.0,0.0,0.0,0.0,0.0,0.0,0.0,0.0,0.0,0.0,0.0,0.0,0.0,0.0,0.0,0.0,0.0,0.0,0.0,0.0,0.0,0.0,0.0,0.0,0.0,0.0,0.0,0.0,0.0,0.0,0.0,0.0,0.0,0.0,0.0,0.0,0.0,0.0,0.0,0.0,0.0,0.0,0.0,0.0,0.0,0.0,0.0,0.0,0.0,0.0,0.0,0.0,0.0,0.0,0.0,0.0,0.0,0.0,0.0,0.0,0.0,0.0,0.0,0.0,0.0,0.0,0.0,0.0,0.0,0.0,0.0,0.0,0.0,0.0,0.0,0.0,0.0,0.0,0.0,0.0,0.0,0.0,0.0,0.0,0.0,0.0,0.0,0.0,0.0,0.0,0.0,0.0,0.0,0.0,0.0,0.0,0.0,0.0,0.0,0.0,0.0,0.0,0.0,0.0,0.0,0.0,0.0,0.0,0.0,0.0,0.0,0.0,0.0,0.0,0.0,0.0,0.0,0.0,0.0,0.0,0.0,0.0,0.0,0.0,0.0,0.0,0.0,0.0,0.0,0.0,0.0,0.0,0.0,0.0,0.0,0.0,0.0,0.0,0.0,0.0,0.0,0.0,0.0,0.0,0.0,0.0,0.0,0.0,0.0,0.0,0.0,0.0,0.0,0.0,0.0,0.0,0.0,0.0,0.0,0.0,0.0,0.0,0.0,0.0,0.0,0.0,0.0,0.0,0.0,0.0,0.0,0.0,0.0,0.0,0.0,0.0,0.0,0.0,0.0,0.0,0.0,0.0,0.0,0.0,0.0,0.0,0.0,0.0,0.0,0.0,0.0,0.0,0.0,0.0,0.0,0.0,0.0,0.0,0.0,0.0,0.0,0.0,0.0,0.0,0.0,0.0,0.0,0.0,0.0,0.0,0.0,0.0,0.0,0.0,0.0,0.0,0.0,0.0,0.0,0.0,0.0,0.0,0.0,0.0,0.0,0.0,0.0,0.0,0.0,0.0,0.0,0.0,0.0,0.0,0.0,0.0,0.0,0.0,0.0,0.0,0.0,0.0,0.0,0.0,0.0,0.0,0.0,0.0,0.0,0.0,0.0,0.0,0.0,0.0,0.0,0.0,0.0,0.0,0.0,0.0,0.0,0.0,0.0,0.0,0.0,0.0,0.0,0.0,0.0,0.0,0.0,0.0,0.0,0.0,0.0,0.0,0.0,0.0,0.0,0.0,0.0,0.0,0.0,0.0,0.0,0.0,0.0,0.0,0.0,0.0,0.0,0.0,0.0,0.0,0.0,0.0,0.0,0.0,0.0,0.0,0.0,0.0,0.0,0.0,0.0,0.0,0.0,0.0,0.0,0.0,0.0,0.0,0.0,0.0,0.0,0.0,0.0,0.0,0.0,0.0,0.0,0.0,0.0,0.0,0.0,0.0,0.0,0.0,0.0,0.0,0.0,0.0,0.0,0.0,0.0,0.0,0.0,0.0,0.0,0.0,0.0,0.0,0.0,0.0,0.0,0.0,0.0,-4.414,0.0,0.0,0.0,0.0,0.0,0.0,0.0,0.0,0.0,0.0,0.0,0.0,0.0,0.0,0.0,0.0,0.0,0.0,0.0,0.0,0.0,0.0,0.0,0.0,0.0,0.0,0.0,0.0,0.0,0.0,0.0,0.0,0.0,0.0,0.0,0.0,0.0,0.0,0.0,0.0,0.0,0.0,0.0,0.0,0.0,0.0,0.0,0.0,0.0,0.0,0.0,0.0,0.0,0.0,0.0,0.0,0.0,0.0,0.0,0.0,0.0,0.0,0.0,0.0,0.0,0.0,0.0,0.0,0.0,0.0,0.0,0.0,0.0,0.0,0.0,0.0,0.0,0.0,0.0,0.0,0.0,0.0,0.0,0.0,0.0,0.0,0.0,0.0,0.0,0.0,0.0,0.0,0.0,0.0,0.0,0.0,0.0,0.0,0.0,0.0,0.0,0.0,0.0,0.0,0.0,0.0,0.0,0.0,0.0,0.0,0.0,0.0,0.0,0.0,0.0,0.0,-4.4861,0.0,0.0,0.0,0.0,0.0,0.0,0.0,0.0,0.0,0.0,0.0,0.0,0.0,0.0,0.0,0.0,0.0,0.0,0.0,0.0,0.0,0.0,0.0,0.0,0.0,0.0,0.0,0.0,0.0,0.0,0.0,0.0,0.0,0.0,0.0,0.0,0.0,0.0,0.0,0.0,0.0,0.0,0.0,0.0,0.0,0.0,0.0,0.0,0.0,0.0,0.0,0.0,0.0,0.0,0.0,0.0,0.0,0.0,0.0,0.0,0.0,0.0,0.0,0.0,0.0,0.0,0.0,0.0,0.0,0.0,0.0,0.0,0.0,0.0,0.0,0.0,0.0,0.0,0.0,0.0,0.0,0.0,0.0,0.0,0.0,0.0,0.0,0.0,0.0,0.0,0.0,0.0,0.0,0.0,0.0,0.0,0.0,0.0,0.0,0.0,0.0,0.0,0.0,0.0,0.0,0.0,0.0,0.0,-4.7842,-4.7855,-4.7857,-4.7594,-4.7289,-4.6917,-4.6291,-4.6727,-4.777,-4.6529,0.0,0.0,0.0,0.0,0.0,0.0,0.0,0.0,0.0,0.0,0.0,0.0,0.0,0.0,0.0,0.0,0.0,0.0,0.0,0.0,0.0,0.0,0.0,0.0,0.0,0.0,0.0,0.0,0.0,0.0,0.0,0.0,0.0,0.0,0.0,0.0,0.0,0.0,-3.581,-3.6081,-3.6288,-3.6425,-3.6541,0.0,0.0,0.0,0.0,0.0,0.0,0.0,0.0,0.0,0.0,0.0,0.0,0.0,0.0,0.0,0.0,0.0,0.0,0.0,0.0,0.0,0.0,0.0,0.0,0.0,0.0,0.0,0.0,0.0,0.0,0.0,0.0,0.0,0.0,0.0,0.0,0.0,0.0,0.0,0.0,0.0,0.0,0.0,-4.3114,-4.3337,0.0,0.0,0.0,0.0,0.0,0.0,0.0,0.0,0.0,0.0,0.0,0.0,0.0,-4.7077,-4.7104,-4.8584,-4.9403,-4.9588,-4.9622,-4.9678,-4.9702,-4.8418,-4.8472,-4.9458,-4.8755,0.0,-4.6422,-4.5012,0.0,0.0,0.0,0.0,0.0,0.0,0.0,0.0,0.0,0.0,0.0,0.0,0.0,0.0,0.0,0.0,0.0,0.0,0.0,0.0,0.0,0.0,0.0,0.0,0.0,0.0,0.0,0.0,0.0,0.0,0.0,0.0,0.0,0.0,0.0,0.0,-3.4226,-3.4754,-3.4551,-3.5083,-3.5714,-3.6406,-3.6413,-3.7119,-3.8315,-3.8301,0.0,0.0,0.0,0.0,0.0,0.0,0.0,0.0,0.0,0.0,0.0,0.0,0.0,0.0,0.0,0.0,0.0,0.0,0.0,0.0,0.0,0.0,0.0,0.0,0.0,0.0,0.0,0.0,0.0,0.0,0.0,0.0,0.0,0.0,0.0,0.0,0.0,0.0,0.0,-4.0778,-4.2692,-4.1861,-4.2989,-4.308,0.0,0.0,0.0,0.0,0.0,0.0,0.0,0.0,0.0,-4.6473,-4.8007,-4.8844,-4.8934,-4.963,-5.0201,-5.0631,-5.0246,-5.0079,-5.0067,-4.9413,-4.9257,-4.9415,-4.909,-4.8295,-4.7123,-4.6383,-4.573,-4.5027,0.0,0.0,0.0,0.0,-4.195,-4.1832,0.0,0.0,0.0,0.0,0.0,0.0,0.0,0.0,0.0,0.0,0.0,0.0,0.0,0.0,0.0,-3.8469,0.0,0.0,0.0,0.0,0.0,0.0,0.0,0.0,0.0,0.0,0.0,0.0,-3.381,-3.3899,-3.3032,-3.3684,-3.4332,-3.4942,-3.5421,-3.6506,-3.804,-3.858,-3.7188,0.0,0.0,0.0,0.0,0.0,0.0,0.0,0.0,0.0,0.0,0.0,0.0,0.0,0.0,0.0,0.0,0.0,0.0,0.0,0.0,0.0,0.0,0.0,0.0,0.0,0.0,0.0,0.0,0.0,0.0,0.0,0.0,0.0,0.0,0.0,0.0,0.0,0.0,-4.1339,-4.2811,-4.1136,-4.3263,-4.3801,0.0,0.0,0.0,0.0,0.0,0.0,-4.4643,-4.6663,-4.7953,-4.8225,-4.9714,-5.0467,-5.0388,-5.0374,-5.0672,-5.1202,-5.027,-4.9839,-4.9813,-4.9615,-4.9125,-4.8443,-4.8443,-4.8139,-4.7602,-4.7404,-4.6857,-4.5936,-4.3913,-4.3067,-4.2977,-4.2909,-4.2717,-4.2538,0.0,0.0,0.0,0.0,0.0,0.0,0.0,0.0,0.0,0.0,0.0,0.0,0.0,0.0,-3.3985,-3.8148,-3.7453,-3.7059,0.0,0.0,0.0,0.0,0.0,0.0,0.0,0.0,0.0,-3.3537,-3.3687,-3.3037,-3.1718,-3.2318,-3.1987,-3.0966,-3.2757,-3.5524,-3.8729,-3.6878,-3.6209,-3.6166,0.0,0.0,0.0,0.0,0.0,0.0,0.0,0.0,0.0,0.0,0.0,0.0,0.0,0.0,0.0,0.0,0.0,0.0,0.0,0.0,0.0,0.0,0.0,0.0,0.0,0.0,0.0,0.0,0.0,0.0,0.0,0.0,0.0,0.0,0.0,0.0,0.0,0.0,0.0,-4.3494,-4.6987,0.0,0.0,0.0,0.0,-4.4109,-4.5465,-4.6458,-4.6635,-4.8075,-4.9244,-4.9943,-5.1413,-5.1846,-5.115,-5.115,-5.1163,-5.1174,-4.9726,-4.9069,-4.9035,-4.8311,-4.7631,-4.6904,-4.6904,-4.6887,-4.6844,-4.6632,-4.6134,-4.5355,-4.4349,-4.3641,-4.3172,-4.3172,-4.2387,-4.1307,0.0,0.0,0.0,0.0,0.0,0.0,0.0,0.0,0.0,0.0,0.0,0.0,0.0,-3.0046,-3.2242,-3.4387,-3.4925,-3.4578,-3.3228,0.0,0.0,0.0,0.0,0.0,0.0,0.0,-3.0531,-3.1624,-3.0637,-2.972,-2.8904,-2.9608,-2.968,-2.9301,-3.0429,-3.1687,-3.3042,-3.4725,-3.4957,-3.4129,-3.3499,-3.2348,0.0,0.0,0.0,0.0,0.0,0.0,0.0,0.0,0.0,0.0,0.0,0.0,0.0,0.0,0.0,0.0,0.0,0.0,0.0,0.0,0.0,0.0,0.0,0.0,0.0,0.0,0.0,0.0,0.0,0.0,0.0,0.0,0.0,0.0,0.0,0.0,0.0,-4.3176,-4.5972,0.0,-4.3551,-4.5127,-4.5977,-4.5036,-4.7369,-4.8834,-4.8911,-5.0338,-5.1028,-5.0808,-5.1785,-5.1934,-5.1206,-5.0723,-5.0493,-5.0456,-4.9006,-4.8287,-4.8291,-4.753,-4.7056,-4.6769,-4.6295,-4.6092,-4.6053,-4.5512,-4.5408,-4.551,-4.4704,-4.3948,-4.3327,-4.3327,-4.2736,-4.183,0.0,0.0,0.0,0.0,0.0,0.0,0.0,0.0,0.0,0.0,0.0,-2.4279,-2.5188,-2.7301,-2.9218,-3.0579,-3.1367,-3.0989,-2.9111,0.0,0.0,0.0,0.0,0.0,0.0,-2.9148,-2.8814,-2.9429,-2.8002,-2.682,-2.5893,-2.6344,-2.6349,-2.6041,-2.6676,-2.7223,-2.7821,-3.031,-3.1715,-3.2287,-3.2303,-3.1826,-3.1095,0.0,0.0,0.0,0.0,0.0,0.0,0.0,0.0,0.0,0.0,0.0,0.0,0.0,0.0,0.0,0.0,0.0,0.0,0.0,0.0,0.0,0.0,0.0,0.0,0.0,0.0,0.0,0.0,0.0,0.0,0.0,0.0,0.0,0.0,0.0,-4.4772,-4.2912,-4.5715,-4.6722,-4.4059,-4.5514,-4.6576,-4.6333,-4.8299,-4.9509,-4.9492,-5.0653,-5.0988,-5.0275,-5.1056,-5.0968,-4.9991,-4.9801,-4.9491,-4.8982,-4.8005,-4.7237,-4.67,-4.5975,-4.5369,-4.48,-4.4097,-4.3781,-4.3748,-4.3248,-4.3348,-4.3794,-4.4097,-4.3569,-4.2685,-4.2949,-4.2557,-4.1786,0.0,0.0,0.0,0.0,0.0,0.0,0.0,0.0,0.0,0.0,-2.1733,-2.1634,-2.2854,-2.3585,-2.4852,-2.7016,-2.6693,-2.6182,-2.5682,-2.6092,0.0,0.0,0.0,0.0,-2.7954,-2.7347,-2.7051,-2.7114,-2.591,-2.444,-2.2738,-2.2626,-2.2016,-2.1042,-2.1477,-2.24,-2.3618,-2.364,-2.642,-3.073,-3.0028,-3.0528,-3.164,0.0,0.0,0.0,0.0,0.0,0.0,0.0,0.0,0.0,0.0,0.0,0.0,0.0,0.0,0.0,0.0,0.0,0.0,0.0,0.0,0.0,0.0,0.0,0.0,0.0,0.0,0.0,0.0,0.0,0.0,0.0,0.0,0.0,-4.0694,-4.3825,-4.5239,-4.3081,-4.6597,-4.8344,-4.6124,-4.6692,-4.7427,-4.8027,-4.8202,-4.8304,-4.8278,-4.8962,-4.9086,-4.8437,-4.9262,-4.9022,-4.7572,-4.8431,-4.8162,-4.6727,-4.6722,-4.5898,-4.4294,-4.3677,-4.2498,-4.094,-4.0264,-3.9989,-4.0005,-3.9989,-3.9943,-4.0158,-4.2405,-4.2429,-4.1246,-4.194,-4.1743,-4.0896,0.0,0.0,0.0,0.0,0.0,0.0,0.0,0.0,0.0,0.0,-2.0848,-2.0553,-2.034,-2.0936,-2.1644,-2.241,-2.2036,-2.1903,-2.2289,0.0,0.0,0.0,0.0,0.0,-2.4955,-2.3374,-2.2721,-2.301,-2.1822,-2.0608,-1.9433,-1.9481,-1.9347,-1.9071,-1.9197,-1.9472,-1.9832,-2.0274,-2.169,-2.3925,-2.7238,-2.8833,-2.9368,0.0,0.0,0.0,0.0,0.0,0.0,0.0,0.0,0.0,0.0,0.0,0.0,0.0,0.0,0.0,0.0,0.0,0.0,0.0,0.0,0.0,0.0,0.0,0.0,0.0,0.0,0.0,0.0,0.0,0.0,0.0,0.0,-4.0771,-4.2509,-4.3908,-4.4904,-4.5257,-4.6396,-4.688,-4.6275,-4.6689,-4.706,-4.7204,-4.7943,-4.8369,-4.8371,-4.8573,-4.8675,-4.8611,-4.8233,-4.7624,-4.6896,-4.6454,-4.5798,-4.4919,-4.4997,-4.4231,-4.2732,-4.2646,-4.173,-4.0232,-3.9512,-3.9526,-3.9973,-3.9416,-3.8877,-3.8497,-4.0232,-4.0677,-4.0302,-3.9959,-3.9353,-3.8678,0.0,0.0,0.0,0.0,0.0,0.0,0.0,0.0,0.0,0.0,-1.9336,-1.8749,-1.7536,-1.7795,-1.8206,-1.8591,-1.8414,-1.8382,-1.8672,0.0,0.0,0.0,0.0,-2.1485,-2.2503,-2.1028,-2.0243,-2.0221,-1.9136,-1.8057,-1.7008,-1.7087,-1.701,-1.6782,-1.6782,-1.6927,-1.7121,-1.7204,-1.8141,-1.9838,-2.2665,-2.5083,-2.7163,-2.9243,-2.997,-2.9988,-3.086,-3.2116,-3.3332,-3.3321,0.0,0.0,0.0,0.0,0.0,0.0,0.0,0.0,0.0,0.0,0.0,0.0,0.0,0.0,0.0,0.0,0.0,0.0,0.0,0.0,0.0,0.0,0.0,0.0,-4.0423,-4.152,-4.3563,-4.4088,-4.4599,-4.5374,-4.5699,-4.5893,-4.5878,-4.583,-4.593,-4.6212,-4.6517,-4.6672,-4.6679,-4.6703,-4.6617,-4.6453,-4.6024,-4.556,-4.4989,-4.4533,-4.3968,-4.3263,-4.3086,-4.233,-4.1085,-4.0586,-3.97,0.0,-3.7795,-3.7716,-3.8075,-3.7654,-3.7204,0.0,0.0,0.0,0.0,0.0,-3.7937,-3.7308,0.0,0.0,0.0,0.0,0.0,0.0,0.0,0.0,0.0,0.0,0.0,-1.6841,-1.5019,-1.4697,-1.4861,-1.5463,-1.5478,-1.541,0.0,0.0,0.0,-1.9414,-1.9418,-1.9592,-2.0004,-1.9196,-1.8469,-1.7872,-1.6991,-1.5997,-1.4936,-1.4967,-1.4697,-1.4219,-1.4238,-1.4523,-1.4925,-1.4407,-1.5336,-1.7198,-1.7465,-2.0416,-2.4806,-2.6201,-2.7021,-2.7486,-2.7653,-2.9292,-3.1379,-3.1415,0.0,0.0,0.0,0.0,0.0,0.0,0.0,0.0,0.0,0.0,0.0,0.0,0.0,0.0,0.0,0.0,0.0,0.0,0.0,0.0,0.0,0.0,0.0,0.0,-4.0875,-4.1936,-4.3741,-4.3931,-4.3997,-4.4365,-4.4855,-4.5206,-4.5297,-4.4638,-4.446,-4.5141,-4.4573,-4.4172,-4.4172,0.0,0.0,0.0,0.0,-4.3215,-4.2607,-4.2719,-4.2408,-4.158,-4.1087,-4.0324,-3.932,-3.8196,-3.7224,-3.6342,-3.5759,-3.5504,-3.5504,-3.5504,-3.5504,-3.5711,-3.773,-3.7694,-3.6554,-3.7279,-3.7053,-3.6353,0.0,0.0,0.0,0.0,0.0,0.0,0.0,0.0,0.0,-1.8767,-1.7735,-1.6596,-1.5206,-1.3787,-1.3007,-1.3146,-1.259,-1.2699,0.0,0.0,-1.5328,-1.5744,-1.5272,-1.5047,-1.516,-1.445,-1.385,-1.3357,-1.2842,-1.2185,-1.1396,-1.1612,-1.1534,-1.1253,-1.1467,-1.161,-1.1722,-1.2081,-1.2439,-1.2881,-1.4685,-1.7801,-2.1588,-2.3271,-2.3948,-2.4221,-2.5475,-2.7349,-2.9337,-2.9713,-3.1391,-3.3422,-3.403,0.0,0.0,0.0,0.0,0.0,0.0,0.0,0.0,0.0,0.0,0.0,0.0,0.0,0.0,0.0,0.0,0.0,0.0,0.0,0.0,-3.9715,-4.0323,-4.1071,-4.1991,-4.1651,-4.2248,-4.4818,-4.474,-4.4714,-4.5253,-4.4203,-4.3768,-4.4438,-4.3873,-4.3489,-4.3489,-4.3034,-4.306,-4.3664,-4.2507,-4.1897,-4.1965,-4.1291,-4.0314,-3.91,0.0,0.0,-3.7122,-3.7538,-3.6979,-3.5684,-3.5564,-3.5504,-3.5504,-3.5504,-3.5504,-3.5552,-3.5997,-3.5999,-3.5733,-3.5878,-3.5498,-3.4904,0.0,0.0,0.0,0.0,0.0,0.0,0.0,0.0,0.0,0.0,-1.7626,-1.6531,-1.502,-1.3526,-1.2512,-1.219,-1.1626,0.0,0.0,-1.2734,-1.305,-1.3382,-1.2507,-1.2227,-1.2747,-1.1621,-1.0923,-1.0699,-1.0214,-0.9761,-0.9392,-0.9534,-0.9526,-0.9407,-0.964,-0.9739,-0.9739,-0.9684,-0.9937,-1.0478,-1.1303,-1.3129,-1.5693,-1.8962,-2.0354,-2.0811,-2.2416,-2.4515,-2.6638,-2.7573,-2.9674,-3.1924,-3.2383,-3.293,-3.3334,0.0,0.0,0.0,0.0,0.0,0.0,0.0,0.0,0.0,0.0,0.0,0.0,0.0,0.0,-3.6626,0.0,0.0,-4.0375,-4.0919,-4.156,-4.1765,-4.127,-4.0902,-4.1587,-4.4012,-4.3758,-4.3626,-4.4243,-4.3673,-4.3424,-4.3753,-4.321,-4.2851,-4.2851,-4.2261,-4.2115,-4.2596,-4.1505,-4.0971,-4.1102,-4.0308,-3.9574,-3.8901,-3.8667,-3.7982,-3.6959,-3.673,-3.5924,-3.4758,-3.4758,-3.4758,-3.4758,-3.4758,-3.4476,-3.4056,-3.4056,-3.4624,-3.5504,-3.5504,-3.5295,-3.4936,0.0,0.0,0.0,0.0,0.0,0.0,0.0,0.0,0.0,0.0,-1.7692,-1.6704,-1.4958,-1.3682,-1.2516,0.0,0.0,0.0,0.0,-1.0597,-1.0711,-1.1231,-1.0211,-0.9998,-1.0799,-0.9472,-0.8781,-0.8781,-0.8294,-0.801,-0.7983,-0.8016,-0.7953,-0.7778,-0.7985,-0.7999,-0.7836,-0.7227,-0.7507,-0.8327,-0.7925,-0.8444,-0.9907,-1.3864,-1.6075,-1.7301,-1.9028,-2.1224,-2.3471,-2.4838,-2.7284,-2.9811,-3.0166,-3.0927,-3.1623,-3.1372,-3.1122,0.0,0.0,0.0,0.0,0.0,0.0,0.0,0.0,0.0,-3.4199,-3.5012,-3.5909,-3.701,-3.8476,-3.9621,-4.0756,-4.2045,-4.2555,-4.225,-4.0675,-4.0258,-4.0619,-4.2118,-4.2169,-4.2281,-4.2783,-4.3121,-4.3245,-4.315,-4.2656,-4.2336,-4.2216,-4.1587,-4.113,-4.101,-4.0204,-3.9676,-3.9542,-3.8825,-3.8412,-3.8243,-3.7166,-3.6591,-3.6429,-3.5377,-3.4476,-3.3739,-3.3739,-3.3739,-3.3739,-3.3739,-3.3276,-3.2593,-3.2593,-3.351,-3.4791,-3.4909,-3.4846,-3.464,0.0,0.0,0.0,0.0,0.0,0.0,0.0,0.0,0.0,0.0,0.0,0.0,0.0,0.0,0.0,0.0,0.0,0.0,-0.8149,-0.8254,-0.8286,-0.8183,-0.7839,-0.7611,-0.7613,-0.7153,-0.6912,-0.6912,-0.6832,-0.667,-0.6462,-0.6681,-0.6334,-0.5482,-0.573,-0.5483,-0.4873,-0.4795,-0.4842,-0.4959,-0.5137,-0.5853,-0.6954,-0.802,-1.0495,-1.364,-1.5616,-1.7711,-1.9692,-2.0978,-2.3129,-2.5527,-2.7136,-2.7995,-2.8539,-2.9222,0.0,-2.8686,-2.8671,-2.8215,0.0,-2.9474,-2.9072,-2.9259,0.0,0.0,-3.3516,-3.5701,-3.706,-3.8107,-3.881,-4.0328,-4.1498,-4.1666,-4.1252,-4.0514,-3.9345,-3.8227,-3.783,-3.8654,-4.0091,-4.1018,-4.1091,-4.2425,-4.309,-4.2545,-4.244,-4.2141,-4.1557,-4.0876,-4.0247,-3.9649,-3.8172,-3.7092,-3.6497,-3.5574,-3.4859,-3.4248,-3.4108,-3.3723,-3.3121,-3.2981,-3.2855,-3.2749,-3.2749,-3.2749,-3.2749,-3.2749,-3.2713,-3.2593,-3.2593,-3.2451,-3.2289,-3.2765,-3.2556,-3.1964,0.0,0.0,0.0,0.0,0.0,0.0,0.0,0.0,0.0,0.0,0.0,0.0,0.0,0.0,0.0,0.0,0.0,0.0,-0.6095,-0.5815,-0.56,-0.5444,-0.4829,-0.4618,-0.4884,-0.4322,-0.4048,-0.4048,-0.3974,-0.3879,-0.3769,-0.3878,-0.3688,-0.3271,-0.3051,-0.276,-0.2455,-0.1937,-0.2005,-0.2496,-0.2616,-0.3601,-0.5111,-0.6131,-0.8255,-1.0951,-1.3262,-1.4811,0.0,0.0,-2.0952,-2.2991,-2.4299,-2.5255,-2.5963,-2.6247,-2.6408,0.0,-2.7169,0.0,0.0,0.0,-2.834,-2.9101,-3.1054,-3.1504,-3.2211,-3.4678,-3.6128,-3.714,-3.7879,-3.997,-4.1494,0.0,-4.1711,-4.1528,-3.9725,-3.8486,-3.7215,-3.5791,-3.7438,-3.8869,-3.9236,-4.0469,-4.0902,-4.0038,-3.9599,-3.9126,-3.8533,-3.7863,-3.7232,-3.6653,-3.5946,-3.5455,-3.5187,-3.478,-3.4469,-3.4205,-3.3794,-3.3439,-3.3176,-3.2795,-3.2321,-3.1779,-3.1779,-3.1476,-3.102,-3.1536,-3.1476,-3.0959,-3.0959,-3.0629,-3.0276,-3.1635,-3.1765,-3.1156,0.0,0.0,0.0,0.0,0.0,0.0,0.0,0.0,0.0,0.0,0.0,0.0,0.0,0.0,0.0,0.0,0.0,0.0,0.0,-0.3856,-0.3586,-0.3457,-0.2829,-0.2666,-0.2996,-0.2467,-0.2206,-0.2206,-0.2107,-0.2046,-0.2046,-0.1839,-0.1653,-0.1401,-0.05,0.0056,0.0309,0.1215,0.1127,0.0333,0.0032,-0.1226,-0.3053,-0.4602,-0.6292,-0.8185,-1.0912,-1.2554,0.0,0.0,-1.843,-2.0488,-2.1413,-2.2478,-2.3491,-2.3761,-2.4475,-2.524,-2.5746,0.0,0.0,-2.6647,-2.7458,-2.8346,-2.9353,-2.9905,-3.0958,-3.3477,-3.4627,-3.5579,-3.6844,-3.8894,-4.0407,-4.0299,-4.1583,-4.1806,-3.9633,-3.8783,-3.7396,-3.4754,-3.5897,-3.7027,-3.7222,-3.8651,-3.9124,-3.8005,-3.7217,-3.6579,-3.615,-3.5502,-3.4944,-3.4358,-3.4083,-3.3865,-3.3649,-3.34,-3.3287,-3.3287,-3.279,-3.2536,-3.2523,-3.2067,-3.1476,-3.0796,-3.0493,-2.9948,-2.9353,-2.9731,-2.9499,-2.8858,-2.8751,-2.8527,-2.8388,-2.9669,-3.0183,-3.0106,0.0,0.0,0.0,0.0,0.0,0.0,0.0,0.0,0.0,0.0,0.0,0.0,0.0,0.0,0.0,0.0,0.0,0.0,0.0,-0.2661,-0.2678,-0.2542,-0.2505,-0.2405,-0.2237,-0.22,-0.2195,-0.2195,-0.2208,-0.2199,-0.2171,-0.1473,-0.075,0.0028,0.1723,0.2909,0.3713,0.4716,0.4733,0.3941,0.2918,0.1431,-0.0337,-0.2407,-0.3801,-0.5052,-0.8265,0.0,0.0,0.0,-1.4961,-1.7497,-1.8344,-1.9572,0.0,-2.2364,-2.3811,0.0,0.0,0.0,-2.4577,-2.5826,-2.5649,-2.5795,-2.7949,-2.8747,-2.9779,-3.2405,-3.2945,-3.3707,-3.6101,-3.7012,-3.7779,-3.8875,-3.9981,-4.0084,-3.8394,-3.851,-3.8132,-3.6332,-3.6212,-3.5855,0.0,-3.7352,-3.8521,-3.734,-3.623,-3.5589,-3.546,-3.4917,-3.433,-3.3656,-3.2758,-3.1978,-3.1307,-3.0407,-2.9945,-2.9945,-2.9933,-2.9933,-2.992,-2.9908,-2.9869,-2.9779,-2.8676,-2.8176,-2.8084,-2.7046,-2.6637,-2.655,-2.6107,-2.6184,-2.6538,-2.6127,-2.6907,-2.8094,0.0,0.0,0.0,0.0,0.0,0.0,0.0,0.0,0.0,0.0,0.0,0.0,0.0,0.0,0.0,0.0,0.0,0.0,0.0,-0.083,-0.0357,0.0896,0.049,0.0521,0.1168,0.1187,0.1224,0.1312,0.1242,0.1236,0.1322,0.1572,0.1815,0.2147,0.3937,0.5223,0.6104,0.7097,0.7027,0.6161,0.4485,0.2327,-0.0077,-0.2157,-0.4078,-0.5856,0.0,0.0,0.0,-1.2748,-1.4295,-1.561,-1.7156,-1.8193,0.0,-2.0818,-2.1865,-2.2582,0.0,0.0,-2.3718,-2.4726,-2.5243,-2.5758,-2.6831,-2.7362,-2.8178,-2.9959,-3.0664,-3.1391,-3.2722,-3.4735,-3.6316,-3.6686,-3.8309,-3.9313,-3.874,-3.8139,-3.7161,-3.5412,-3.5505,0.0,0.0,0.0,0.0,-3.3962,-3.3217,-3.2632,-3.2241,-3.2032,-3.1668,-3.1083,-3.0791,-3.0522,-3.0279,-2.9972,-2.9417,-2.8648,-2.7959,-2.7597,-2.7597,-2.7597,-2.745,-2.7112,-2.6742,-2.6427,-2.6129,-2.5786,-2.5627,-2.5616,-2.5436,-2.5258,-2.5061,-2.5227,-2.5373,-2.5569,0.0,0.0,0.0,0.0,0.0,0.0,0.0,0.0,0.0,0.0,0.0,0.0,0.0,0.0,0.0,0.0,0.0,0.0,0.0,0.0,0.1899,0.3115,0.3002,0.3199,0.3756,0.3749,0.3848,0.403,0.3947,0.4011,0.4221,0.4491,0.4606,0.4694,0.698,0.8552,0.9509,1.0784,1.0497,0.9018,0.7169,0.432,0.0971,-0.1559,-0.3587,0.0,0.0,0.0,0.0,-1.1788,-1.3322,-1.4444,-1.6178,-1.7686,-1.8966,-1.9543,-2.0207,-2.092,-2.1646,-2.2035,-2.2562,-2.388,-2.4683,-2.5373,-2.5817,-2.6133,-2.6715,-2.7966,-2.8344,-2.889,-3.0425,-3.227,-3.3733,-3.4302,-3.6144,-3.7519,-3.7652,-3.729,-3.6688,-3.5935,-3.5626,-3.4949,0.0,0.0,0.0,-3.2269,-3.1537,-3.0972,-3.0633,-3.0432,-3.0168,-2.9804,-2.9792,-2.9792,-2.9792,-2.9404,-2.8609,-2.7533,-2.6842,-2.6524,-2.6524,-2.6524,-2.6244,-2.5773,-2.5411,-2.4974,-2.4574,-2.4191,-2.4003,-2.4011,-2.3666,-2.3706,-2.3944,-2.3928,-2.3826,-2.3764,0.0,0.0,0.0,0.0,0.0,0.0,0.0,0.0,0.0,0.0,0.0,0.0,0.0,0.0,0.0,0.0,0.0,0.0,0.0,0.0,0.0,0.4117,0.4934,0.5386,0.5451,0.5435,0.5573,0.5847,0.5843,0.6042,0.6453,0.7152,0.7536,0.7756,1.0785,1.267,1.3728,1.5464,1.4762,1.2298,1.0584,0.7143,0.2747,-0.0599,0.0,0.0,0.0,0.0,0.0,0.0,0.0,0.0,0.0,-1.7924,-2.0158,-1.856,-1.8972,-2.005,-2.0494,-2.0601,-2.1146,-2.3197,-2.4004,-2.44,-2.4961,-2.5043,-2.5391,-2.6536,-2.6144,-2.6411,0.0,0.0,-3.0314,-3.1816,-3.356,-3.491,-3.5362,-3.598,-3.6712,0.0,0.0,0.0,0.0,0.0,0.0,-3.2215,0.0,-3.0608,-3.057,-3.008,-2.9792,-2.9792,-2.9715,-2.9677,-2.9702,-2.8493,-2.7394,-2.6363,-2.6281,-2.624,-2.624,-2.624,-2.6002,-2.5494,-2.4461,-2.3759,-2.3269,-2.2218,-2.1797,-2.1728,-2.0909,-2.16,-2.3018,-2.2186,-2.2182,-2.2624,0.0,0.0,0.0,0.0,0.0,0.0,0.0,0.0,0.0,0.0,0.0,0.0,0.0,0.0,0.0,0.0,0.0,0.0,0.0,0.0,0.0,0.0,0.0,0.0,0.0,0.0,0.0,0.0,0.0,0.8424,0.9561,0.9754,1.056,1.1922,1.3453,1.5052,1.6509,1.6401,1.5157,1.2989,0.0,0.623,0.2871,0.0,0.0,0.0,0.0,0.0,0.0,0.0,0.0,0.0,0.0,-1.6928,-1.836,-1.8205,-1.8605,-1.9136,-1.9325,-1.9586,-2.0236,-2.203,-2.2554,-2.2962,-2.428,-2.4582,-2.4601,-2.457,-2.5061,-2.5591,-2.5989,0.0,0.0,-2.9994,-3.2227,0.0,-3.4586,-3.5667,0.0,0.0,0.0,-3.4603,-3.3806,-3.3316,0.0,0.0,-3.0984,-3.0432,-3.003,-2.9867,-2.9792,-2.9792,-2.8686,-2.8249,-2.8545,-2.6294,-2.4873,-2.4255,-2.3433,-2.3083,-2.3083,-2.3083,-2.2798,-2.2351,-2.1779,-2.145,-2.1281,-2.0663,-2.0605,-2.0889,-2.0293,-2.0371,-2.0727,-2.052,-2.0509,-2.0572,0.0,0.0,0.0,0.0,0.0,0.0,0.0,0.0,0.0,0.0,0.0,0.0,0.0,0.0,0.0,0.0,0.0,0.0,0.0,0.0,0.0,0.0,0.0,0.0,0.0,0.0,0.0,0.0,0.0,0.0,0.0,1.148,1.2636,1.4167,1.5754,1.7283,1.8624,1.8105,0.0,0.0,0.0,0.0,0.0,0.0,0.0,0.0,0.0,0.0,0.0,0.0,0.0,-1.3939,-1.5231,-1.6656,-1.7819,-1.7494,0.0,-1.8063,-1.8322,-1.8537,-1.9071,-2.0549,-2.1462,-2.2171,-2.2872,-2.349,-2.3654,-2.2865,-2.3305,0.0,-2.401,0.0,0.0,0.0,0.0,0.0,-3.2617,-3.3719,-3.4161,0.0,-3.3715,0.0,-3.2737,-3.243,-3.2013,0.0,-3.1122,-3.062,-2.9829,-2.9792,-2.9792,-2.9792,-2.8487,-2.7324,-2.6409,-2.4716,-2.3523,-2.2808,-2.2195,-2.1885,-2.1885,-2.1885,-2.165,-2.1171,0.0,-2.01,-2.0244,-1.9392,-1.9438,-1.9999,-1.9521,-1.9555,-1.9899,-1.971,-1.9643,-1.958,0.0,0.0,0.0,0.0,0.0,0.0,0.0,0.0,0.0,0.0,0.0,0.0,0.0,0.0,0.0,0.0,0.0,0.0,0.0,0.0,0.0,0.0,0.0,0.0,0.0,0.0,0.0,0.0,0.0,0.0,0.0,0.0,0.0,0.0,0.0,0.0,0.0,0.0,0.0,0.0,0.0,0.0,0.0,0.0,0.0,0.0,0.0,0.0,0.0,0.0,-1.0232,-1.3799,-1.4923,-1.6374,-1.7476,-1.6588,-1.657,-1.6921,-1.7334,-1.7443,-1.7761,-1.8977,-2.0352,-2.1369,-2.1087,-2.1868,-2.2318,-2.1121,0.0,-2.1752,-2.25,-2.3604,-2.511,-2.7106,0.0,-2.8914,-3.0418,-3.1492,-3.1961,-3.163,-3.2298,-3.2483,-3.1752,-3.13,-3.1036,-3.0885,-3.0975,-3.0633,-2.9635,-2.9573,-2.9419,-2.9059,-2.8092,-2.6363,-2.3824,-2.3417,-2.2645,-2.1504,-2.1668,-2.1586,-2.1278,-2.1453,-2.118,-2.0577,-1.9332,0.0,-1.9523,-1.8313,-1.8414,-1.9248,-1.8773,-1.9069,-1.9689,-1.9277,-1.9144,-1.9071,0.0,0.0,0.0,0.0,0.0,0.0,0.0,0.0,0.0,0.0,0.0,0.0,0.0,0.0,0.0,0.0,0.0,0.0,0.0,0.0,0.0,0.0,0.0,0.0,0.0,0.0,0.0,0.0,0.0,0.0,0.0,0.0,0.0,0.0,0.0,0.0,0.0,0.0,0.0,0.0,0.0,0.0,0.0,0.0,0.0,0.0,0.0,0.0,0.0,0.0,-0.8988,-1.096,-1.3263,-1.4312,-1.4805,-1.5678,-1.594,-1.6041,-1.613,-1.613,-1.644,-1.7714,-1.8249,-1.8642,-1.9312,-1.9628,0.0,0.0,0.0,-1.9818,-2.0559,-2.166,0.0,-2.5654,0.0,0.0,0.0,0.0,-3.2675,0.0,0.0,0.0,0.0,0.0,0.0,0.0,0.0,-2.9076,-2.8422,-2.8386,-2.7404,-2.5218,-2.4962,-2.3873,-2.1728,-2.1649,-2.0893,-1.9494,-2.0387,-1.9853,-1.8145,-1.9084,-1.882,-1.7617,-1.7,0.0,-1.8193,-1.756,-1.8107,-1.9248,-1.8773,-1.8703,-1.8784,-1.836,-1.8236,-1.8176,0.0,0.0,0.0,0.0,0.0,0.0,0.0,0.0,0.0,0.0,0.0,0.0,0.0,0.0,0.0,0.0,0.0,0.0,0.0,0.0,0.0,0.0,0.0,0.0,0.0,0.0,0.0,0.0,0.0,0.0,0.0,0.0,0.0,0.0,0.0,0.0,0.0,0.0,0.0,0.0,0.0,0.0,0.0,0.0,0.0,0.0,0.0,0.0,0.0,0.0,-0.6208,-0.839,-1.1704,-1.2791,-1.2999,-1.3578,-1.3788,-1.3788,-1.3788,-1.3788,-1.407,-1.5399,-1.6196,-1.6857,-1.76,0.0,0.0,0.0,0.0,-1.8898,-1.9523,0.0,0.0,0.0,0.0,0.0,0.0,0.0,0.0,0.0,0.0,0.0,0.0,0.0,0.0,0.0,0.0,-2.7544,-2.7302,-2.7279,-2.6318,-2.425,-2.3956,-2.3001,-2.124,-2.0996,-2.025,-1.9006,-1.952,-1.8908,-1.7334,-1.7868,-1.7686,-1.6865,-1.5893,0.0,-1.6718,-1.5758,-1.6357,-1.7866,-1.7382,-1.7345,-1.752,-1.7073,-1.6747,-1.646,0.0,0.0,0.0,0.0,0.0,0.0,0.0,0.0,-0.5644,-0.6066,-0.5949,-0.4668,0.0,0.0,0.0,0.0,0.0,0.0,0.0,0.0,0.0,0.0,0.0,0.0,0.0,0.0,0.0,0.0,0.0,0.0,0.0,0.0,0.0,0.0,0.0,0.0,0.0,0.0,0.0,0.0,0.0,0.0,0.0,0.0,0.0,0.0,0.0,0.0,0.0,0.0,-0.3663,-0.6146,-0.9542,-1.0988,-1.1541,-1.1793,-1.1861,-1.1896,-1.1896,-1.1896,-1.2139,-1.3199,-1.4184,-1.5076,-1.567,-1.6558,0.0,0.0,-1.6679,-1.7773,-1.8498,0.0,0.0,0.0,0.0,0.0,0.0,0.0,0.0,0.0,0.0,0.0,0.0,0.0,0.0,0.0,0.0,0.0,-2.5986,-2.5779,-2.5065,-2.3753,-2.3245,-2.2412,-2.12,-2.0791,-1.9923,-1.8638,-1.8877,-1.8149,-1.6609,-1.6846,-1.6645,-1.6062,-1.4946,0.0,0.0,-1.4387,-1.5048,-1.6566,-1.6428,-1.6514,-1.6688,-1.6156,-1.5685,-1.5219,0.0,0.0,0.0,0.0,0.0,0.0,0.0,0.0,-0.5737,-0.6445,-0.668,0.0,0.0,0.0,0.0,0.0,0.0,0.0,0.0,0.0,0.0,0.0,0.0,0.0,0.0,0.0,0.0,0.0,0.0,0.0,0.0,0.0,0.0,0.0,0.0,0.0,0.0,0.0,0.0,0.0,0.0,0.0,0.0,0.0,0.0,0.0,0.0,0.0,0.0,0.0,0.0,-0.4283,-0.5871,-0.8113,-1.0369,-1.1406,0.0,0.0,-1.1896,-1.1896,-1.1945,-1.2042,-1.2188,-1.2443,-1.3159,0.0,0.0,-1.4183,-1.4585,-1.5291,-1.6746,-1.7949,-1.963,0.0,0.0,0.0,0.0,0.0,0.0,0.0,0.0,0.0,0.0,0.0,0.0,0.0,0.0,0.0,-2.4344,-2.3417,-2.2616,-2.2119,-2.1676,-2.135,-2.119,-2.0791,-1.955,-1.7464,-1.851,-1.7374,-1.4419,-1.5379,-1.5002,-1.3517,-1.3411,0.0,0.0,-1.4752,-1.5685,-1.6671,-1.7497,-1.76,-1.7224,-1.64,-1.599,-1.5641,0.0,0.0,0.0,0.0,0.0,0.0,0.0,0.0,-0.5011,-0.5469,-0.6207,0.0,0.0,0.0,0.0,0.0,0.0,0.0,0.0,0.0,0.0,0.0,0.0,0.0,0.0,0.0,0.0,0.0,0.0,0.0,0.0,0.0,0.0,0.0,0.0,0.0,0.0,0.0,0.0,0.0,0.0,0.0,0.0,0.0,0.0,0.0,0.0,0.0,0.0,0.0,0.0,0.0,-0.5408,-0.6948,0.0,0.0,-0.9384,-0.9466,-0.9526,-0.9554,-0.9948,-1.1507,-1.1647,-1.1906,-1.3801,0.0,0.0,-1.4021,-1.4326,-1.4972,-1.6519,-1.789,-1.9489,0.0,0.0,0.0,0.0,0.0,0.0,0.0,0.0,0.0,0.0,0.0,0.0,0.0,0.0,0.0,-2.2784,-2.2369,-2.1943,-2.1504,-2.1288,-2.1064,-2.083,-2.0047,-1.8829,-1.7302,-1.6951,-1.5736,-1.3814,-1.4069,-1.3751,-1.2971,-1.2971,0.0,0.0,-1.4135,-1.519,-1.6609,-1.6689,-1.6483,-1.5979,-1.5193,-1.439,-1.3578,0.0,0.0,0.0,0.0,0.0,0.0,-0.3437,-0.377,-0.4178,-0.4422,-0.5585,0.0,0.0,0.0,0.0,0.0,0.0,0.0,0.0,0.0,0.0,0.0,0.0,0.0,0.0,0.0,0.0,0.0,0.0,0.0,0.0,0.0,0.0,0.0,0.0,0.0,0.0,0.0,0.0,0.0,0.0,0.0,0.0,0.0,0.0,0.0,0.0,0.0,0.0,0.0,0.0,0.0,0.0,0.0,0.0,0.0,-0.7743,-0.7834,-0.7894,-0.7955,-0.8528,-1.0779,-1.0896,-1.1176,0.0,0.0,-1.3611,-1.4024,-1.4228,-1.488,-1.6519,-1.7966,-1.9482,0.0,0.0,0.0,0.0,0.0,0.0,0.0,0.0,0.0,0.0,0.0,0.0,0.0,0.0,0.0,-2.1717,-2.1582,-2.1357,-2.1045,-2.1035,-2.0702,-1.9985,-1.9217,-1.8074,-1.6533,-1.5611,-1.4565,-1.3467,-1.3307,-1.3039,-1.2784,-1.2784,0.0,0.0,-1.3709,-1.47,-1.6149,-1.5807,-1.5352,-1.4783,-1.4004,-1.3195,-1.2294,0.0,0.0,0.0,0.0,0.0,0.0,0.0,0.0,-0.347,-0.3587,-0.5002,0.0,0.0,0.0,0.0,0.0,0.0,0.0,0.0,0.0,0.0,0.0,0.0,0.0,0.0,0.0,0.0,0.0,0.0,0.0,0.0,0.0,0.0,0.0,0.0,0.0,0.0,0.0,0.0,0.0,0.0,0.0,0.0,0.0,0.0,0.0,0.0,0.0,0.0,0.0,0.0,0.0,0.0,0.0,0.0,0.0,-0.7584,-0.7811,-0.7814,-0.7923,-0.8333,-0.9706,-0.9575,-0.9819,0.0,0.0,-1.2491,-1.3815,-1.4088,-1.4682,-1.6468,-1.781,-1.922,-2.0989,-2.2306,0.0,0.0,0.0,0.0,0.0,0.0,0.0,0.0,0.0,0.0,0.0,0.0,0.0,-2.1225,-2.083,-2.0615,-2.0615,-2.0615,-1.9927,-1.8525,-1.8525,-1.7274,-1.4848,-1.4802,-1.4233,-1.3213,-1.3213,-1.3039,0.0,0.0,0.0,0.0,-1.3709,-1.4314,-1.5199,-1.519,-1.476,-1.3999,-1.321,-1.2815,-1.2542,0.0,0.0,0.0,0.0,0.0,0.0,0.0,0.0,-0.4175,-0.4394,-0.6266,0.0,0.0,0.0,0.0,0.0,0.0,0.0,0.0,0.0,0.0,0.0,0.0,0.0,0.0,0.0,0.0,0.0,0.0,0.0,0.0,0.0,0.0,0.0,0.0,0.0,0.0,0.0,0.0,0.0,0.0,0.0,0.0,0.0,0.0,0.0,0.0,0.0,0.0,0.0,0.0,0.0,0.0,0.0,0.0,0.0,0.0,0.0,-0.8609,-0.8867,-0.9557,-1.2425,-1.2464,-1.2626,-1.5595,-1.5564,-1.5182,-1.6108,-1.6547,-1.6983,-1.7757,-1.9134,-2.0428,-2.1167,-2.2306,0.0,0.0,0.0,0.0,0.0,0.0,0.0,0.0,0.0,0.0,0.0,0.0,0.0,-2.1209,-1.9891,-1.9256,-1.9485,-1.9508,-1.8837,-1.7406,-1.6663,-1.5787,-1.4794,-1.3848,-1.2872,-1.1825,-1.1629,-1.1526,0.0,0.0,0.0,0.0,-1.3863,-1.4377,-1.5384,-1.5001,-1.4197,-1.3212,-1.275,-1.1873,-1.0925,0.0,0.0,0.0,0.0,0.0,0.0,0.0,0.0,-0.5333,-0.5739,-0.7704,0.0,0.0,0.0,0.0,0.0,0.0,0.0,0.0,0.0,0.0,0.0,0.0,0.0,0.0,0.0,0.0,0.0,0.0,0.0,0.0,0.0,0.0,0.0,0.0,0.0,0.0,0.0,0.0,0.0,0.0,0.0,-0.7102,0.0,0.0,0.0,0.0,0.0,0.0,0.0,0.0,0.0,0.0,0.0,0.0,0.0,-1.0387,0.0,0.0,-0.9933,-1.0711,-1.3822,-1.3962,0.0,0.0,-1.7236,-1.6845,-1.744,-1.7921,-1.8448,-1.9196,-2.0199,-2.1156,-2.1868,-2.2217,0.0,0.0,0.0,0.0,0.0,0.0,0.0,0.0,0.0,0.0,0.0,0.0,0.0,-1.9587,-1.8515,-1.7748,-1.7432,-1.7794,-1.7352,-1.5954,-1.5304,-1.4602,-1.3865,-1.3,-1.2074,-1.1036,-1.0865,-1.0783,0.0,0.0,0.0,0.0,-1.335,-1.3654,-1.4588,-1.3763,-1.2931,-1.2107,-1.1563,-1.0783,-0.9947,0.0,0.0,0.0,0.0,0.0,0.0,0.0,0.0,0.0,0.0,0.0,0.0,0.0,0.0,0.0,0.0,0.0,0.0,0.0,0.0,0.0,0.0,0.0,0.0,0.0,0.0,0.0,-0.5616,-0.57,-0.3346,0.1291,0.0,0.0,0.0,0.0,0.0,0.0,0.0,0.0,0.0,0.0,-0.9911,0.0,0.0,0.0,0.0,0.0,0.0,0.0,0.0,0.0,0.0,0.0,0.0,0.0,0.0,0.0,0.0,0.0,0.0,0.0,0.0,0.0,0.0,0.0,-1.7763,0.0,-1.8171,-1.8591,-1.9333,-2.0739,-2.1046,-2.1506,-2.2892,-2.2173,0.0,0.0,0.0,0.0,0.0,0.0,0.0,0.0,0.0,0.0,0.0,0.0,0.0,-1.6924,-1.6802,-1.6123,-1.481,-1.5639,-1.5498,-1.4321,-1.4276,-1.3628,-1.2305,-1.2305,-1.1768,-1.0783,-1.0783,-1.0783,0.0,0.0,0.0,0.0,-1.24,-1.2438,-1.3085,-1.1875,-1.1216,-1.0863,-0.9992,-0.9626,-0.9494,0.0,0.0,0.0,0.0,0.0,0.0,0.0,0.0,0.0,0.0,0.0,0.0,0.0,0.0,0.0,0.0,0.0,0.0,0.0,0.0,0.0,0.0,0.0,0.0,0.0,0.0,0.0,-1.1672,-1.0738,-0.9058,-0.6704,-0.6684,0.0,0.0,0.0,0.0,0.0,0.0,0.0,0.0,-1.2078,-1.1817,0.0,0.0,0.0,0.0,-1.1715,-1.1816,0.0,0.0,0.0,0.0,0.0,0.0,0.0,0.0,-1.4321,-1.5042,-1.502,0.0,-1.5798,-1.6924,-1.6852,-1.6951,0.0,-1.8913,-1.9075,0.0,0.0,0.0,-2.2045,-2.2366,-2.2703,-2.3028,-2.2862,0.0,0.0,0.0,0.0,0.0,0.0,0.0,0.0,0.0,0.0,0.0,0.0,-1.709,-1.6893,-1.5672,-1.482,-1.4502,-1.3692,-1.3243,-1.3196,-1.3196,-1.2893,-1.2305,-1.2305,-1.1768,-1.0783,-1.0783,-1.0783,0.0,0.0,0.0,-1.316,-1.2282,-1.2109,-1.235,-1.1441,-1.0915,-1.0597,-0.9717,-0.8961,-0.8401,0.0,0.0,0.0,0.0,0.0,0.0,0.0,0.0,0.0,0.0,0.0,0.0,0.0,0.0,0.0,0.0,0.0,0.0,0.0,0.0,0.0,0.0,0.0,0.0,0.0,0.0,0.0,0.0,0.0,-1.4793,0.0,0.0,0.0,0.0,0.0,0.0,0.0,0.0,0.0,-1.7331,-1.5904,0.0,0.0,0.0,0.0,0.0,-1.3155,-1.3156,0.0,-1.3257,-1.336,-1.3653,0.0,0.0,0.0,0.0,-1.6102,-1.7394,-1.8128,-1.7884,-1.7709,-1.9007,-1.8566,-1.8221,-1.9733,0.0,0.0,0.0,0.0,0.0,0.0,0.0,0.0,0.0,0.0,0.0,0.0,0.0,0.0,0.0,0.0,0.0,0.0,0.0,0.0,0.0,0.0,-1.5138,-1.5026,-1.4174,-1.3522,-1.3258,-1.2643,-1.2378,-1.2583,-1.2583,-1.2496,-1.2305,-1.2305,-1.1768,-1.0783,-1.0783,-1.0718,0.0,0.0,0.0,-1.2249,-1.1412,-1.1315,-1.1505,-1.0164,-0.978,-0.9849,-0.8576,-0.7795,-0.7368,0.0,0.0,0.0,0.0,0.0,0.0,0.0,0.0,0.0,0.0,0.0,0.0,0.0,0.0,0.0,0.0,0.0,0.0,0.0,0.0,0.0,0.0,0.0,0.0,0.0,0.0,0.0,0.0,0.0,0.0,0.0,0.0,-1.9673,0.0,0.0,0.0,0.0,0.0,-2.167,-2.144,-2.0178,0.0,0.0,0.0,0.0,0.0,0.0,0.0,0.0,-1.3655,-1.3621,-1.3947,-1.405,0.0,0.0,0.0,0.0,0.0,-1.9887,-1.9196,-1.8642,-2.0433,-1.9852,-1.91,-2.0201,0.0,0.0,0.0,0.0,0.0,0.0,0.0,0.0,0.0,0.0,0.0,0.0,0.0,0.0,0.0,0.0,0.0,0.0,0.0,0.0,0.0,0.0,-1.3026,-1.2797,-1.2737,-1.2489,-1.1986,-1.2171,-1.2278,-1.2238,-1.2278,-1.2305,-1.2305,-1.2305,-1.1848,-1.1013,-1.1013,-1.0869,-1.0635,0.0,0.0,-1.132,-1.041,-1.0325,-1.0626,-0.8733,-0.8452,-0.8909,-0.7307,-0.6687,-0.6581,0.0,0.0,0.0,0.0,0.0,0.0,0.0,0.0,0.0,0.0,0.0,0.0,0.0,0.0,0.0,0.0,0.0,0.0,0.0,0.0,0.0,0.0,0.0,0.0,0.0,0.0,0.0,0.0,0.0,0.0,-2.6507,-2.7375,-2.726,-2.6301,0.0,-2.5228,-2.5305,-2.5538,-2.5522,-2.5193,-2.3443,0.0,0.0,0.0,0.0,0.0,0.0,0.0,0.0,-1.4741,-1.4816,-1.5231,-1.4356,0.0,0.0,0.0,0.0,0.0,-1.7532,-1.842,-1.9379,-2.0595,-2.0714,-2.0288,-1.9518,0.0,0.0,0.0,0.0,0.0,0.0,0.0,0.0,0.0,0.0,0.0,0.0,0.0,0.0,0.0,0.0,0.0,0.0,0.0,0.0,0.0,0.0,-1.2837,-1.279,-1.2543,-1.2325,-1.2238,-1.2278,-1.2184,-1.1973,-1.2178,-1.2305,-1.2305,-1.2305,-1.2224,-1.207,-1.207,-1.1919,-1.1686,0.0,-1.1596,-1.13,-1.0208,-0.9825,-0.9759,-0.8505,-0.8091,-0.8091,-0.7079,-0.6687,-0.656,0.0,0.0,0.0,0.0,0.0,0.0,0.0,0.0,0.0,0.0,0.0,0.0,0.0,0.0,0.0,0.0,0.0,0.0,0.0,0.0,0.0,0.0,-1.7179,-1.8764,0.0,0.0,0.0,0.0,0.0,-2.6305,-2.8408,-2.9351,-2.9783,-2.9726,0.0,-2.7819,-2.7559,-2.7229,-2.7223,-2.7196,0.0,0.0,0.0,0.0,0.0,0.0,0.0,0.0,0.0,0.0,-1.4966,-1.5234,-1.4364,0.0,0.0,0.0,0.0,0.0,-1.7071,-1.8171,-1.9392,-2.0152,-2.0,-1.9503,-1.9241,0.0,0.0,0.0,0.0,0.0,0.0,0.0,0.0,0.0,0.0,0.0,0.0,0.0,0.0,0.0,0.0,0.0,0.0,0.0,0.0,0.0,0.0,0.0,-1.2543,-1.2268,-1.1991,-1.1837,-1.1355,-1.0974,-1.0704,-1.0974,-1.1362,-1.1824,-1.1824,-1.1824,-1.1837,-1.1991,-1.1904,-1.1637,0.0,-1.161,-1.1075,-0.959,-0.9197,-0.9302,-0.7353,-0.6887,-0.7177,-0.6334,-0.6009,-0.5943,0.0,0.0,0.0,0.0,0.0,0.0,0.0,0.0,0.0,0.0,0.0,0.0,0.0,0.0,0.0,0.0,0.0,0.0,0.0,0.0,0.0,-1.4082,-1.5979,-1.791,-1.977,0.0,-2.1854,-2.4094,-2.4546,-2.6001,-2.8398,-2.9351,-3.009,-3.0597,0.0,-2.868,-2.8418,-2.8162,-2.8302,-2.8498,0.0,0.0,0.0,0.0,0.0,0.0,0.0,0.0,0.0,0.0,0.0,0.0,0.0,0.0,0.0,-1.4496,-1.5357,-1.6338,-1.6608,-1.7477,-1.8411,-1.8839,0.0,-1.8788,-1.9087,0.0,0.0,0.0,0.0,0.0,0.0,0.0,0.0,0.0,0.0,0.0,0.0,0.0,0.0,0.0,0.0,0.0,0.0,0.0,0.0,0.0,0.0,0.0,-1.1959,-1.1729,-1.1368,-1.0865,-1.0165,-0.9662,-0.9382,-0.9599,-1.0179,-1.1114,-1.1286,-1.1389,-1.1395,-1.1663,-1.1603,-1.1336,-1.1563,-1.1267,-1.049,-0.8948,-0.8443,-0.8484,-0.6276,-0.5815,-0.6301,-0.5653,-0.5395,-0.5395,0.0,0.0,0.0,0.0,0.0,0.0,0.0,0.0,0.0,0.0,0.0,0.0,0.0,0.0,0.0,0.0,0.0,0.0,0.0,0.0,0.0,-1.3717,-1.4192,-1.5411,-1.7406,-1.9946,-2.0918,-2.0195,-2.2182,-2.4431,-2.6869,-2.806,-2.8966,-2.9599,0.0,-2.8738,-2.8541,-2.918,-2.9478,-2.9421,-2.8241,0.0,0.0,0.0,0.0,0.0,0.0,0.0,0.0,0.0,0.0,0.0,0.0,0.0,-1.4168,-1.4442,-1.4573,-1.4741,-1.5089,-1.5608,-1.6035,-1.6082,-1.7761,0.0,-1.9082,-1.8696,0.0,0.0,0.0,0.0,0.0,0.0,0.0,0.0,0.0,0.0,0.0,0.0,0.0,0.0,0.0,0.0,0.0,0.0,0.0,0.0,0.0,0.0,-1.0901,-1.0773,-1.0263,-0.9301,-0.9009,-0.875,-0.8493,-0.8508,-0.9071,-1.0205,-1.1005,-1.1389,-1.1389,-1.1415,-1.1303,-1.1022,-1.1049,-1.0444,-0.9361,-0.8409,-0.7582,-0.6785,-0.5782,-0.5428,-0.5491,-0.5428,-0.5395,-0.5395,0.0,0.0,0.0,0.0,0.0,0.0,0.0,0.0,0.0,0.0,0.0,0.0,0.0,0.0,0.0,0.0,0.0,0.0,0.0,0.0,0.0,0.0,-1.2952,-1.3127,-1.3699,-1.6386,-1.7875,-1.8124,-2.045,-2.2863,-2.5368,-2.6998,0.0,0.0,0.0,-2.9234,-2.9126,-2.8101,-2.8115,-2.8735,-2.7281,-2.6663,0.0,0.0,0.0,0.0,0.0,0.0,0.0,0.0,-1.5717,-1.5198,-1.4357,-1.4088,-1.4108,-1.4215,-1.4249,-1.4315,-1.4609,-1.5117,-1.5605,-1.5738,-1.666,0.0,0.0,0.0,0.0,0.0,0.0,0.0,0.0,0.0,0.0,0.0,0.0,0.0,0.0,0.0,0.0,0.0,0.0,0.0,0.0,0.0,0.0,0.0,0.0,0.0,0.0,-0.9484,-0.9149,-0.8687,-0.7913,-0.743,-0.7352,-0.7352,-0.7555,-0.8004,-0.9417,-1.0391,-1.0928,-1.1076,-1.1096,-1.0995,-1.0995,-1.0462,-0.9464,-0.8446,-0.7426,-0.6425,-0.5567,-0.5277,-0.5395,-0.5395,-0.5453,-0.5525,0.0,0.0,0.0,0.0,0.0,0.0,0.0,0.0,0.0,0.0,0.0,0.0,0.0,0.0,0.0,0.0,0.0,0.0,0.0,0.0,0.0,0.0,0.0,-1.217,-1.1418,-1.3032,-1.4173,-1.4805,-1.759,-2.0402,-2.3194,0.0,0.0,0.0,0.0,-2.9424,-2.9139,-2.7515,-2.7581,-2.8622,-2.6987,-2.6698,0.0,0.0,0.0,0.0,0.0,0.0,0.0,0.0,-1.5558,-1.47,0.0,0.0,0.0,0.0,-1.4222,-1.4289,-1.4583,-1.5023,-1.5464,0.0,0.0,0.0,0.0,0.0,0.0,0.0,0.0,0.0,0.0,0.0,0.0,0.0,0.0,0.0,0.0,0.0,0.0,0.0,0.0,0.0,0.0,0.0,0.0,0.0,0.0,0.0,0.0,-0.8356,-0.7995,-0.7573,-0.6751,-0.6301,-0.6301,-0.6301,-0.6429,-0.6715,-0.7859,-0.9027,-1.0212,-1.0374,-1.0457,-1.0457,-1.0457,-0.9822,-0.8677,-0.7924,-0.7002,-0.6033,-0.5428,-0.5267,-0.5399,-0.545,-0.5535,-0.5583,0.0,0.0,0.0,0.0,0.0,0.0,0.0,0.0,0.0,0.0,0.0,0.0,0.0,0.0,0.0,0.0,0.0,0.0,0.0,0.0,0.0,0.0,0.0,-1.2861,-1.1048,-1.0421,-1.0013,-0.9794,-1.3421,-1.6905,-2.028,-2.3925,0.0,0.0,0.0,0.0,-2.8462,-2.7774,-2.8303,-2.9441,-2.7823,-2.7596,-2.7999,0.0,0.0,0.0,0.0,0.0,0.0,0.0,-1.5549,-1.4082,0.0,0.0,0.0,-1.4436,-1.4479,-1.4589,-1.4928,-1.5223,-1.5471,0.0,0.0,0.0,0.0,0.0,0.0,0.0,0.0,0.0,0.0,0.0,0.0,0.0,0.0,0.0,0.0,0.0,0.0,0.0,0.0,0.0,0.0,0.0,0.0,0.0,0.0,0.0,0.0,-0.7451,-0.6821,-0.5832,-0.5549,-0.5395,-0.5395,-0.5395,-0.5848,-0.6682,-0.6472,-0.7402,-0.93,-0.93,-0.93,-0.93,-0.93,-0.8285,-0.6687,-0.6682,-0.617,-0.5395,-0.5392,-0.5392,-0.5412,-0.5532,-0.5589,-0.561,0.0,0.0,0.0,0.0,0.0,0.0,0.0,0.0,0.0,0.0,0.0,0.0,0.0,0.0,0.0,0.0,0.0,0.0,0.0,0.0,0.0,0.0,0.0,0.0,0.0,0.0,-1.0601,-1.0282,-1.3159,-1.6639,0.0,0.0,0.0,-2.8799,0.0,-2.9156,-2.8319,-2.6707,-2.6843,-2.8026,-2.688,-2.7142,-2.806,0.0,0.0,0.0,0.0,0.0,0.0,0.0,0.0,0.0,-1.4021,0.0,0.0,-1.4496,-1.4669,-1.485,-1.4988,-1.5324,0.0,0.0,0.0,0.0,0.0,0.0,0.0,0.0,0.0,0.0,0.0,0.0,0.0,0.0,0.0,0.0,0.0,0.0,0.0,0.0,0.0,0.0,0.0,0.0,0.0,0.0,0.0,0.0,0.0,-0.6313,-0.6018,-0.5532,-0.544,-0.5395,-0.5395,-0.5395,-0.5524,-0.5782,-0.5738,-0.6572,-0.8158,-0.8059,-0.8075,-0.8153,-0.809,-0.7517,-0.6645,-0.5876,-0.552,-0.5385,-0.5243,-0.5267,-0.5399,-0.5446,-0.5593,-0.5732,0.0,0.0,0.0,0.0,0.0,0.0,0.0,0.0,0.0,0.0,0.0,0.0,0.0,0.0,0.0,0.0,0.0,0.0,0.0,0.0,0.0,0.0,0.0,0.0,0.0,-1.3139,-1.2679,0.0,0.0,0.0,0.0,0.0,0.0,-2.8891,0.0,-2.8804,-2.8639,-2.6399,-2.6554,-2.8265,-2.7364,-2.7811,-2.8928,0.0,0.0,0.0,0.0,0.0,0.0,0.0,0.0,0.0,-1.4162,0.0,0.0,-1.4803,-1.4997,-1.5164,-1.5277,0.0,0.0,0.0,0.0,0.0,0.0,0.0,0.0,0.0,0.0,0.0,0.0,0.0,0.0,0.0,0.0,0.0,0.0,0.0,0.0,0.0,0.0,0.0,0.0,0.0,0.0,0.0,0.0,0.0,0.0,-0.5749,-0.5637,-0.5491,-0.5055,-0.4855,-0.4855,-0.4486,-0.4486,-0.4855,-0.4747,-0.5343,-0.6604,-0.6904,-0.7104,-0.7152,-0.6722,-0.6372,-0.6024,-0.5357,-0.522,-0.5385,-0.5257,-0.5281,-0.5402,-0.5463,-0.5566,-0.5722,0.0,0.0,0.0,0.0,0.0,0.0,0.0,0.0,0.0,0.0,0.0,0.0,0.0,0.0,0.0,0.0,0.0,0.0,0.0,0.0,0.0,0.0,0.0,0.0,0.0,0.0,0.0,0.0,0.0,0.0,0.0,0.0,-2.644,-2.8098,0.0,-2.82,-2.906,-2.655,-2.7033,-2.9436,-2.8646,-2.9088,-3.0098,-2.8717,0.0,0.0,0.0,0.0,0.0,0.0,0.0,0.0,-1.4249,-1.4375,-1.452,-1.5054,-1.5319,-1.5498,0.0,0.0,0.0,0.0,0.0,0.0,0.0,0.0,0.0,0.0,0.0,0.0,0.0,0.0,0.0,0.0,0.0,0.0,0.0,0.0,0.0,0.0,0.0,0.0,0.0,0.0,0.0,0.0,0.0,0.0,0.0,-0.5661,-0.5548,-0.5462,-0.4512,-0.3977,-0.3867,-0.3166,-0.3197,-0.3982,-0.3812,-0.4141,-0.4901,-0.5833,-0.6243,-0.6212,-0.5431,-0.5083,-0.5059,-0.509,-0.5213,-0.5375,-0.5375,-0.5382,-0.5412,-0.5552,-0.5579,-0.563,0.0,0.0,0.0,0.0,0.0,0.0,0.0,0.0,0.0,0.0,0.0,0.0,0.0,0.0,0.0,0.0,0.0,0.0,0.0,0.0,0.0,0.0,0.0,0.0,0.0,0.0,0.0,0.0,0.0,0.0,0.0,0.0,0.0,-2.6753,0.0,-2.7704,-2.7721,-2.6164,-2.6784,-2.8749,-2.7992,-2.8513,-2.965,-2.8641,-2.7351,0.0,0.0,0.0,0.0,0.0,0.0,0.0,-1.2913,-1.3324,-1.3673,-1.3787,-1.4737,-1.5798,0.0,-1.6274,0.0,0.0,0.0,0.0,0.0,0.0,0.0,0.0,0.0,0.0,0.0,0.0,0.0,0.0,0.0,0.0,0.0,0.0,0.0,0.0,0.0,0.0,0.0,0.0,0.0,0.0,0.0,0.0,-0.564,-0.5606,-0.522,-0.4361,-0.4128,-0.3675,-0.2976,-0.3363,-0.3648,0.0,-0.436,-0.4673,-0.4741,-0.4975,-0.5078,-0.5062,-0.5092,-0.4968,-0.4802,-0.5005,-0.5117,-0.5179,-0.5179,-0.5254,-0.5399,-0.5433,-0.5521,-0.5613,0.0,0.0,0.0,0.0,0.0,0.0,0.0,0.0,0.0,0.0,0.0,0.0,0.0,0.0,0.0,0.0,0.0,0.0,0.0,0.0,0.0,0.0,0.0,0.0,0.0,0.0,0.0,0.0,0.0,0.0,0.0,0.0,0.0,-2.6788,0.0,-2.7904,-2.8299,-2.6698,-2.7007,-2.8566,-2.8166,-2.8672,-2.9498,-2.8623,-2.7726,-2.6637,-2.4539,0.0,0.0,0.0,0.0,0.0,0.0,0.0,-1.2318,-1.2433,-1.3117,-1.3874,0.0,0.0,0.0,0.0,0.0,0.0,0.0,0.0,0.0,0.0,0.0,0.0,0.0,0.0,0.0,0.0,0.0,0.0,0.0,0.0,0.0,0.0,0.0,0.0,0.0,0.0,0.0,0.0,0.0,-0.5593,-0.5518,-0.5071,-0.4592,-0.4015,-0.3173,-0.2492,-0.203,-0.2358,-0.2739,-0.317,-0.384,-0.4139,-0.4161,-0.4161,-0.4125,-0.4077,-0.4306,-0.4501,-0.4707,-0.4935,-0.5036,-0.5106,-0.5213,-0.5324,-0.5395,-0.5395,-0.5446,-0.5545,0.0,0.0,0.0,0.0,0.0,0.0,0.0,0.0,0.0,0.0,0.0,0.0,0.0,0.0,0.0,0.0,0.0,0.0,0.0,0.0,0.0,0.0,0.0,0.0,0.0,0.0,0.0,0.0,0.0,0.0,0.0,0.0,0.0,-2.7293,0.0,-2.8309,-2.9402,-2.7554,-2.7545,-2.8771,-2.8771,-2.9026,-2.9346,-2.8645,-2.7918,-2.7098,-2.5415,-2.3128,-2.0654,-1.8945,0.0,0.0,0.0,0.0,-1.0855,-1.108,-1.1404,-1.1702,0.0,0.0,0.0,0.0,0.0,0.0,0.0,0.0,0.0,0.0,0.0,0.0,0.0,0.0,0.0,0.0,0.0,0.0,0.0,0.0,0.0,0.0,0.0,0.0,0.0,0.0,0.0,0.0,0.0,-0.5382,-0.5354,-0.4484,-0.3912,-0.3757,-0.2164,-0.1225,-0.1082,-0.1091,-0.1548,-0.2448,-0.3159,-0.3514,-0.3545,-0.3574,-0.3543,-0.3493,-0.3687,-0.4132,-0.4704,-0.4857,-0.4958,-0.5076,-0.526,-0.5371,-0.5395,-0.5395,-0.5395,-0.5433,0.0,0.0,0.0,0.0,0.0,0.0,0.0,0.0,0.0,0.0,0.0,0.0,0.0,0.0,0.0,0.0,0.0,0.0,-2.6305,0.0,0.0,-2.6308,-2.4967,-2.4131,0.0,0.0,0.0,0.0,0.0,0.0,0.0,0.0,0.0,-2.7205,0.0,0.0,-2.9474,-2.806,-2.8244,-2.9472,-2.9472,-2.916,-2.8727,-2.8595,-2.7753,-2.6621,-2.6526,-2.4482,-2.1621,-2.0276,-1.6826,0.0,0.0,0.0,-0.9716,-0.9743,-1.0597,-1.159,0.0,0.0,0.0,0.0,0.0,0.0,0.0,0.0,0.0,0.0,0.0,0.0,0.0,0.0,0.0,0.0,0.0,0.0,0.0,0.0,0.0,0.0,0.0,0.0,0.0,0.0,0.0,0.0,-0.5481,-0.5337,-0.5137,-0.4403,-0.3588,-0.2739,-0.1798,-0.095,-0.018,-0.0775,-0.1494,-0.2248,-0.3663,-0.3984,-0.3337,-0.3396,-0.3553,-0.3789,-0.4324,-0.4603,-0.4704,-0.4857,-0.4897,-0.4931,-0.5073,-0.5243,-0.5395,-0.5395,-0.5395,-0.5419,0.0,0.0,0.0,0.0,0.0,0.0,0.0,0.0,0.0,0.0,0.0,0.0,0.0,0.0,0.0,-2.7269,-2.6901,-2.6309,-2.5392,-2.5096,-2.5069,-2.5381,-2.4352,-2.3661,-2.3358,0.0,0.0,0.0,0.0,0.0,0.0,-2.4148,-2.6094,0.0,0.0,0.0,0.0,0.0,-2.7877,-2.8861,-2.8861,-2.899,-2.9146,-2.9146,-2.8765,-2.8194,-2.784,-2.6188,-2.3908,-2.1974,-1.8504,-1.4574,-1.2316,0.0,0.0,0.0,0.0,0.0,0.0,0.0,0.0,0.0,0.0,0.0,0.0,0.0,0.0,0.0,0.0,0.0,0.0,0.0,0.0,0.0,0.0,0.0,0.0,0.0,0.0,0.0,0.0,0.0,0.0,0.0,0.0,0.0,-0.5433,-0.5327,-0.5106,-0.3948,-0.302,-0.2521,-0.1241,-0.0391,0.0,-0.0741,-0.1673,-0.2843,-0.3959,-0.4098,-0.3372,-0.3818,-0.3894,-0.3703,-0.3846,-0.425,-0.4823,-0.4891,-0.4935,-0.5022,-0.5203,-0.5334,-0.5395,-0.5395,-0.5395,-0.5416,0.0,0.0,0.0,0.0,0.0,0.0,0.0,0.0,0.0,0.0,0.0,0.0,0.0,0.0,0.0,0.0,-2.7142,-2.6238,-2.4765,-2.4447,-2.4358,-2.4497,-2.3783,-2.3277,-2.3027,0.0,0.0,0.0,0.0,0.0,-2.0294,-2.184,-2.4243,0.0,-2.8199,0.0,0.0,0.0,0.0,0.0,0.0,0.0,0.0,0.0,-2.9356,-2.9513,-2.8867,-2.7603,-2.5915,-2.3915,-2.0327,-1.6248,-1.3452,-1.0888,0.0,0.0,0.0,0.0,0.0,0.0,0.0,0.0,0.0,0.0,0.0,0.0,0.0,0.0,0.0,0.0,0.0,0.0,0.0,0.0,0.0,0.0,0.0,0.0,0.0,0.0,0.0,0.0,0.0,0.0,0.0,0.0,-0.5436,-0.5327,-0.5106,-0.3745,-0.2909,-0.2794,-0.115,-0.0294,-0.0271,-0.0998,-0.2029,-0.3314,-0.4125,-0.4211,-0.3707,-0.4239,-0.4279,-0.391,-0.3724,-0.4114,-0.4891,-0.4928,-0.5005,-0.5113,-0.5334,-0.5395,-0.5395,-0.5395,-0.5395,-0.5412,0.0,0.0,0.0,0.0,0.0,0.0,0.0,0.0,0.0,0.0,0.0,0.0,0.0,-2.8965,-2.9177,-2.8403,-2.8383,-2.7481,-2.531,-2.4282,-2.3977,-2.4483,-2.3783,0.0,-2.4215,0.0,0.0,0.0,0.0,0.0,-1.9305,-1.9999,-2.1576,-2.387,-2.6776,-2.8392,-2.8989,0.0,0.0,0.0,0.0,0.0,0.0,0.0,0.0,0.0,0.0,0.0,0.0,0.0,0.0,0.0,0.0,0.0,0.0,0.0,0.0,0.0,0.0,0.0,0.0,0.0,0.0,0.0,0.0,0.0,0.0,0.0,0.0,0.0,0.0,0.0,0.0,0.0,0.0,0.0,0.0,0.0,0.0,0.0,0.0,0.0,0.0,0.0,0.0,0.0,-0.5556,-0.5327,-0.5106,-0.4244,-0.3668,-0.3558,-0.1908,-0.1037,-0.1039,-0.1764,-0.2541,-0.3314,-0.4125,-0.4491,-0.4436,-0.4491,-0.4626,-0.4837,-0.4686,-0.4739,-0.4897,-0.5032,-0.5093,-0.5113,-0.5334,-0.5395,-0.5395,-0.5395,-0.5395,-0.5395,0.0,0.0,0.0,0.0,0.0,0.0,0.0,0.0,0.0,0.0,0.0,0.0,0.0,-3.0092,-3.0086,-2.9177,-2.8031,-2.6722,-2.5287,-2.4024,-2.3259,-2.3089,-2.2673,-2.2342,-2.2182,0.0,0.0,0.0,0.0,-1.6297,-1.7414,-1.7654,-1.8826,-2.0897,-2.4846,-2.6909,-2.746,-2.7352,0.0,0.0,0.0,0.0,0.0,0.0,0.0,0.0,0.0,0.0,0.0,0.0,0.0,0.0,0.0,0.0,0.0,0.0,0.0,0.0,0.0,0.0,0.0,0.0,0.0,0.0,0.0,0.0,0.0,0.0,0.0,0.0,0.0,0.0,0.0,0.0,0.0,0.0,0.0,0.0,0.0,0.0,0.0,0.0,0.0,0.0,0.0,0.0,0.0,-0.3833,-0.4235,-0.2966,-0.2424,-0.2876,-0.1279,-0.0615,-0.109,-0.184,-0.2343,-0.2591,-0.34,-0.3511,-0.3037,-0.3566,-0.3889,-0.4086,-0.4607,-0.4975,-0.5231,-0.5117,-0.5189,-0.5284,-0.5375,-0.5395,-0.5395,-0.5395,-0.5457,-0.5542,0.0,0.0,0.0,0.0,0.0,0.0,0.0,0.0,0.0,0.0,0.0,0.0,0.0,0.0,-3.1615,-3.0976,-2.8734,-2.6723,-2.5256,-2.3455,-2.2359,-2.2164,-2.1675,-2.151,-2.176,0.0,0.0,0.0,0.0,0.0,0.0,-1.6495,-1.7382,-1.8864,-2.2491,-2.4773,0.0,0.0,0.0,-3.027,0.0,0.0,-3.1075,0.0,0.0,0.0,0.0,0.0,0.0,0.0,0.0,0.0,0.0,0.0,0.0,0.0,0.0,0.0,0.0,0.0,0.0,0.0,0.0,0.0,0.0,0.0,0.0,0.0,0.0,0.0,0.0,0.0,0.0,0.0,0.0,0.0,0.0,0.0,0.0,0.0,0.0,0.0,0.0,0.0,0.0,0.0,0.0,0.0,-0.3399,-0.2336,-0.181,-0.2022,-0.0962,-0.0616,-0.109,-0.1591,-0.1952,-0.2202,-0.2732,-0.2704,-0.2232,-0.3074,-0.3551,-0.373,-0.4586,-0.5101,-0.5281,-0.5226,-0.5101,-0.496,-0.5316,-0.506,-0.4521,-0.4872,-0.4841,-0.4669,0.0,0.0,0.0,0.0,0.0,0.0,0.0,0.0,0.0,0.0,0.0,0.0,0.0,0.0,0.0,-3.3721,-3.0622,-2.7673,-2.5335,-2.275,-2.1469,-2.1877,-2.0976,-2.1323,-2.3187,0.0,0.0,0.0,0.0,0.0,0.0,0.0,-1.737,-1.7748,-1.9823,-2.2049,-2.4299,0.0,-2.7316,-2.9638,0.0,-2.8319,-3.0874,0.0,0.0,0.0,-3.067,-3.0688,0.0,0.0,0.0,0.0,0.0,0.0,0.0,0.0,0.0,0.0,0.0,0.0,0.0,0.0,0.0,0.0,0.0,0.0,0.0,0.0,0.0,0.0,0.0,0.0,0.0,0.0,0.0,0.0,0.0,0.0,0.0,0.0,0.0,0.0,0.0,0.0,0.0,0.0,-0.2704,-0.2644,-0.2648,-0.2547,-0.2031,-0.1092,-0.1062,-0.109,-0.109,-0.109,-0.1452,-0.2174,-0.2174,-0.2147,-0.2178,-0.3117,-0.3639,-0.3816,-0.4719,-0.5103,-0.5085,-0.5265,-0.4821,-0.4059,-0.5111,-0.4362,-0.2835,-0.381,-0.3557,-0.2835,0.0,0.0,0.0,0.0,0.0,0.0,0.0,0.0,0.0,0.0,0.0,0.0,0.0,0.0,-3.3382,-3.3935,-3.1722,-2.9316,-2.7048,-2.4776,-2.3035,-2.1935,-2.1666,-2.1495,-2.1355,0.0,0.0,0.0,0.0,0.0,0.0,0.0,0.0,0.0,-1.8501,-2.0302,-2.2306,-2.3576,0.0,0.0,-2.7184,-2.763,0.0,0.0,0.0,0.0,0.0,-3.0165,0.0,0.0,-2.8457,-2.6824,0.0,0.0,0.0,0.0,0.0,0.0,-0.7316,0.0,0.0,0.0,0.0,0.0,0.0,0.0,0.0,0.0,0.0,0.0,0.0,0.0,0.0,0.0,0.0,0.0,0.0,0.0,0.0,0.0,0.0,0.0,0.0,0.0,0.0,0.0,-0.0752,-0.1007,-0.164,-0.1646,-0.1226,-0.0337,-0.0308,-0.056,-0.109,-0.109,-0.1202,-0.1396,-0.1396,-0.1118,-0.0672,-0.2139,-0.2864,-0.3079,-0.4496,-0.4803,-0.4301,-0.437,-0.3849,-0.3088,-0.3382,-0.3174,-0.2729,-0.3018,-0.3011,-0.2874,0.0,0.0,0.0,0.0,0.0,0.0,0.0,0.0,0.0,0.0,0.0,0.0,0.0,0.0,0.0,-3.5904,-3.3189,-3.062,-2.8722,-2.6068,-2.4063,-2.2949,-2.2558,-2.2205,-2.1808,0.0,0.0,0.0,0.0,0.0,0.0,0.0,0.0,0.0,0.0,0.0,0.0,0.0,0.0,0.0,-2.6888,0.0,0.0,-2.8145,-2.7887,0.0,0.0,0.0,-3.0439,-2.8819,-2.7789,0.0,0.0,0.0,0.0,0.0,0.0,0.0,0.0,0.0,0.0,0.0,0.0,0.0,-0.3126,-0.2858,0.0,0.0,0.0,0.0,0.0,0.0,0.0,0.0,0.0,0.0,0.0,0.0,0.0,0.0,0.0,0.0,0.0,0.0,0.0,0.0,0.0,-0.0208,-0.0745,-0.0743,-0.0519,-0.0029,0.0,-0.0199,-0.0644,-0.0643,-0.0643,-0.0643,-0.0643,-0.0423,-0.0057,-0.1387,-0.2252,-0.2757,-0.3707,-0.3856,-0.3411,-0.3045,-0.256,-0.2153,-0.2597,-0.2286,-0.1629,-0.2081,-0.2007,-0.1763,0.0,0.0,0.0,0.0,0.0,0.0,0.0,0.0,0.0,0.0,0.0,0.0,0.0,0.0,0.0,0.0,-3.4814,-3.1804,-3.0177,-2.684,0.0,0.0,0.0,0.0,0.0,0.0,0.0,0.0,0.0,0.0,0.0,0.0,0.0,0.0,0.0,0.0,0.0,0.0,0.0,-2.64,-2.6228,-2.6642,0.0,0.0,-2.7459,0.0,-2.7723,-2.8559,-2.9251,-2.7319,-2.5538,0.0,0.0,0.0,0.0,0.0,-0.9846,0.0,0.0,0.0,0.0,0.0,0.0,0.0,-0.1739,-0.1427,-0.1064,0.0,0.0,0.0,0.0,0.0,0.0,0.0,0.0,0.0,0.0,0.0,0.0,0.0,0.0,0.0,0.0,0.0,0.0,0.0,0.0,0.0,0.0,0.0,0.0,0.0,0.0,0.0,0.0,0.0,0.0,0.0,0.0,0.0,-0.0029,-0.0911,-0.175,-0.2537,-0.2645,-0.2644,-0.2477,-0.1641,-0.1227,-0.1261,-0.2193,-0.1514,-0.0114,-0.1088,-0.0824,-0.0118,0.0,0.0,0.0,0.0,0.0,0.0,0.0,0.0,0.0,0.0,0.0,0.0,0.0,0.0,0.0,0.0,-3.5678,-3.3154,-3.0732,-2.7597,0.0,0.0,0.0,0.0,0.0,0.0,0.0,0.0,0.0,0.0,0.0,0.0,0.0,0.0,0.0,0.0,0.0,0.0,0.0,-2.3547,-2.3818,0.0,-2.5636,-2.5105,-2.4679,-2.4455,-2.5197,-2.6054,-2.6822,0.0,-2.5168,-2.3141,0.0,0.0,0.0,0.0,0.0,0.0,0.0,0.0,0.0,0.0,0.0,0.0,0.0481,0.0915,0.1213,0.0,0.0,0.0,0.0,0.0,0.0,0.0,0.0,0.0,0.0,0.0,0.0,0.0,0.0,0.0,0.0,0.0,0.0,0.0,0.0,0.0,0.0,0.0,0.0,0.0,0.0,0.0,0.0,0.0,0.0,0.0,0.0,0.0,-0.0029,-0.0911,-0.1408,-0.1611,-0.2383,-0.2277,-0.1574,-0.1374,-0.0887,-0.0281,-0.0469,-0.0333,-0.0038,-0.0233,-0.0196,-0.0039,0.0,0.0,0.0,0.0,0.0,0.0,0.0,0.0,0.0,0.0,0.0,0.0,0.0,0.0,0.0,0.0,0.0,0.0,0.0,0.0,0.0,0.0,0.0,0.0,0.0,0.0,0.0,0.0,0.0,0.0,0.0,0.0,0.0,0.0,0.0,0.0,0.0,0.0,-2.2081,-2.2172,-2.3797,0.0,-2.4566,-2.4242,-2.3758,-2.3382,-2.4135,-2.4855,-2.5416,-2.5016,-2.4105,0.0,0.0,-1.7615,-1.6032,0.0,-1.0074,-0.9222,0.0,0.0,0.0,-0.2204,0.0,0.0,0.0,0.2035,0.2556,0.3195,0.0,0.0,0.0,0.0,0.0,0.0,0.0,0.0,0.0,0.0,0.0,0.0,0.0,0.0,0.0,0.0,0.0,0.0,0.0,0.0,0.0,0.0,0.0,0.0,0.0,0.0,0.0,0.0,0.0,0.0,0.0,0.0,0.0,-0.0467,-0.0896,-0.1315,-0.1334,-0.1342,-0.1274,-0.0839,-0.0379,0.0,0.0,0.0,0.0,0.0,0.0,0.0,0.0,0.0,0.0,0.0,0.0,0.0,0.0,0.0,0.0,0.0,0.0,0.0,0.0,0.0,0.0,0.0,0.0,0.0,0.0,0.0,0.0,0.0,0.0,-2.3864,0.0,-2.1693,0.0,0.0,0.0,0.0,0.0,0.0,0.0,0.0,0.0,0.0,0.0,0.0,0.0,-2.1473,0.0,-2.4324,-2.349,-2.3381,-2.3004,-2.2597,-2.335,-2.3979,-2.4342,-2.3362,0.0,-2.1742,-1.7955,-1.6732,0.0,0.0,0.0,0.0,0.0,0.0,0.0,0.0,0.0,0.1438,0.0,0.0,0.0,0.4002,0.0,0.0,0.0,0.0,0.0,0.0,0.0,0.0,0.0,0.0,0.0,0.0,0.0,0.0,0.0,0.0,0.0,0.0,0.0,0.0,0.0,0.0,0.0,0.0,0.0,0.0,0.0,0.0,0.0,0.0,0.0,0.0,0.0,0.0,-0.0393,-0.1006,-0.0303,-0.0405,-0.098,-0.0304,0.0,0.0,0.0,0.0,0.0,0.0,0.0,0.0,-2.1894,-2.2352,0.0,0.0,0.0,0.0,0.0,0.0,0.0,0.0,0.0,0.0,0.0,0.0,0.0,0.0,0.0,0.0,-3.5262,0.0,0.0,0.0,0.0,0.0,-2.201,-2.0592,0.0,0.0,0.0,0.0,0.0,0.0,0.0,0.0,-1.8629,0.0,0.0,0.0,-2.0846,0.0,-2.1953,-2.2107,0.0,-2.1161,-2.0676,-2.0441,-2.1681,-2.2641,-2.3096,0.0,-2.142,-2.0766,0.0,-1.6109,0.0,0.0,0.0,0.0,0.0,0.0,0.0,0.0,-0.0706,0.0,0.0,0.0,0.3697,0.5745,0.0,0.0,0.0,0.0,0.0,0.0,0.0,0.0,0.0,0.0,0.0,0.0,0.0,0.0,0.0,0.0,0.0,0.0,0.0,0.0,0.0,0.0,0.0,0.0,0.0,0.0,0.0,0.0,0.0,0.0,0.0,0.0,0.0,0.0,-0.0066,-0.0135,-0.0034,-0.0068,-0.014,-0.0034,0.0,0.0,0.0,0.0,0.0,0.0,0.0,0.0,-2.1963,-2.2422,0.0,0.0,0.0,0.0,0.0,0.0,0.0,0.0,0.0,0.0,0.0,0.0,0.0,0.0,0.0,-3.6337,0.0,0.0,0.0,0.0,0.0,0.0,0.0,0.0,0.0,0.0,-1.772,0.0,0.0,0.0,0.0,0.0,-1.8793,0.0,-2.035,0.0,0.0,0.0,0.0,0.0,0.0,-2.0589,-2.0477,-2.0369,-2.0958,-2.1353,-2.158,0.0,-2.072,0.0,0.0,0.0,0.0,0.0,0.0,0.0,0.0,0.0,0.0,0.0,0.0,0.0,0.197,0.0,0.4515,0.0,0.0,0.0,0.0,0.0,0.0,0.0,0.5665,0.0,0.0,0.0,0.0,0.0,0.0,0.0,0.0,0.0,0.0,0.0,0.0,0.0,0.0,0.0,0.0,0.0,0.0,0.0,0.0,0.0,-0.0251,-0.074,-0.0251,-0.0255,-0.0742,-0.023,0.0,0.0,0.0,0.0,0.0,0.0,0.0,0.0,0.0,0.0,0.0,0.0,0.0,0.0,-2.2295,0.0,0.0,0.0,0.0,0.0,-2.8347,-3.1283,-3.3162,0.0,0.0,0.0,-3.724,-3.7319,0.0,0.0,-3.7993,-3.7044,0.0,0.0,-3.152,0.0,0.0,0.0,0.0,0.0,0.0,0.0,0.0,0.0,0.0,0.0,0.0,0.0,0.0,-1.9506,-2.035,0.0,0.0,-2.0419,-2.0303,-1.9902,-1.9442,-1.9881,-2.0118,-2.0236,-2.0236,-2.0398,-2.0614,-2.0665,-2.0061,0.0,-1.8271,0.0,0.0,0.0,0.0,0.0,-0.7812,0.0,0.0,0.0,0.0,0.0,0.0,0.0,0.0,0.0,0.0,0.0,0.0,0.0,0.0,0.0,0.0,0.0,0.0,0.0,0.0,0.0,0.0,0.0,0.0,0.0,0.0,0.0541,0.0202,0.0,0.0,0.0,0.0,0.0,0.0,0.0,0.0,0.0,-0.0425,-0.1277,-0.0422,-0.0457,-0.1271,-0.04,0.0,0.0,0.0,0.0,0.0,0.0,0.0,0.0,0.0,0.0,0.0,0.0,0.0,0.0,-2.3052,-2.3081,0.0,0.0,0.0,0.0,-2.9417,-3.1392,-3.2621,0.0,0.0,0.0,0.0,0.0,0.0,0.0,0.0,-3.7394,-3.7345,0.0,-3.2982,0.0,0.0,-2.5979,0.0,0.0,0.0,0.0,0.0,0.0,0.0,0.0,0.0,0.0,0.0,-1.9254,-1.9593,-1.89,-1.9117,-1.9788,-1.8017,-1.7638,-1.8115,0.0,-1.896,-1.9332,-1.9332,0.0,0.0,-1.9639,-1.9342,0.0,0.0,0.0,0.0,0.0,0.0,0.0,0.0,0.0,0.0,-0.4848,0.0,0.0,0.0,0.0,0.3773,0.0,0.0,0.0,0.0,0.0,0.0,0.0,0.0,0.0,0.0,0.0,0.0,0.0,0.0,0.0,0.0,0.0,0.0,0.1956,0.0749,0.0,0.0,0.0,0.0,0.0,0.0,0.0,0.0,0.0,-0.0454,-0.1287,-0.0408,-0.047,-0.1272,-0.0404,0.0,0.0,0.0,0.0,0.0,0.0,0.0,0.0,0.0,0.0,0.0,0.0,0.0,0.0,0.0,0.0,0.0,0.0,0.0,-2.7261,-2.9456,-3.1248,0.0,0.0,0.0,0.0,0.0,-3.6317,-3.6887,0.0,0.0,-3.7416,-3.5926,-3.4412,0.0,0.0,0.0,-2.5986,0.0,0.0,0.0,0.0,0.0,0.0,0.0,0.0,0.0,0.0,0.0,-1.7351,0.0,0.0,0.0,0.0,0.0,-1.6758,-1.7513,0.0,0.0,-1.8428,-1.8428,-1.862,0.0,-1.921,-1.8921,-1.8428,-1.8388,-1.7556,-1.6331,-1.5032,-1.3828,0.0,0.0,0.0,-0.7556,-0.6634,0.0,0.0,0.0,0.0,0.0,0.0,0.0,0.0,0.0,0.0,0.0,0.0,0.0,0.0,0.0,0.0,0.0,0.0,0.0,0.0,0.0,0.0,0.0,0.3044,0.1814,0.1058,0.1049,0.0396,0.0,0.0,0.0,0.0,0.0,0.0,-0.0421,-0.1292,-0.0409,-0.0471,-0.1274,-0.0412,0.0,0.0,0.0,0.0,0.0,0.0,0.0,0.0,0.0,0.0,0.0,0.0,0.0,0.0,-2.3299,0.0,0.0,0.0,0.0,0.0,0.0,0.0,0.0,0.0,-3.3558,0.0,-3.4958,0.0,-3.6023,0.0,-3.6772,-3.6403,-3.4875,-3.3739,0.0,-2.963,-2.7584,0.0,0.0,0.0,0.0,0.0,0.0,-1.6966,0.0,0.0,0.0,0.0,0.0,0.0,0.0,0.0,-1.6514,0.0,0.0,-1.6026,0.0,0.0,-1.7285,-1.7641,0.0,-1.7123,-1.734,-1.7915,-1.7945,-1.7854,-1.8238,-1.7674,-1.6671,-1.5572,-1.4462,-1.3233,-1.1642,-0.9939,0.0,-0.7451,-0.5289,0.0,-0.1794,0.0,0.0,0.0,0.0,0.0,0.0,0.0,0.0,0.0,0.0,0.0,0.0,0.0,0.0,0.0,0.0,0.0,0.0,0.0,0.4404,0.4393,0.2716,0.1671,0.0,0.0,0.0,0.0,0.0,0.0,0.0,0.0,-0.0426,-0.1275,-0.0411,-0.0471,-0.1275,-0.0381,0.0,0.0,0.0,0.0,0.0,0.0,0.0,0.0,0.0,0.0,0.0,0.0,0.0,0.0,0.0,0.0,0.0,0.0,-2.5031,0.0,0.0,0.0,-3.2555,0.0,-3.3757,-3.4801,-3.4324,-3.4331,-3.4603,-3.522,-3.4851,0.0,-3.4286,-3.2966,0.0,0.0,-2.7544,-2.5922,-2.4745,0.0,0.0,0.0,0.0,0.0,0.0,0.0,0.0,0.0,-1.5705,0.0,-1.5195,-1.5363,-1.5678,-1.6005,-1.5617,-1.5356,-1.5177,-1.5108,-1.5897,-1.691,-1.5635,-1.5463,-1.5829,-1.5844,-1.6448,-1.7206,-1.6738,-1.6893,-1.6849,-1.4701,-1.4057,-1.3628,-1.1879,-1.0053,-0.8409,-0.7469,0.0,0.0,0.0,0.0,-0.1203,0.0,0.0,0.0,0.0,0.0,0.0,0.0,0.0,0.0,0.0,0.0,0.0,0.0,0.0,0.0,0.0,0.6738,0.587,0.5804,0.3416,0.1933,0.0,0.0,0.0084,0.0,0.0,0.0,0.0,0.0,-0.0401,-0.1238,-0.0381,-0.0438,-0.1213,-0.0382,0.0,0.0,0.0,0.0,0.0,0.0,0.0,0.0,0.0,0.0,0.0,0.0,0.0,0.0,-2.3299,-2.3398,-2.388,0.0,-2.5753,-2.7101,0.0,0.0,0.0,0.0,-3.2749,-3.3389,-3.2838,-3.3462,-3.3858,-3.3643,-3.4238,0.0,0.0,0.0,0.0,-2.8588,-2.7186,-2.5566,-2.3517,-2.2242,0.0,-1.7926,0.0,0.0,-1.4843,0.0,0.0,0.0,0.0,0.0,-1.3758,-1.3979,-1.4057,-1.3938,-1.3651,-1.4064,0.0,0.0,-1.3903,-1.5075,-1.492,-1.4898,-1.4976,-1.4771,-1.4999,-1.5339,-1.5031,-1.5138,-1.5169,-1.4061,-1.33,-1.2672,-1.1902,-1.0451,-0.9074,-0.8929,-0.6941,-0.5081,0.0,0.0,0.0,0.0,0.0,0.0,0.0,0.0,0.0,0.0,0.0,0.0,0.0,0.0,0.0,0.0,0.0,0.0,0.0,0.738,0.6621,0.5713,0.49,0.3662,0.0,0.0,0.0,0.0042,0.0,0.0,0.0,0.0,-0.0112,-0.0337,-0.0107,-0.0105,-0.0321,-0.0108,0.0,0.0,0.0,0.0,0.0,0.0,0.0,0.0,0.0,0.0,0.0,0.0,0.0,0.0,-2.3677,0.0,0.0,-2.5154,0.0,0.0,-2.8875,0.0,0.0,-3.1424,-3.2152,0.0,-3.1599,-3.2043,-3.2263,-3.1966,-3.2303,0.0,-3.1539,0.0,0.0,-2.8187,-2.7312,-2.5817,-2.3556,-2.2164,0.0,-1.8012,0.0,0.0,-1.4763,0.0,0.0,0.0,0.0,-1.3828,0.0,-1.34,-1.336,-1.318,-1.2911,0.0,0.0,-1.2733,-1.2806,-1.3461,-1.3294,-1.3506,-1.3765,-1.3466,-1.3745,-1.4148,-1.3823,-1.3956,-1.4032,-1.3084,-1.2491,-1.2019,-1.1433,-1.0313,-0.9303,-0.9411,-0.7935,-0.6638,-0.7263,-0.6603,-0.605,0.0,0.0,0.0,0.0,0.0,0.0,0.0,0.0,0.0,0.0,0.0,0.0,0.0,0.0,0.0,0.0,0.7148,0.6593,0.6481,0.5358,0.0,0.0,0.0,0.0,0.0823,0.0778,0.0554,0.0,0.0,0.0,0.0,0.0,0.0,0.0,0.0,0.0,0.0,0.0,0.0,0.0,0.0,0.0,0.0,0.0,0.0,0.0,0.0,0.0,0.0,0.0,0.0,0.0,0.0,0.0,0.0,0.0,-3.0725,0.0,-3.1026,0.0,-3.136,-3.0267,-3.0276,-3.0278,-3.0084,0.0,-2.9914,-3.0259,-2.9977,-2.9365,-2.8386,-2.7734,-2.6399,-2.4302,-2.2653,0.0,0.0,0.0,0.0,0.0,0.0,0.0,0.0,0.0,0.0,0.0,-1.3333,-1.3247,0.0,-1.2958,-1.2741,-1.256,-1.2374,-1.215,-1.1857,-1.1431,-1.1792,-1.2453,-1.1967,-1.2406,-1.2996,-1.2508,-1.2711,-1.2893,-1.1812,-1.1584,-1.15,-1.0776,-1.0047,-0.9466,-0.9466,-0.8812,-0.824,-0.8476,-0.8423,-0.8417,-0.8701,-0.7985,-0.7132,0.0,0.0,0.0,0.0,0.0,0.0,0.0,0.0,0.0,0.0,0.0,0.0,0.0,0.0,0.6287,0.7321,0.5486,0.0,0.0,0.0,0.0,0.1844,0.1837,0.1234,0.0,0.0,0.0,0.0,0.0,0.0,0.0,0.0,0.0,0.0,0.0,0.0,0.0,0.0,0.0,0.0,0.0,0.0,0.0,0.0,0.0,0.0,0.0,0.0,0.0,0.0,0.0,-2.7477,-2.7886,-2.8756,-2.9162,-2.8603,-2.9088,-2.9063,-2.8,-2.8675,-2.8673,-2.7341,-2.88,0.0,0.0,0.0,0.0,-2.9495,-2.8512,-2.6869,-2.4598,-2.3012,-2.0775,0.0,0.0,0.0,0.0,0.0,0.0,0.0,0.0,0.0,-1.36,-1.3547,0.0,-1.3206,-1.3153,-1.246,-1.155,-1.2076,-1.1285,-0.99,-1.0376,-1.1016,-1.1445,-1.0211,-1.0055,-1.0224,-0.9341,-0.9657,-1.0323,-1.0009,-1.0335,-1.0776,-1.0656,-1.0491,-1.0364,-1.0364,-0.9722,-0.928,-1.0008,-0.9629,-0.9376,-1.0367,-1.0411,-0.9902,-0.8733,0.0,0.0,0.0,0.0,0.0,0.0,0.0,0.0,0.0,0.0,0.0,0.0,0.0,0.0,0.0,0.0,0.0,0.0,0.0,0.0,0.0,0.1896,0.0,0.0,0.0,0.0,0.0,0.0,0.0,0.0,0.0,0.0,0.0,0.0,0.0,0.0,0.0,0.0,0.0,0.0,0.0,0.0,0.0,0.0,0.0,0.0,0.0,0.0,0.0,0.0,0.0,0.0,-2.6268,0.0,-2.7754,-2.7768,-2.7462,-2.6928,-2.7371,-2.7351,-2.6577,-2.7464,-2.7879,-2.7331,-2.7787,-2.8091,-2.8091,-2.7846,0.0,-2.443,-2.3165,-2.1421,-1.9269,0.0,0.0,0.0,0.0,0.0,0.0,0.0,-1.3515,0.0,0.0,0.0,-1.1706,-1.1403,-1.0942,-1.0462,-1.0668,-1.0126,-0.9341,-0.9505,-0.9777,-0.9944,-0.91,-0.8879,-0.884,-0.8368,-0.8537,-0.8986,-0.9288,-0.9684,-1.0121,-1.0499,-1.0593,-1.0593,-1.0593,-1.0269,-1.0079,-1.0498,-1.0269,-1.0117,-1.067,-1.0801,-1.0392,-0.9098,-0.5762,0.0,0.0,0.0,0.0,0.0,0.0,0.0,0.0,0.0,0.0,0.0,0.0,0.0,0.0,0.0,0.0,0.0,0.0,0.0,0.0,0.0,0.0,0.0,0.0,0.0,0.0907,0.0283,0.0,0.0,0.0,0.0,0.0,0.0,0.0,0.0,0.0,0.0,0.0,0.0,0.0,0.0,0.0,0.0,0.0,0.0,-2.5498,0.0,0.0,-2.5303,0.0,-2.4988,-2.4287,-2.4595,-2.6768,-2.629,-2.5766,-2.5766,-2.5975,-2.6058,-2.5808,-2.6135,-2.6278,-2.613,-2.6248,-2.6367,-2.6367,-2.684,-2.6177,-2.4092,-2.3279,-2.207,0.0,0.0,0.0,0.0,0.0,0.0,0.0,0.0,0.0,0.0,0.0,-1.0909,-1.0248,-0.9732,-0.9433,-0.9301,-0.9286,-0.9031,-0.867,-0.8602,-0.8466,-0.8222,-0.8024,-0.7925,-0.7909,-0.7759,-0.7829,-0.8068,-0.8876,-0.9295,-0.9651,-1.0405,-1.0593,-1.0593,-1.0593,-1.0593,-1.0593,-1.0593,-1.0593,-1.0593,-1.0593,-1.0315,-0.9793,-0.8764,-0.5572,0.0,0.0,0.0,0.0,0.0,0.0,0.0,0.0,0.0,0.0,0.0,0.0,0.0,0.0,0.0,0.0,0.0,0.0,0.0,0.0,0.0,0.3202,0.2226,0.0,0.217,0.2151,0.0962,0.0375,0.0369,0.0126,0.0,0.0,0.0,0.0,0.0,0.0,0.0,0.0,0.0,0.0,0.0,0.0,0.0,0.0,0.0,0.0,0.0,0.0,0.0,0.0,-2.4541,-2.4092,-2.3889,-2.4143,-2.3727,-2.343,-2.343,-2.4339,-2.4542,-2.3517,-2.4919,-2.5624,-2.5009,-2.5516,-2.588,-2.588,-2.6314,-2.5613,-2.3617,-2.3461,-2.2161,0.0,0.0,0.0,0.0,0.0,0.0,0.0,0.0,0.0,0.0,-1.0929,-1.03,-0.9948,-0.9755,-0.9004,-0.8072,-0.8965,-0.8161,-0.6679,-0.7574,-0.7302,-0.6542,-0.6489,-0.6726,-0.6927,-0.6368,-0.6576,-0.7206,-0.8191,-0.8974,-0.9651,-1.0405,-1.0593,-1.0593,-1.0593,-1.0593,-1.0593,-1.0593,-1.0593,-1.0593,-1.0593,-0.945,-0.8475,-0.8577,-0.5498,-0.3037,0.0,0.0,0.0,0.0,0.0,0.0,0.0,0.0,0.0,0.0,0.102,0.0,0.0,0.0,0.0,0.0,0.0,0.0,0.3779,0.0,0.3718,0.3626,0.3472,0.3409,0.3405,0.2219,0.1634,0.159,0.0515,0.0,0.0,0.0,0.0,0.0,0.0,0.0,0.0,0.0,0.0,0.0,0.0,0.0,0.0,0.0,0.0,0.0,0.0,0.0,0.0,0.0,-2.3059,-2.2283,-2.2283,-2.2782,-2.3091,-2.3091,-2.3279,-2.3248,-2.2764,-2.3183,-2.3361,-2.3099,-2.331,-2.3442,-2.3442,-2.4252,-2.4004,-2.2584,-2.2241,-2.1396,0.0,0.0,0.0,0.0,0.0,0.0,0.0,0.0,-1.2873,-1.2067,-1.0683,-0.9692,-0.891,-0.8121,-0.7438,-0.6949,-0.7365,-0.6984,-0.6338,-0.6756,-0.6644,-0.63,-0.63,-0.6337,-0.6299,-0.6064,-0.6166,-0.6499,-0.7264,-0.8137,-0.8987,-0.9639,-1.0206,-1.0593,-1.0593,-1.0593,-1.0593,-1.0593,-1.0593,-1.0593,-1.0593,-0.985,-0.9064,-0.8573,-0.6521,-0.4729,0.0,0.0,0.0,0.0,0.0,0.0,0.0,0.0,0.0,0.0,0.0,0.0,0.0,0.0,0.0,0.0,0.0,0.0,0.3798,0.0,0.4068,0.4859,0.4739,0.4664,0.4642,0.2707,0.1819,0.1755,0.057,0.0,0.0,0.0,0.0,0.0,0.0,0.0,0.0,0.0,0.0,0.0,0.0,0.0,0.0,-2.5174,0.0,-2.4736,0.0,-2.3702,-2.3226,-2.3102,-2.1761,-2.0755,-2.0755,-2.1489,-2.2041,-2.2041,-2.173,-2.1487,-2.1487,-2.1053,-2.08,-2.0922,-2.0819,-2.0697,-2.0617,-2.1452,0.0,-2.0461,-2.0144,-1.9706,-1.9177,-1.7273,0.0,0.0,0.0,0.0,0.0,-1.3526,-1.292,-1.2097,-1.0552,-0.933,-0.8298,-0.7274,-0.6659,-0.63,-0.63,-0.63,-0.63,-0.63,-0.63,-0.63,-0.63,-0.6186,-0.6098,-0.6098,-0.603,-0.6124,-0.6768,-0.763,-0.8518,-0.9142,-0.9945,-1.0593,-1.0593,-1.0593,-1.0593,-1.0593,-1.0593,-1.062,-1.07,-1.0234,-0.9673,-0.9113,-0.7442,-0.5969,-0.5292,0.0,0.0,0.0,0.0,0.0,0.0,0.0,-0.1354,-0.0637,-0.0222,0.0,0.0,0.0,0.0,0.0,0.0,0.0,0.0,0.0,0.0,0.0,0.6037,0.5733,0.5421,0.3314,0.215,0.1769,0.0543,0.0231,0.0565,0.0191,0.0,0.0,0.0,0.0,0.0,0.0,0.0,0.0,0.0,0.0,0.005,-2.5116,-2.4717,-2.4287,-2.3867,-2.282,-2.188,-2.141,-2.0305,-1.9542,-1.9542,-1.9534,-1.9542,-1.9542,-1.9309,-1.9137,-1.9137,-1.8479,-1.8204,-1.8605,-1.8254,-1.7896,0.0,0.0,-1.7868,-1.6963,-1.708,-1.701,-1.675,0.0,0.0,-1.5094,0.0,-1.4173,-1.3592,-1.3053,-1.2465,-1.181,-1.0483,-0.933,-0.8367,-0.7969,-0.7176,-0.63,-0.63,-0.63,-0.63,-0.63,-0.63,-0.63,-0.63,-0.6296,-0.6296,-0.6296,-0.6152,-0.6145,-0.6881,-0.7703,-0.8518,-0.9142,-0.9945,-1.0593,-1.0593,-1.0593,-1.0593,-1.0593,-1.0593,-1.0673,-1.0929,-1.0321,-0.9842,-1.0272,-0.8095,-0.6227,-0.6345,0.0,0.0,0.0,0.0,0.0,0.0,-0.247,-0.1679,-0.1958,0.0,0.0,0.0,0.0,0.0,0.0,0.0,0.0,0.3943,0.5023,0.0,0.7756,0.7318,0.6585,0.5573,0.4235,0.2947,0.1755,0.0566,0.0721,0.1906,0.0588,0.0,0.0,0.0,0.0,0.0,0.0,0.0,0.0,0.0,0.0,0.0202,-2.4258,-2.4082,-2.3612,-2.2302,-2.177,-2.1176,-2.0232,-1.9047,-1.8272,-1.8272,-1.7537,-1.6897,-1.6728,-1.7838,-1.8632,0.0,-1.7928,-1.7557,0.0,-1.7573,-1.7466,-1.7383,-1.7322,-1.7171,-1.689,-1.5998,-1.5615,-1.5761,0.0,0.0,0.0,-1.4559,-1.4166,-1.3572,-1.3406,-1.3153,-1.2707,-1.1344,-1.0594,-1.0174,-0.8494,-0.7591,-0.7253,-0.6567,-0.63,-0.63,-0.63,-0.63,-0.63,-0.63,-0.63,-0.6416,-0.7099,-0.6796,-0.6346,-0.7135,-0.7847,-0.8588,-0.9348,-1.009,-1.0593,-1.0593,-1.0593,-1.0593,-1.0593,-1.0593,-1.0673,-1.0929,-1.0908,-1.0745,-1.045,-0.9316,-0.8247,-0.7577,-0.6487,0.0,0.0,0.0,0.0,0.0,-0.3114,-0.2195,0.0,-0.0267,0.0,0.0,0.0,0.0,0.0,0.0,0.0,0.0,0.5111,0.0,0.7807,0.6667,0.5926,0.559,0.3387,0.1743,0.0567,0.0193,0.0244,0.0589,0.0199,0.0,0.0,0.0,0.0,0.0,0.0,0.0,0.0101,0.1008,0.136,0.1561,-2.3748,-2.3275,-2.2662,-2.2078,-2.1212,-2.035,-1.9625,-1.8087,-1.699,-1.699,-1.6195,-1.5598,-1.5418,-1.6344,0.0,-1.6937,-1.6438,-1.6083,-1.6083,-1.6083,-1.6021,-1.594,-1.5634,-1.5377,-1.5038,-1.3878,0.0,-1.3439,-1.2893,-1.2739,-1.2905,-1.2905,-1.2893,-1.29,-1.29,-1.3006,-1.3154,-1.2208,-1.1581,-1.1055,-0.953,-0.8461,-0.7744,-0.7099,-0.6872,-0.6834,-0.6451,-0.6795,-0.7365,-0.6984,-0.7099,-0.7557,-0.8161,-0.7931,-0.752,-0.7954,-0.8599,-0.9238,-0.9609,-1.0196,-1.0727,-1.062,-1.0593,-1.0593,-1.0593,-1.0673,-1.0841,-1.1096,-1.139,-1.1394,-1.0741,-1.0033,-0.9272,-0.8418,-0.7465,-0.6919,-0.7075,0.0,0.0,0.0,0.0,0.0,0.0,-0.0275,0.0,0.0,0.0,0.0,0.0,0.0,0.0,0.3961,0.5646,0.0,0.7107,0.6101,0.5138,0.4218,0.2114,0.1015,0.073,0.0247,0.0298,0.0744,0.0201,0.0,0.0,0.0,0.0,0.0,0.0,0.0303,0.0857,0.1711,0.2314,0.2966,-2.3281,-2.2247,-2.148,0.0,-2.0863,0.0,-1.9268,-1.7296,-1.5784,-1.5784,-1.5578,-1.5391,-1.5364,-1.4856,-1.4466,-1.4489,0.0,0.0,0.0,-1.4088,-1.3919,-1.3517,-1.3266,-1.2698,-1.1816,-1.1084,-1.0578,-1.0351,-1.0249,-1.0201,-1.0201,-1.0201,-1.0681,-1.1552,-1.1552,-1.2111,-1.3008,-1.2678,-1.2018,-1.1141,-1.0738,-0.9513,-0.7897,-0.7821,-0.7859,-0.7783,-0.6834,-0.7706,-0.9145,-0.8237,-0.8542,-0.9301,-0.9372,-0.9372,-0.9293,-0.9227,-0.9768,-1.0301,-0.9934,-1.0432,-1.0955,-1.072,-1.0633,-1.062,-1.062,-1.0769,-1.0976,-1.1226,-1.1517,-1.1525,-1.1006,-1.0211,-0.9413,-0.8779,-0.7804,-0.7207,-0.7353,0.0,0.0,0.0,0.0,0.0,0.0,-0.0734,0.0,0.0,0.0,0.0,0.0,0.0,0.3983,0.4011,0.6403,0.7153,0.6029,0.5574,0.4179,0.1862,0.059,0.0644,0.1812,0.0555,0.0656,0.1812,0.0555,0.0,0.0,0.0,0.005,0.0151,0.0151,0.0958,0.2163,0.2264,0.3065,0.4316,0.0,0.0,-1.9716,-1.9101,-1.8511,-1.7816,-1.6842,-1.6197,-1.5784,-1.5784,-1.5578,-1.5311,-1.5135,-1.4743,-1.4429,-1.4208,-1.4128,-1.4088,-1.4088,-1.4088,-1.3662,-1.2632,-1.233,-1.1681,-1.0616,-1.0065,-0.981,-0.9856,-1.0099,-1.0201,-1.0201,-1.0201,-1.0188,-1.0179,-1.0179,-1.0623,-1.1318,-1.0496,-1.0436,-1.0764,-0.9155,-0.8689,-0.8846,-0.8084,-0.8275,-0.8917,-0.8694,-0.8884,-0.9258,-0.9031,-0.9107,-0.9448,-1.019,-0.9927,-0.9437,-1.0198,-1.0408,-1.0521,-1.1198,-1.1352,-1.1309,-1.1236,-1.1056,-1.0928,-1.0928,-1.037,-0.9943,-1.0208,-0.9865,-0.9595,-0.98,-0.9208,-0.87,-0.8713,-0.7945,-0.7329,-0.7412,-0.7312,0.0,0.0,-0.3838,-0.284,-0.067,-0.0192,0.0,0.0,0.0,0.0,0.0,0.3093,0.3983,0.4011,0.5598,0.6302,0.5979,0.3884,0.2041,0.0451,0.015,0.0151,0.0454,0.0151,0.0151,0.0454,0.0151,0.0,0.0,0.0,0.0605,0.1511,0.1511,0.2364,0.3667,0.4672,0.5275,0.5727,-1.9405,-1.9039,-1.8634,-1.8549,-1.8048,-1.7458,-1.6756,-1.615,-1.5784,-1.5784,-1.5464,-1.5137,-1.5028,-1.4576,-1.4262,-1.4102,-1.4088,-1.4088,-1.4088,-1.3597,-1.2984,-1.2328,-1.1537,-1.0663,-0.9629,-0.909,-0.8592,-0.8164,-0.8343,-0.8396,-0.8396,-0.8396,-0.8575,-0.8816,-0.8816,-0.9326,-1.0078,-0.9523,-0.9631,-1.0002,-0.8917,-0.8542,-0.8542,-0.8008,-0.8428,-0.9183,-0.8275,-0.9102,-1.0539,-0.9599,-0.9599,-1.0078,-1.064,-1.0115,-0.941,-0.9965,-1.0356,-1.0664,-1.1097,-1.142,-1.1563,-1.1296,-1.1109,-1.089,-1.0414,-1.0001,-0.9639,-0.9428,-0.9238,-0.9085,-0.8948,-0.8689,-0.8479,-0.8252,-0.7784,-0.7499,-0.7563,-0.7516,0.0,-0.3971,-0.3776,-0.2802,-0.0244,0.0,0.0,0.0,0.0,0.0,0.1937,0.2702,0.335,0.3959,0.5298,0.5425,0.4171,0.2114,0.0706,0.0,0.0,0.0,0.0,0.0,0.0,0.0,0.0,0.0,0.0,0.0,0.0807,0.2013,0.2013,0.3217,0.502,0.5727,0.6381,0.7033,-1.8718,-1.8133,-1.7731,-1.8764,-1.8087,-1.7412,-1.7412,-1.648,-1.573,-1.5534,-1.5042,-1.4642,-1.4456,-1.3902,-1.3561,-1.3561,-1.3561,-1.3646,-1.3822,-1.2687,-1.194,-1.1809,-1.0574,-0.9493,-0.8626,-0.8037,-0.7301,-0.63,-0.63,-0.63,-0.63,-0.63,-0.6756,-0.7591,-0.7591,-0.8122,-0.9069,-0.8917,-0.8922,-0.9069,-0.8917,-0.8428,-0.7783,-0.7783,-0.8428,-0.9069,-0.7365,-0.895,-1.1589,-0.9863,-0.9857,-1.0565,-1.0565,-0.989,-0.9069,-0.9069,-0.9669,-1.0327,-1.0264,-1.087,-1.1378,-1.0868,-1.0714,-1.0434,-0.9581,-0.9467,-0.9327,-0.8729,-0.8827,-0.8829,-0.816,-0.831,-0.8296,-0.7721,-0.7631,-0.7577,-0.7501,0.0,-0.6379,-0.3806,-0.3529,-0.262,-0.0252,0.0,0.0,0.0,0.02,0.0901,0.2211,0.2493,0.3016,0.3966,0.492,0.4221,0.1712,0.0555,0.0,0.0,0.0,0.0101,0.0303,0.0303,0.0404,0.0605,0.0605,0.0605,0.0605,0.0605,0.1411,0.2615,0.2615,0.4121,0.6282,0.6282,0.7033,0.7992,-1.6332,-1.6244,-1.6157,-1.6332,-1.6244,-1.6109,-1.6109,-1.592,-1.5391,-1.4316,-1.3763,-1.3075,-1.197,-1.1458,-1.1128,-1.1128,-1.1128,-1.1558,-1.2504,-1.1402,-1.0329,-0.9488,-0.8968,-0.8209,-0.7214,-0.6884,-0.6598,-0.63,-0.63,-0.63,-0.63,-0.63,-0.6377,-0.6528,-0.6528,-0.7099,-0.797,-0.7138,-0.7253,-0.7974,-0.7099,-0.7176,-0.7783,-0.7783,-0.8428,-0.9258,-0.8955,-0.9221,-0.9712,-0.941,-0.941,-0.9523,-0.9523,-0.8841,-0.805,-0.805,-0.8161,-0.8452,-0.9251,-0.9584,-0.9675,-0.9606,-0.9353,-0.9088,-0.8949,-0.8288,-0.7716,-0.7761,-0.7356,-0.7038,-0.7253,-0.7437,-0.7661,-0.7729,-0.7777,-0.7395,-0.6246,0.0,-0.5112,-0.2447,-0.2234,-0.1656,-0.0151,0.0,0.0,0.0,0.1057,0.2261,0.36,0.4764,0.4972,0.4016,0.3116,0.1862,0.0303,0.0101,0.0,0.0,0.0,0.0605,0.1711,0.1711,0.2314,0.3366,0.3366,0.3366,0.3366,0.3366,0.4169,0.5377,0.5377,0.6329,0.7686,0.7686,0.7839,0.8008,-1.5784,-1.5784,-1.5784,-1.5784,-1.5784,-1.5581,-1.4902,-1.48,-1.4316,-1.3006,-1.2453,-1.197,-1.1375,-1.0878,-1.0611,-1.0611,-1.0053,-0.9875,-1.0311,-0.9832,-0.9277,-0.882,-0.7933,-0.7222,-0.6685,-0.6546,-0.6443,-0.63,-0.63,-0.63,-0.63,-0.63,-0.63,-0.63,-0.63,-0.6567,-0.6945,-0.649,-0.6567,-0.6949,-0.649,-0.6567,-0.6984,-0.6984,-0.7629,-0.8428,-0.7897,-0.8389,-0.9221,-0.8694,-0.8504,-0.8504,-0.8504,-0.7821,-0.6984,-0.6984,-0.7365,-0.8008,-0.9031,-0.9296,-0.9266,-0.9065,-0.8913,-0.8651,-0.8102,-0.7711,-0.7391,-0.7071,-0.6836,-0.6803,-0.7045,-0.7336,-0.7326,-0.6804,-0.6795,0.0,0.0,-0.4806,-0.4115,-0.2137,-0.1953,-0.146,-0.0151,0.0,0.0,0.0,0.126,0.2564,0.3915,0.4568,0.462,0.4016,0.2013,0.0958,0.1058,0.1058,0.1461,0.2163,0.2163,0.2464,0.3065,0.3065,0.3416,0.4016,0.4016,0.4016,0.4016,0.4016,0.477,0.5979,0.5979,0.6833,0.7988,0.7988,0.7988,0.8012,-1.5439,-1.5581,-1.5784,-1.5784,-1.5784,-1.5384,-1.407,-1.3926,-1.3295,-1.1653,-1.1132,-1.0772,-1.0454,-1.0035,-0.9788,-0.9788,-0.8969,-0.8439,-0.8341,-0.8256,-0.8249,-0.8249,-0.7221,-0.6576,-0.6467,-0.6463,-0.6409,-0.63,-0.63,-0.63,-0.63,-0.63,-0.63,-0.63,-0.63,-0.63,-0.63,-0.63,-0.63,-0.63,-0.63,-0.63,-0.63,-0.63,-0.6795,-0.7365,-0.6567,-0.7292,-0.8504,-0.7706,-0.7442,-0.7442,-0.7442,-0.6907,-0.63,-0.63,-0.6834,-0.7629,-0.8389,-0.8618,-0.8538,-0.8296,-0.8213,-0.8041,-0.7268,-0.7236,-0.7207,-0.6701,-0.6793,-0.6991,-0.7169,-0.7188,-0.6879,-0.5979,0.0,0.0,0.0,-0.3516,-0.3015,-0.1711,-0.1511,-0.1109,-0.0101,0.0,0.0,0.0,0.1511,0.2914,0.3966,0.4568,0.4668,0.4016,0.141,0.0656,0.1963,0.2013,0.2665,0.4016,0.4016,0.4166,0.4468,0.4468,0.4618,0.4918,0.4918,0.4918,0.4918,0.4918,0.5522,0.6481,0.6481,0.7083,0.7988,0.7988,0.7988,0.8015,-1.4262,-1.4997,-1.5784,-1.5784,-1.5784,-1.5384,-1.407,-1.3926,-1.3006,-1.0485,-0.9854,-0.9203,-0.8016,-0.7545,-0.7356,-0.7356,-0.7272,-0.7221,-0.721,-0.6995,-0.684,-0.684,-0.6651,-0.6463,-0.632,-0.6317,-0.631,-0.63,-0.63,-0.63,-0.63,-0.63,-0.63,-0.63,-0.63,-0.63,-0.63,-0.63,-0.63,-0.63,-0.63,-0.63,-0.63,-0.63,-0.6338,-0.6412,-0.6338,-0.6412,-0.6528,-0.6451,-0.6412,-0.6412,-0.6412,-0.6377,-0.63,-0.63,-0.6338,-0.6416,-0.649,-0.6528,-0.6525,-0.6475,-0.6472,-0.6507,-0.6565,-0.6567,-0.662,-0.6834,-0.6974,-0.7169,-0.7512,-0.6679,-0.5933,-0.5999,0.0,0.0,-0.2314,-0.2163,-0.1662,-0.0303,-0.0151,-0.0101,0.0,0.0,0.0,0.0,0.2413,0.3915,0.4016,0.6373,0.6575,0.4066,0.141,0.0656,0.1963,0.2013,0.2665,0.4016,0.4016,0.467,0.5829,0.5829,0.6531,0.7686,0.7686,0.7686,0.7686,0.7686,0.7786,0.7839,0.7839,0.7889,0.7988,0.7988,0.7988,0.8029,-1.277,-1.306,-1.3397,-1.3397,-1.3397,-1.2908,-1.1561,-1.135,-1.0685,-0.8774,-0.8322,-0.7996,-0.755,-0.7268,-0.7095,-0.7095,-0.7095,-0.7058,-0.697,-0.6814,-0.662,-0.6474,-0.6412,-0.6354,-0.6303,-0.63,-0.63,-0.63,-0.63,-0.63,-0.63,-0.63,-0.63,-0.63,-0.63,-0.63,-0.63,-0.63,-0.63,-0.63,-0.63,-0.63,-0.63,-0.63,-0.63,-0.63,-0.63,-0.63,-0.63,-0.63,-0.63,-0.63,-0.63,-0.6361,-0.6429,-0.6429,-0.6368,-0.632,-0.6409,-0.6368,-0.63,-0.63,-0.6368,-0.6446,-0.6501,-0.662,-0.6814,-0.6974,-0.6503,-0.613,-0.6426,-0.5444,-0.4326,-0.3657,0.0,-0.2314,-0.0958,-0.0756,-0.0555,-0.005,0.0,0.0,0.0,0.0,0.0353,0.1159,0.2964,0.4368,0.5172,0.6229,0.5924,0.4066,0.2213,0.146,0.2013,0.2815,0.3917,0.5272,0.6074,0.6728,0.7235,0.7235,0.7537,0.7988,0.7988,0.7988,0.7988,0.7988,0.7988,0.7988,0.7988,0.7988,0.7988,0.7988,0.7988,0.8019,-1.1365,-1.1604,-1.1896,-1.1896,-1.1896,-1.1434,-1.0027,-0.981,-0.9275,-0.7806,-0.7465,-0.7436,-0.7438,-0.7261,-0.7115,-0.7207,-0.7125,-0.7055,-0.6957,-0.681,-0.6569,-0.6313,-0.63,-0.63,-0.63,-0.63,-0.63,-0.63,-0.63,-0.63,-0.63,-0.63,-0.63,-0.63,-0.63,-0.63,-0.63,-0.63,-0.63,-0.63,-0.63,-0.63,-0.63,-0.63,-0.63,-0.63,-0.63,-0.63,-0.6306,-0.6351,-0.6368,-0.6375,-0.6422,-0.6504,-0.6546,-0.6546,-0.6515,-0.646,-0.6559,-0.6515,-0.6439,-0.6439,-0.6511,-0.6569,-0.6661,-0.6502,-0.639,-0.6607,-0.569,-0.4969,-0.5151,-0.4123,-0.2973,-0.2159,-0.1662,-0.1058,-0.0151,0.0,0.0,0.0,0.0,0.0,0.0,0.0,0.0555,0.1913,0.3265,0.4568,0.5929,0.5625,0.497,0.4016,0.3115,0.2614,0.2614,0.3516,0.487,0.6631,0.7537,0.7988,0.7988,0.7988,0.7988,0.7988,0.7988,0.7988,0.7988,0.7988,0.7988,0.7988,0.7988,0.7988,0.7988,0.7988,0.7988,0.8012,-1.0243,-1.1023,-1.1853,-1.1853,-1.1853,-1.139,-0.9984,-0.9762,-0.9271,-0.7802,-0.7465,-0.7431,-0.7584,-0.728,-0.7204,-0.7402,-0.7227,-0.7095,-0.7095,-0.6865,-0.6569,-0.6317,-0.6303,-0.63,-0.63,-0.6303,-0.6303,-0.6303,-0.6303,-0.6303,-0.6303,-0.63,-0.63,-0.63,-0.63,-0.63,-0.63,-0.63,-0.63,-0.63,-0.63,-0.63,-0.63,-0.63,-0.63,-0.63,-0.63,-0.63,-0.6323,-0.6463,-0.6511,-0.6542,-0.6654,-0.6702,-0.6702,-0.6702,-0.6702,-0.6702,-0.6705,-0.6705,-0.6705,-0.6702,-0.6702,-0.678,-0.7031,-0.6071,-0.5195,-0.5501,-0.4626,-0.3764,-0.3764,-0.2781,-0.1963,-0.1963,-0.0857,0.0,0.0,0.0,0.0,0.0,0.0,0.0,0.0,0.0,0.0555,0.1913,0.3265,0.4568,0.5927,0.4718,0.4016,0.3966,0.4016,0.4016,0.4016,0.4016,0.537,0.7988,0.7988,0.7988,0.7988,0.7992,0.7992,0.7988,0.7992,0.7992,0.7988,0.7988,0.7988,0.7988,0.7988,0.7988,0.7988,0.7988,0.7988,0.8012,-0.8676,-0.892,-0.9164,-0.9164,-0.9164,-0.9011,-0.8456,-0.8339,-0.8074,-0.755,-0.7446,-0.7436,-0.7434,-0.7356,-0.7322,-0.7412,-0.7227,-0.7055,-0.6953,-0.6866,-0.6773,-0.6576,-0.6412,-0.63,-0.63,-0.6399,-0.645,-0.645,-0.645,-0.645,-0.6446,-0.6347,-0.63,-0.63,-0.63,-0.63,-0.63,-0.63,-0.63,-0.63,-0.63,-0.63,-0.63,-0.63,-0.63,-0.63,-0.63,-0.6364,-0.6457,-0.6497,-0.6546,-0.6658,-0.6814,-0.6787,-0.6722,-0.6827,-0.6861,-0.6839,-0.694,-0.7088,-0.7119,-0.6912,-0.6893,-0.6796,-0.6076,-0.5672,-0.5256,-0.448,-0.3312,-0.2408,-0.2538,-0.1455,-0.0605,-0.0605,-0.0252,0.0,0.0,0.0,0.0,0.0,0.0,0.0,0.0,0.0857,0.1962,0.3316,0.467,0.5172,0.4618,0.4216,0.3565,0.2614,0.3515,0.4016,0.4016,0.492,0.5827,0.6631,0.7537,0.7988,0.7992,0.815,0.8143,0.7995,0.8153,0.814,0.7988,0.7988,0.7988,0.7988,0.7988,0.7988,0.7988,0.7988,0.7988,0.7995,-0.7988,-0.7988,-0.7988,-0.7988,-0.7988,-0.7938,-0.7834,-0.774,-0.7631,-0.7482,-0.7461,-0.7485,-0.7539,-0.7495,-0.7485,-0.7539,-0.7353,-0.7197,-0.7109,-0.6993,-0.6846,-0.6797,-0.6563,-0.6474,-0.6474,-0.6519,-0.6563,-0.6563,-0.6563,-0.6563,-0.6559,-0.6515,-0.6439,-0.6385,-0.645,-0.6409,-0.6303,-0.6361,-0.6351,-0.63,-0.63,-0.63,-0.63,-0.63,-0.6334,-0.6375,-0.632,-0.6429,-0.6563,-0.6563,-0.6702,-0.6892,-0.694,-0.6906,-0.6774,-0.6396,-0.6304,-0.6198,-0.582,-0.5812,-0.5847,-0.5708,-0.6111,-0.6205,-0.5022,-0.4427,-0.3911,-0.325,-0.203,-0.1094,-0.1207,-0.0555,0.0,0.0,0.0,0.0,0.0,0.0,0.0,0.0,0.0,0.0202,0.0756,0.1511,0.2564,0.3915,0.427,0.4069,0.3265,0.2715,0.2314,0.2013,0.2765,0.378,0.492,0.5646,0.6279,0.6783,0.7637,0.8022,0.8133,0.8163,0.8163,0.8133,0.8167,0.8126,0.7988,0.7988,0.7988,0.7988,0.7988,0.7988,0.7988,0.7988,0.7988,0.7988,-0.7988,-0.7988,-0.7939,-0.7839,-0.7939,-0.7895,-0.7657,-0.7721,-0.7767,-0.7634,-0.7617,-0.7668,-0.7797,-0.7695,-0.7672,-0.7801,-0.7553,-0.7433,-0.7419,-0.7119,-0.692,-0.6906,-0.6814,-0.6739,-0.6739,-0.6725,-0.6722,-0.6722,-0.6722,-0.6722,-0.6719,-0.6709,-0.6627,-0.6538,-0.6637,-0.6552,-0.6347,-0.6477,-0.6457,-0.6337,-0.6337,-0.6337,-0.6337,-0.6337,-0.6419,-0.6474,-0.6267,-0.6358,-0.6552,-0.6441,-0.6579,-0.6802,-0.6802,-0.6767,-0.6576,-0.5557,-0.5225,-0.5023,-0.3929,-0.3621,-0.3641,-0.3658,-0.4446,-0.4979,-0.3903,-0.2698,-0.1826,-0.1806,-0.0857,0.0,0.0,0.0,0.0,0.0,0.0,0.0,0.0,0.0,0.0,0.0,0.0,0.0504,0.1711,0.1913,0.2514,0.3715,0.2715,0.1963,0.1812,0.0656,0.0555,0.1762,0.1915,0.3251,0.588,0.5999,0.6709,0.8012,0.7995,0.8123,0.832,0.8136,0.8157,0.8333,0.814,0.8022,0.8008,0.7995,0.7988,0.7988,0.7988,0.7988,0.7988,0.7988,0.7988,0.7988,-0.7988,-0.7988,-0.7686,-0.6631,-0.7285,-0.7627,-0.6545,-0.7198,-0.7801,-0.777,-0.7767,-0.7777,-0.7807,-0.7784,-0.7777,-0.7807,-0.7651,-0.7499,-0.7426,-0.7312,-0.7221,-0.7055,-0.7018,-0.7001,-0.7001,-0.6893,-0.6836,-0.6836,-0.6836,-0.6836,-0.6832,-0.6756,-0.6681,-0.6654,-0.6685,-0.6664,-0.6607,-0.6637,-0.6634,-0.6607,-0.6607,-0.6607,-0.6607,-0.6607,-0.6624,-0.6521,-0.5542,-0.529,-0.5336,-0.4552,-0.4297,-0.4342,-0.4342,-0.4344,-0.4311,-0.4049,-0.4053,-0.4107,-0.3833,-0.3828,-0.3676,-0.2646,-0.2591,-0.2734,-0.2448,-0.2151,-0.1654,-0.0655,-0.0202,0.0,0.0,0.0,0.0,0.0,0.0,0.0,0.0,0.0,0.0,0.0,0.0,0.0101,0.0404,0.136,0.2113,0.2414,0.2163,0.1561,0.0504,0.0151,0.0151,0.0404,0.143,0.2317,0.2945,0.511,0.6921,0.8218,0.8099,0.8123,0.8323,0.835,0.8404,0.8435,0.8401,0.8323,0.8211,0.8089,0.7988,0.7988,0.7988,0.7988,0.7988,0.7988,0.7988,0.7988,-0.7988,-0.7988,-0.7786,-0.7083,-0.7537,-0.7786,-0.7083,-0.7473,-0.787,-0.787,-0.787,-0.787,-0.787,-0.787,-0.787,-0.787,-0.7787,-0.7668,-0.7587,-0.7448,-0.7336,-0.7255,-0.7251,-0.7251,-0.7251,-0.7251,-0.7177,-0.6987,-0.6987,-0.6987,-0.6984,-0.6906,-0.6875,-0.6771,-0.6278,-0.632,-0.6664,-0.6137,-0.6212,-0.6702,-0.6702,-0.6702,-0.6619,-0.6073,-0.5898,-0.5774,-0.4497,-0.4162,-0.4216,-0.3765,-0.3604,-0.3597,-0.3585,-0.3623,-0.3471,-0.293,-0.2767,-0.2697,-0.2128,-0.2049,-0.1913,-0.1209,-0.1058,-0.1058,-0.1058,-0.1058,-0.0857,-0.0151,0.0,0.0,0.0,0.0,0.0,0.0,0.0,0.0,0.0,0.0,0.0,0.0,0.0,0.0257,0.0879,0.159,0.1996,0.2014,0.1396,0.0725,0.0052,0.0,0.0,0.0,0.0674,0.141,0.207,0.4242,0.6042,0.7469,0.7959,0.8292,0.8374,0.8448,0.8523,0.8587,0.8513,0.8401,0.8316,0.8184,0.8106,0.7988,0.7988,0.7988,0.7988,0.7988,0.7988,0.7988,-0.7988,-0.7988,-0.7939,-0.7686,-0.7839,-0.7939,-0.7686,-0.7839,-0.7988,-0.7988,-0.7988,-0.7988,-0.7988,-0.7988,-0.7988,-0.7988,-0.7874,-0.7838,-0.7814,-0.7584,-0.7438,-0.7456,-0.7456,-0.7456,-0.7456,-0.7536,-0.7461,-0.7136,-0.7136,-0.7122,-0.7095,-0.7122,-0.7058,-0.6887,-0.6118,-0.6054,-0.644,-0.5794,-0.5904,-0.6515,-0.6729,-0.6671,-0.635,-0.5378,-0.4924,-0.4683,-0.3367,-0.2837,-0.2819,-0.2926,-0.297,-0.2988,-0.2991,-0.2966,-0.2791,-0.1764,-0.1477,-0.1286,-0.0251,0.0,0.0,0.0,0.0,0.0,0.0,0.0,0.0,0.0,0.0,0.0,0.0,0.0,0.0,0.0,0.0,0.0,0.0,0.0,0.0,0.0,0.0,0.0419,0.154,0.1679,0.1675,0.1647,0.0639,0.0,0.0,0.0,0.0,0.0,0.0,0.0584,0.1802,0.3178,0.4466,0.5769,0.7152,0.8064,0.852,0.852,0.8495,0.8358,0.8209,0.8082,0.7978,0.7952,0.8011,0.8029,0.8029,0.7912,0.764,0.7712,0.7875,0.8032,-0.7988,-0.7988,-0.7637,-0.6481,-0.7235,-0.7587,-0.6431,-0.7235,-0.7988,-0.7988,-0.7988,-0.7988,-0.7988,-0.7988,-0.7988,-0.7988,-0.7971,-0.7901,-0.7821,-0.7773,-0.7695,-0.7573,-0.7567,-0.7567,-0.7567,-0.759,-0.7516,-0.7339,-0.7339,-0.7272,-0.7098,-0.7278,-0.7258,-0.7082,-0.7227,-0.6651,-0.565,-0.679,-0.663,-0.5687,-0.6824,-0.6614,-0.5579,-0.5401,-0.47,-0.3643,-0.2396,-0.1305,-0.046,-0.0471,-0.048,-0.0487,-0.0488,-0.0494,-0.0451,-0.0302,-0.0252,-0.0201,-0.005,0.0,0.0,0.0,0.0,0.0,0.0,0.0,0.0,0.0,0.0,0.0,0.0,0.0,0.0,0.0,0.0,0.0,0.0,0.0,0.0,0.0,0.0,0.0053,0.0267,0.0266,0.0266,0.0267,0.0107,0.0,0.0,0.0,0.0,0.0,0.0,0.0109,0.0274,0.1767,0.2538,0.2618,0.4247,0.6327,0.8679,0.8679,0.8049,0.6951,0.6831,0.677,0.6749,0.6643,0.7214,0.8238,0.8238,0.7443,0.6292,0.6489,0.725,0.8255,-0.7988,-0.7988,-0.7789,-0.7235,-0.7587,-0.7789,-0.7185,-0.7637,-0.7988,-0.7988,-0.7988,-0.7988,-0.7988,-0.7988,-0.7988,-0.7988,-0.7335,-0.6857,-0.6799,-0.6041,-0.5545,-0.5502,-0.5499,-0.5499,-0.5499,-0.5555,-0.5533,-0.5379,-0.607,-0.6337,-0.6233,-0.5593,-0.5634,-0.619,-0.4942,-0.477,-0.5479,-0.4682,-0.4393,-0.4449,-0.5055,-0.4903,-0.4316,-0.3638,-0.307,-0.2417,-0.1225,-0.0462,0.0,0.0,0.0,0.0,0.0,0.0,0.0,0.0,0.0,0.0,0.0,0.0,0.0,0.0,0.0,0.0,0.0,0.0,0.0,0.0,0.0,0.0,0.0,0.0,0.0,0.0,0.0,0.0,0.0,0.0,0.0,0.0,0.0,0.0,0.0,0.0,0.0,0.0,0.0,0.0,0.0,0.0,0.0,0.0,0.0,0.0,0.0,0.1449,0.2172,0.2157,0.3731,0.5094,0.6204,0.6322,0.6045,0.5472,0.5429,0.5328,0.5222,0.5128,0.5963,0.718,0.718,0.7248,0.7404,0.7389,0.7846,0.8397]},{"header":{"parameterUnit":"m.s-1","parameterCategory":1,"la1":30.6,"la2":28.766,"lo1":-90.7593,"lo2":-88.6598,"dy":0.0162,"dx":0.0183,"nx":116,"ny":114,"refTime":"2023-09-19T18:00:00:Z","depth":0,"parameterNumber":3,"parameterNumberName":"V-component_of_WINDS"},"data":[0.0,0.0,0.0,0.0,0.0,0.0,0.0,0.0,0.0,0.0,0.0,0.0,0.0,0.0,0.0,0.0,0.0,0.0,0.0,0.0,0.0,0.0,0.0,0.0,0.0,0.0,0.0,0.0,0.0,0.0,0.0,0.0,0.0,0.0,0.0,0.0,0.0,0.0,0.0,0.0,0.0,0.0,0.0,0.0,0.0,0.0,0.0,0.0,0.0,0.0,0.0,0.0,0.0,0.0,0.0,0.0,0.0,0.0,0.0,0.0,0.0,0.0,0.0,0.0,0.0,0.0,0.0,0.0,0.0,0.0,0.0,0.0,0.0,0.0,0.0,0.0,0.0,0.0,0.0,0.0,0.0,0.0,0.0,0.0,0.0,0.0,0.0,0.0,0.0,0.0,0.0,0.0,0.0,0.0,0.0,0.0,0.0,0.0,0.0,0.0,0.0,0.0,0.0,0.0,0.0,0.0,0.0,0.0,0.0,0.0,0.0,0.0,0.0,0.0,0.0,0.0,0.0,0.0,0.0,0.0,0.0,0.0,0.0,0.0,0.0,0.0,0.0,0.0,0.0,0.0,0.0,0.0,0.0,0.0,0.0,0.0,0.0,0.0,0.0,0.0,0.0,0.0,0.0,0.0,0.0,0.0,0.0,0.0,0.0,0.0,0.0,0.0,0.0,0.0,0.0,0.0,0.0,0.0,0.0,0.0,0.0,0.0,0.0,0.0,0.0,0.0,0.0,0.0,0.0,0.0,0.0,0.0,0.0,0.0,0.0,0.0,0.0,0.0,0.0,0.0,0.0,0.0,0.0,0.0,0.0,0.0,0.0,0.0,0.0,0.0,0.0,0.0,0.0,0.0,0.0,0.0,0.0,0.0,0.0,0.0,0.0,0.0,0.0,0.0,0.0,0.0,0.0,0.0,0.0,0.0,0.0,0.0,0.0,0.0,0.0,0.0,0.0,0.0,0.0,0.0,0.0,0.0,0.0,0.0,0.0,0.0,0.0,0.0,0.0,0.0,0.0,0.0,0.0,0.0,0.0,0.0,0.0,0.0,0.0,0.0,0.0,0.0,0.0,0.0,0.0,0.0,0.0,0.0,0.0,0.0,0.0,0.0,0.0,0.0,0.0,0.0,0.0,0.0,0.0,0.0,0.0,0.0,0.0,0.0,0.0,0.0,0.0,0.0,0.0,0.0,0.0,0.0,0.0,0.0,0.0,0.0,0.0,0.0,0.0,0.0,0.0,0.0,0.0,0.0,0.0,0.0,0.0,0.0,0.0,0.0,0.0,0.0,0.0,0.0,0.0,0.0,0.0,0.0,0.0,0.0,0.0,0.0,0.0,0.0,0.0,0.0,0.0,0.0,0.0,0.0,0.0,0.0,0.0,0.0,0.0,0.0,0.0,0.0,0.0,0.0,0.0,0.0,0.0,0.0,0.0,0.0,0.0,0.0,0.0,0.0,0.0,0.0,0.0,0.0,0.0,0.0,0.0,0.0,0.0,0.0,0.0,0.0,0.0,0.0,0.0,0.0,0.0,0.0,0.0,0.0,0.0,0.0,0.0,0.0,0.0,0.0,0.0,0.0,0.0,0.0,0.0,0.0,0.0,0.0,0.0,0.0,0.0,0.0,0.0,0.0,0.0,0.0,0.0,0.0,0.0,0.0,0.0,0.0,0.0,0.0,0.0,0.0,0.0,0.0,0.0,0.0,0.0,0.0,0.0,0.0,0.0,0.0,0.0,0.0,0.0,0.0,0.0,0.0,0.0,0.0,0.0,0.0,0.0,0.0,0.0,0.0,0.0,0.0,0.0,0.0,0.0,0.0,0.0,0.0,0.0,0.0,0.0,0.0,0.0,0.0,0.0,0.0,0.0,0.0,0.0,0.0,0.0,0.0,0.0,0.0,0.0,0.0,0.0,0.0,0.0,0.0,0.0,0.0,0.0,0.0,0.0,0.0,0.0,0.0,0.0,0.0,0.0,0.0,0.0,0.0,0.0,0.0,0.0,0.0,0.0,0.0,0.0,0.0,0.0,0.0,0.0,0.0,0.0,0.0,0.0,0.0,0.0,0.0,0.0,0.0,0.0,0.0,0.0,0.0,0.0,0.0,0.0,0.0,0.0,0.0,0.0,0.0,0.0,0.0,0.0,0.0,0.0,0.0,0.0,0.0,0.0,0.0,0.0,0.0,0.0,0.0,0.0,0.0,0.0,0.0,0.0,0.0,0.0,0.0,0.0,0.0,0.0,0.0,0.0,0.0,0.0,0.0,0.0,0.0,0.0,0.0,0.0,0.0,0.0,0.0,0.0,0.0,0.0,0.0,0.0,0.0,0.0,0.0,0.0,0.0,0.0,0.0,0.0,0.0,0.0,0.0,0.0,0.0,0.0,0.0,0.0,0.0,0.0,0.0,0.0,0.0,0.0,0.0,0.0,0.0,0.0,0.0,0.0,0.0,0.0,0.0,0.0,0.0,0.0,0.0,0.0,0.0,0.0,0.0,0.0,0.0,0.0,0.0,0.0,0.0,0.0,0.0,0.0,0.0,0.0,0.0,0.0,0.0,0.0,0.0,0.0,0.0,0.0,0.0,0.0,0.0,0.0,0.0,0.0,0.0,0.0,0.0,0.0,0.0,0.0,0.0,0.0,0.0,0.0,0.0,0.0,0.0,0.0,0.0,0.0,0.0,0.0,0.0,0.0,0.0,0.0,0.0,0.0,0.0,0.0,0.0,0.0,0.0,0.0,0.0,0.0,0.0,0.0,0.0,0.0,0.0,0.0,0.0,0.0,0.0,0.0,0.0,0.0,0.0,0.0,0.0,0.0,0.0,0.0,0.0,0.0,0.0,0.0,0.0,0.0,0.0,0.0,0.0,0.0,0.0,0.0,0.0,0.0,0.0,0.0,0.0,0.0,0.0,0.0,0.0,0.0,0.0,0.0,0.0,0.0,0.0,0.0,0.0,0.0,0.0,0.0,0.0,0.0,0.0,0.0,0.0,0.0,0.0,0.0,0.0,0.0,0.0,0.0,0.0,0.0,0.0,0.0,0.0,0.0,0.0,0.0,0.0,0.0,0.0,0.0,0.0,0.0,0.0,0.0,0.0,0.0,0.0,0.0,0.0,0.0,0.0,0.0,0.0,0.0,0.0,0.0,0.0,0.0,0.0,0.0,0.0,0.0,0.0,0.0,0.0,0.0,0.0,0.0,0.0,0.0,0.0,0.0,0.0,0.0,0.0,0.0,0.0,0.0,0.0,0.0,0.0,0.0,0.0,0.0,0.0,0.0,0.0,0.0,0.0,0.0,0.0,0.0,0.0,0.0,0.0,0.0,0.0,0.0,0.0,0.0,0.0,0.0,0.0,0.0,0.0,0.0,0.0,0.0,0.0,0.0,0.0,0.0,0.0,0.0,0.0,0.0,0.0,0.0,0.0,0.0,0.0,0.0,0.0,0.0,0.0,0.0,0.0,0.0,0.0,0.0,0.0,0.0,0.0,0.0,0.0,0.0,0.0,0.0,0.0,0.0,0.0,0.0,0.0,0.0,0.0,0.0,0.0,0.0,0.0,0.0,0.0,0.0,0.0,0.0,0.0,0.0,0.0,0.0,0.0,0.0,0.0,0.0,0.0,0.0,0.0,0.0,0.0,0.0,0.0,0.0,0.0,0.0,0.0,0.0,0.0,0.0,0.0,0.0,0.0,0.0,0.0,0.0,0.0,0.0,0.0,0.0,0.0,0.0,0.0,0.0,0.0,0.0,0.0,0.0,0.0,0.0,0.0,0.0,0.0,0.0,0.0,0.0,0.0,0.0,0.0,0.0,0.0,0.0,0.0,0.0,0.0,0.0,0.0,0.0,0.0,0.0,0.0,0.0,0.0,0.0,0.0,0.0,0.0,0.0,0.0,0.0,0.0,0.0,0.0,0.0,0.0,0.0,0.0,0.0,0.0,0.0,0.0,0.0,0.0,0.0,0.0,0.0,0.0,0.0,0.0,0.0,0.0,0.0,0.0,0.0,0.0,0.0,0.0,0.0,0.0,0.0,0.0,0.0,0.0,0.0,0.0,0.0,0.0,0.0,0.0,0.0,0.0,0.0,0.0,0.0,0.0,0.0,0.0,0.0,0.0,0.0,0.0,0.0,0.0,0.0,0.0,0.0,0.0,0.0,0.0,0.0,0.0,0.0,0.0,0.0,0.0,0.0,0.0,0.0,0.0,0.0,0.0,0.0,0.0,0.0,0.0,0.0,0.0,0.0,0.0,0.0,0.0,0.0,0.0,0.0,0.0,0.0,0.0,0.0,0.0,0.0,0.0,0.0,0.0,0.0,0.0,0.0,0.0,0.0,0.0,0.0,0.0,0.0,0.0,0.0,0.0,0.0,0.0,0.0,0.0,0.0,0.0,0.0,0.0,0.0,0.0,0.0,0.0,0.0,0.0,0.0,0.0,0.0,0.0,0.0,0.0,0.0,0.0,0.0,0.0,0.0,0.0,0.0,0.0,0.0,0.0,0.0,0.0,0.0,0.0,0.0,0.0,0.0,0.0,0.0,0.0,0.0,0.0,0.0,0.0,0.0,0.0,0.0,0.0,0.0,0.0,0.0,0.0,0.0,0.0,0.0,0.0,0.0,0.0,0.0,0.0,0.0,0.0,0.0,0.0,0.0,0.0,0.0,0.0,0.0,0.0,0.0,0.0,0.0,0.0,0.0,0.0,0.0,0.0,0.0,0.0,0.0,0.0,0.0,0.0,0.0,0.0,0.0,0.0,0.0,0.0,0.0,0.0,0.0,0.0,0.0,0.0,0.0,0.0,0.0,0.0,0.0,0.0,0.0,0.0,0.0,0.0,0.0,0.0,0.0,0.0,0.0,0.0,0.0,0.0,0.0,0.0,0.0,0.0,0.0,0.0,0.0,0.0,0.0,0.0,0.0,0.0,0.0,0.0,0.0,0.0,0.0,0.0,0.0,0.0,0.0,0.0,0.0,0.0,0.0,0.0,0.0,0.0,0.0,0.0,0.0,0.0,0.0,0.0,0.0,0.0,0.0,0.0,0.0,0.0,0.0,0.0,0.0,0.0,0.0,0.0,0.0,0.0,0.0,0.0,0.0,0.0,0.0,0.0,0.0,0.0,0.0,0.0,0.0,0.0,0.0,0.0,0.0,0.0,0.0,0.0,0.0,0.0,0.0,0.0,0.0,0.0,0.0,0.0,0.0,0.0,0.0,0.0,0.0,0.0,0.0,0.0,0.0,0.0,0.0,0.0,0.0,0.0,0.0,0.0,0.0,0.0,0.0,0.0,0.0,0.0,0.0,0.0,0.0,0.0,0.0,0.0,0.0,0.0,0.0,0.0,0.0,0.0,0.0,0.0,0.0,0.0,0.0,0.0,0.0,0.0,0.0,0.0,0.0,0.0,0.0,0.0,0.0,0.0,0.0,0.0,0.0,0.0,0.0,0.0,0.0,0.0,0.0,0.0,0.0,0.0,0.0,0.0,0.0,0.0,0.0,0.0,0.0,0.0,0.0,0.0,0.0,0.0,0.0,0.0,0.0,0.0,0.0,0.0,0.0,0.0,0.0,0.0,0.0,0.0,0.0,0.0,0.0,0.0,0.0,0.0,0.0,0.0,0.0,0.0,0.0,0.0,0.0,0.0,0.0,0.0,0.0,0.0,0.0,0.0,0.0,0.0,0.0,0.0,0.0,0.0,0.0,0.0,0.0,0.0,0.0,0.0,0.0,0.0,0.0,0.0,0.0,0.0,0.0,0.0,0.0,0.0,0.0,0.0,0.0,0.0,0.0,0.0,0.0,0.0,0.0,0.0,0.0,0.0,0.0,0.0,0.0,0.0,0.0,0.0,0.0,0.0,0.0,0.0,0.0,0.0,0.0,0.0,0.0,0.0,0.0,0.0,0.0,0.0,0.0,0.0,0.0,0.0,0.0,0.0,0.0,0.0,0.0,0.0,0.0,0.0,0.0,0.0,0.0,0.0,0.0,0.0,0.0,0.0,0.0,0.0,0.0,0.0,0.0,0.0,0.0,0.0,0.0,0.0,0.0,0.0,0.0,0.0,0.0,0.0,0.0,0.0,0.0,0.0,0.0,0.0,0.0,0.0,0.0,0.0,1.1776,0.0,0.0,0.0,0.0,0.0,0.0,0.0,0.0,0.0,0.0,0.0,0.0,0.0,0.0,0.0,0.0,0.0,0.0,0.0,0.0,0.0,0.0,0.0,0.0,0.0,0.0,0.0,0.0,0.0,0.0,0.0,0.0,0.0,0.0,0.0,0.0,0.0,0.0,0.0,0.0,0.0,0.0,0.0,0.0,0.0,0.0,0.0,0.0,0.0,0.0,0.0,0.0,0.0,0.0,0.0,0.0,0.0,0.0,0.0,0.0,0.0,0.0,0.0,0.0,0.0,0.0,0.0,0.0,0.0,0.0,0.0,0.0,0.0,0.0,0.0,0.0,0.0,0.0,0.0,0.0,0.0,0.0,0.0,0.0,0.0,0.0,0.0,0.0,0.0,0.0,0.0,0.0,0.0,0.0,0.0,0.0,0.0,0.0,0.0,0.0,0.0,0.0,0.0,0.0,0.0,0.0,0.0,0.0,0.0,0.0,0.0,0.0,0.0,0.0,0.0,0.0,1.3182,0.0,0.0,0.0,0.0,0.0,0.0,0.0,0.0,0.0,0.0,0.0,0.0,0.0,0.0,0.0,0.0,0.0,0.0,0.0,0.0,0.0,0.0,0.0,0.0,0.0,0.0,0.0,0.0,0.0,0.0,0.0,0.0,0.0,0.0,0.0,0.0,0.0,0.0,0.0,0.0,0.0,0.0,0.0,0.0,0.0,0.0,0.0,0.0,0.0,0.0,0.0,0.0,0.0,0.0,0.0,0.0,0.0,0.0,0.0,0.0,0.0,0.0,0.0,0.0,0.0,0.0,0.0,0.0,0.0,0.0,0.0,0.0,0.0,0.0,0.0,0.0,0.0,0.0,0.0,0.0,0.0,0.0,0.0,0.0,0.0,0.0,0.0,0.0,0.0,0.0,0.0,0.0,0.0,0.0,0.0,0.0,0.0,0.0,0.0,0.0,0.0,0.0,0.0,0.0,0.0,0.0,0.0,0.0,2.5841,2.5111,2.3731,2.2574,2.2303,2.263,1.9709,1.7065,1.4833,1.5062,0.0,0.0,0.0,0.0,0.0,0.0,0.0,0.0,0.0,0.0,0.0,0.0,0.0,0.0,0.0,0.0,0.0,0.0,0.0,0.0,0.0,0.0,0.0,0.0,0.0,0.0,0.0,0.0,0.0,0.0,0.0,0.0,0.0,0.0,0.0,0.0,0.0,0.0,1.6651,1.7891,1.6873,1.3891,1.0737,0.0,0.0,0.0,0.0,0.0,0.0,0.0,0.0,0.0,0.0,0.0,0.0,0.0,0.0,0.0,0.0,0.0,0.0,0.0,0.0,0.0,0.0,0.0,0.0,0.0,0.0,0.0,0.0,0.0,0.0,0.0,0.0,0.0,0.0,0.0,0.0,0.0,0.0,0.0,0.0,0.0,0.0,0.0,2.5206,2.3043,0.0,0.0,0.0,0.0,0.0,0.0,0.0,0.0,0.0,0.0,0.0,0.0,0.0,2.5694,2.665,2.7208,2.8022,2.8992,2.9011,2.8682,2.8049,2.7185,2.6318,2.5541,2.4642,0.0,2.0729,1.7731,0.0,0.0,0.0,0.0,0.0,0.0,0.0,0.0,0.0,0.0,0.0,0.0,0.0,0.0,0.0,0.0,0.0,0.0,0.0,0.0,0.0,0.0,0.0,0.0,0.0,0.0,0.0,0.0,0.0,0.0,0.0,0.0,0.0,0.0,0.0,0.0,1.986,2.0116,1.9448,1.9497,1.874,1.7267,1.5786,1.26,0.8188,0.6495,0.0,0.0,0.0,0.0,0.0,0.0,0.0,0.0,0.0,0.0,0.0,0.0,0.0,0.0,0.0,0.0,0.0,0.0,0.0,0.0,0.0,0.0,0.0,0.0,0.0,0.0,0.0,0.0,0.0,0.0,0.0,0.0,0.0,0.0,0.0,0.0,0.0,0.0,0.0,2.39,2.496,2.3383,2.2319,2.1186,0.0,0.0,0.0,0.0,0.0,0.0,0.0,0.0,0.0,2.0996,2.2705,2.5156,2.8252,2.8294,2.8475,2.8865,2.9376,2.9352,2.8906,2.8672,2.8081,2.7321,2.7141,2.6358,2.499,2.1383,2.0122,2.0165,0.0,0.0,0.0,0.0,1.7537,1.7918,0.0,0.0,0.0,0.0,0.0,0.0,0.0,0.0,0.0,0.0,0.0,0.0,0.0,0.0,0.0,1.7127,0.0,0.0,0.0,0.0,0.0,0.0,0.0,0.0,0.0,0.0,0.0,0.0,2.2061,2.2067,2.1502,2.0541,1.9871,1.9469,1.9082,1.6301,1.1721,0.9798,0.7947,0.0,0.0,0.0,0.0,0.0,0.0,0.0,0.0,0.0,0.0,0.0,0.0,0.0,0.0,0.0,0.0,0.0,0.0,0.0,0.0,0.0,0.0,0.0,0.0,0.0,0.0,0.0,0.0,0.0,0.0,0.0,0.0,0.0,0.0,0.0,0.0,0.0,0.0,2.3867,2.4717,2.375,2.3673,2.3167,0.0,0.0,0.0,0.0,0.0,0.0,1.9585,2.4356,2.6855,2.6526,2.5126,2.5714,2.8581,2.8645,2.8596,2.8528,2.9023,2.9065,2.876,2.879,2.8506,2.7969,2.7969,2.7793,2.7276,2.4154,2.2664,2.2281,2.0945,2.0542,2.0729,2.087,2.095,2.1093,0.0,0.0,0.0,0.0,0.0,0.0,0.0,0.0,0.0,0.0,0.0,0.0,0.0,0.0,2.1391,1.9859,1.8065,1.6548,0.0,0.0,0.0,0.0,0.0,0.0,0.0,0.0,0.0,2.3374,2.3261,2.2759,2.185,2.0988,2.0673,2.0838,1.9392,1.7519,1.5402,1.3742,1.1809,0.9691,0.0,0.0,0.0,0.0,0.0,0.0,0.0,0.0,0.0,0.0,0.0,0.0,0.0,0.0,0.0,0.0,0.0,0.0,0.0,0.0,0.0,0.0,0.0,0.0,0.0,0.0,0.0,0.0,0.0,0.0,0.0,0.0,0.0,0.0,0.0,0.0,0.0,0.0,0.0,2.5174,2.5778,0.0,0.0,0.0,0.0,2.1573,2.09,2.1172,2.2808,2.7826,3.0622,3.0605,3.0512,3.016,2.9531,2.9531,2.939,2.9174,2.8637,2.833,2.831,2.7963,2.75,2.708,2.708,2.707,2.691,2.5122,2.4144,2.361,2.157,2.1462,2.2474,2.2474,2.2954,2.3609,0.0,0.0,0.0,0.0,0.0,0.0,0.0,0.0,0.0,0.0,0.0,0.0,0.0,2.3846,2.4296,2.3031,2.1877,2.0572,1.9088,0.0,0.0,0.0,0.0,0.0,0.0,0.0,2.4834,2.4652,2.4044,2.3377,2.2582,2.078,2.0019,2.0091,1.9808,1.9276,1.8505,1.6843,1.4569,1.2044,1.1046,0.799,0.0,0.0,0.0,0.0,0.0,0.0,0.0,0.0,0.0,0.0,0.0,0.0,0.0,0.0,0.0,0.0,0.0,0.0,0.0,0.0,0.0,0.0,0.0,0.0,0.0,0.0,0.0,0.0,0.0,0.0,0.0,0.0,0.0,0.0,0.0,0.0,0.0,2.8578,2.9147,0.0,2.7016,2.4375,2.3427,2.5028,2.646,2.7559,2.8096,2.9874,3.0661,3.0077,2.9523,2.9458,2.9862,2.9137,2.8713,2.8619,2.8009,2.7809,2.7881,2.7441,2.7168,2.7002,2.6728,2.6611,2.6522,2.5618,2.5364,2.5422,2.4335,2.4048,2.4202,2.4202,2.4179,2.415,0.0,0.0,0.0,0.0,0.0,0.0,0.0,0.0,0.0,0.0,0.0,2.4279,2.4861,2.6021,2.6308,2.5207,2.4123,2.2774,2.1005,0.0,0.0,0.0,0.0,0.0,0.0,2.5562,2.6461,2.5865,2.4883,2.3833,2.2758,2.0814,1.9946,2.0027,1.9965,2.0375,2.1108,2.0062,1.7716,1.4587,1.3422,1.1114,0.8006,0.0,0.0,0.0,0.0,0.0,0.0,0.0,0.0,0.0,0.0,0.0,0.0,0.0,0.0,0.0,0.0,0.0,0.0,0.0,0.0,0.0,0.0,0.0,0.0,0.0,0.0,0.0,0.0,0.0,0.0,0.0,0.0,0.0,0.0,0.0,2.9564,3.0751,3.1861,3.1812,2.9788,2.7551,2.6553,2.736,2.9021,3.0265,3.0851,3.1498,3.1552,3.096,2.9925,2.9649,3.0112,2.8898,2.8143,2.7854,2.7437,2.7479,2.7852,2.7352,2.7261,2.7521,2.7023,2.6829,2.6809,2.6502,2.6564,2.6771,2.5846,2.5472,2.5395,2.4984,2.457,2.4186,0.0,0.0,0.0,0.0,0.0,0.0,0.0,0.0,0.0,0.0,2.4296,2.5955,2.6817,2.7554,2.748,2.6204,2.4728,2.2961,2.089,2.0248,0.0,0.0,0.0,0.0,2.5954,2.6815,2.7169,2.6996,2.5797,2.4228,2.2394,2.1099,2.0665,2.0859,1.9897,2.0797,2.3058,2.3231,2.1157,1.7475,1.4122,1.3353,1.3635,0.0,0.0,0.0,0.0,0.0,0.0,0.0,0.0,0.0,0.0,0.0,0.0,0.0,0.0,0.0,0.0,0.0,0.0,0.0,0.0,0.0,0.0,0.0,0.0,0.0,0.0,0.0,0.0,0.0,0.0,0.0,0.0,0.0,2.7126,2.8801,3.0658,3.1516,3.3855,3.4404,3.1923,3.2166,3.1391,2.8715,2.8535,2.924,3.0979,3.2716,3.3579,3.3523,3.2298,3.123,3.0307,2.9029,2.7947,2.7114,2.7043,2.7442,2.8219,2.7625,2.7797,2.8533,2.7932,2.7677,2.7688,2.7677,2.7709,2.7535,2.5859,2.5557,2.6024,2.489,2.4222,2.3969,0.0,0.0,0.0,0.0,0.0,0.0,0.0,0.0,0.0,0.0,2.4626,2.6425,2.7054,2.7657,2.7455,2.6066,2.5072,2.3746,2.1903,0.0,0.0,0.0,0.0,0.0,2.7413,2.8292,2.812,2.6941,2.572,2.4343,2.2804,2.1541,2.0975,2.1042,2.0768,2.1019,2.1643,2.1364,2.1454,2.159,1.9294,1.7239,1.5533,0.0,0.0,0.0,0.0,0.0,0.0,0.0,0.0,0.0,0.0,0.0,0.0,0.0,0.0,0.0,0.0,0.0,0.0,0.0,0.0,0.0,0.0,0.0,0.0,0.0,0.0,0.0,0.0,0.0,0.0,0.0,0.0,3.2795,3.196,3.415,3.6039,3.6567,3.6988,3.729,3.7389,3.6807,3.5624,3.3748,3.3104,3.3243,3.4264,3.4249,3.3453,3.1795,3.261,3.2047,2.9733,3.0312,3.0313,2.9661,2.846,2.8246,2.8891,2.7497,2.7294,2.791,2.7474,2.742,2.7666,2.7407,2.7731,2.8421,2.7393,2.7116,2.7184,2.6574,2.6109,2.5783,0.0,0.0,0.0,0.0,0.0,0.0,0.0,0.0,0.0,0.0,2.3824,2.5512,2.6431,2.6821,2.6615,2.553,2.4885,2.3955,2.25,0.0,0.0,0.0,0.0,2.8319,2.8544,2.8418,2.7734,2.6532,2.5222,2.3908,2.2571,2.1821,2.1384,2.124,2.124,2.1375,2.162,2.1629,2.2253,2.3125,2.2468,2.1094,1.96,2.0955,2.0358,1.9013,2.0185,2.0362,2.0028,1.9972,0.0,0.0,0.0,0.0,0.0,0.0,0.0,0.0,0.0,0.0,0.0,0.0,0.0,0.0,0.0,0.0,0.0,0.0,0.0,0.0,0.0,0.0,0.0,0.0,3.31,3.4532,3.5276,3.6912,3.8092,3.8327,3.7755,3.758,3.8241,3.8116,3.7443,3.6023,3.5532,3.549,3.5899,3.5514,3.4653,3.3288,3.3515,3.2723,3.092,3.0893,3.0644,3.0153,2.8925,2.8822,2.9645,2.8221,2.8057,0.0,2.8416,2.8357,2.8562,2.831,2.8612,0.0,0.0,0.0,0.0,0.0,2.6998,2.7168,0.0,0.0,0.0,0.0,0.0,0.0,0.0,0.0,0.0,0.0,0.0,2.3829,2.5245,2.5456,2.5293,2.4746,2.4413,2.39,0.0,0.0,0.0,2.6477,2.7604,2.8506,2.9242,2.7735,2.6623,2.5944,2.4606,2.3275,2.1989,2.2086,2.1891,2.1482,2.1563,2.189,2.2443,2.3056,2.3225,2.3136,2.3983,2.4224,2.4218,2.5192,2.4978,2.4318,2.5674,2.5129,2.3753,2.3673,0.0,0.0,0.0,0.0,0.0,0.0,0.0,0.0,0.0,0.0,0.0,0.0,0.0,0.0,0.0,0.0,0.0,0.0,0.0,0.0,0.0,0.0,0.0,0.0,3.3995,3.5344,3.7111,3.7521,3.7744,3.7975,3.7058,3.6444,3.6517,3.729,3.7472,3.6555,3.6418,3.6413,3.6413,0.0,0.0,0.0,0.0,3.3386,3.2767,3.1251,3.018,2.9727,2.9105,2.9364,3.0377,2.9308,2.9411,3.0495,3.0005,2.9792,2.9792,2.9792,2.9792,2.9635,2.8046,2.7765,2.8176,2.7209,2.7418,2.8211,0.0,0.0,0.0,0.0,0.0,0.0,0.0,0.0,0.0,2.0526,2.1803,2.2948,2.41,2.4245,2.4207,2.4087,2.4251,2.4656,0.0,0.0,2.7724,2.7828,2.8422,2.8829,2.8968,2.7466,2.6325,2.5591,2.467,2.3471,2.201,2.2667,2.2576,2.1908,2.2566,2.291,2.3006,2.2842,2.3271,2.4098,2.3964,2.4002,2.4294,2.5959,2.648,2.6549,2.8417,2.9136,2.9082,2.8444,2.8389,2.8231,2.6171,0.0,0.0,0.0,0.0,0.0,0.0,0.0,0.0,0.0,0.0,0.0,0.0,0.0,0.0,0.0,0.0,0.0,0.0,0.0,0.0,3.2884,3.3985,3.5156,3.6422,3.5889,3.6003,3.7774,3.7045,3.6615,3.7221,3.6927,3.6807,3.7041,3.6651,3.6411,3.6411,3.595,3.5182,3.4114,3.4345,3.3701,3.2128,3.2771,3.2646,3.1663,0.0,0.0,3.0533,2.9328,2.9218,2.9942,2.9842,2.9792,2.9792,2.9792,2.9792,2.9765,2.9411,2.9347,2.9456,2.9248,2.9003,2.8773,0.0,0.0,0.0,0.0,0.0,0.0,0.0,0.0,0.0,0.0,2.0054,2.1016,2.2215,2.2792,2.3165,2.3292,2.397,0.0,0.0,2.7465,2.7986,2.8779,2.834,2.8036,2.7889,2.6489,2.5578,2.5206,2.399,2.2995,2.226,2.2666,2.2648,2.2296,2.313,2.3512,2.3512,2.345,2.3916,2.4685,2.5091,2.5423,2.5797,2.6707,2.7507,2.8383,3.0087,3.1805,3.3116,3.2213,3.1961,3.1854,3.0596,2.9715,2.8786,0.0,0.0,0.0,0.0,0.0,0.0,0.0,0.0,0.0,0.0,0.0,0.0,0.0,0.0,3.6626,0.0,0.0,3.4105,3.4641,3.5183,3.6146,3.7817,3.6828,3.6231,3.7094,3.6393,3.6123,3.6878,3.6646,3.6518,3.6795,3.6257,3.5956,3.5956,3.5382,3.4794,3.411,3.4214,3.3849,3.2914,3.3301,3.3206,3.2641,3.1452,3.0964,3.0944,2.981,2.9745,3.0482,3.0482,3.0482,3.0482,3.0482,3.0771,3.1206,3.1206,3.0633,2.9792,2.9792,2.9616,2.9315,0.0,0.0,0.0,0.0,0.0,0.0,0.0,0.0,0.0,0.0,1.8321,1.9174,2.0541,2.1528,2.2405,0.0,0.0,0.0,0.0,2.7878,2.8085,2.9162,2.7959,2.7101,2.6729,2.5505,2.4883,2.4883,2.3584,2.2856,2.27,2.2874,2.2855,2.275,2.3608,2.3995,2.4028,2.43,2.4746,2.5347,2.6333,2.7298,2.8172,2.8268,2.8851,2.9816,3.1358,3.3235,3.4961,3.4582,3.4225,3.3918,3.4021,3.3384,3.218,2.9902,2.9085,0.0,0.0,0.0,0.0,0.0,0.0,0.0,0.0,0.0,4.0219,4.2568,4.0857,3.8492,3.6914,3.6465,3.6376,3.6389,3.6185,3.6808,3.8938,3.7788,3.6734,3.6693,3.6095,3.5873,3.6459,3.6424,3.6367,3.6207,3.5793,3.5445,3.5345,3.4818,3.4512,3.4412,3.4035,3.3812,3.3698,3.3454,3.3245,3.3171,3.2237,3.1738,3.1597,3.0753,3.0771,3.1462,3.1462,3.1462,3.1462,3.1462,3.1924,3.2593,3.2593,3.1592,3.0177,3.0279,3.0291,3.0112,0.0,0.0,0.0,0.0,0.0,0.0,0.0,0.0,0.0,0.0,0.0,0.0,0.0,0.0,0.0,0.0,0.0,0.0,2.8303,2.9025,2.9138,2.8537,2.7681,2.6873,2.612,2.5257,2.4817,2.4817,2.4637,2.4154,2.3401,2.4192,2.4164,2.351,2.4334,2.4732,2.4779,2.4814,2.5501,2.6592,2.6738,2.8607,3.1367,3.2019,3.148,3.0636,3.2649,3.2876,3.2531,3.4401,3.4697,3.4419,3.4889,3.5431,3.5321,3.2454,0.0,3.1305,2.982,3.2173,0.0,3.8585,4.0198,4.0737,0.0,0.0,4.3977,4.2453,4.2445,4.1587,3.7973,3.6792,3.6393,3.6379,3.5545,3.553,3.7418,3.6355,3.5978,3.7573,3.7223,3.6933,3.6998,3.6636,3.6157,3.5621,3.5533,3.5282,3.4793,3.4299,3.3771,3.3269,3.355,3.3471,3.2934,3.3759,3.3884,3.3363,3.3227,3.2923,3.2477,3.234,3.2357,3.2464,3.2464,3.2464,3.2464,3.2464,3.25,3.2593,3.2593,3.2099,3.1455,3.2058,3.1993,3.148,0.0,0.0,0.0,0.0,0.0,0.0,0.0,0.0,0.0,0.0,0.0,0.0,0.0,0.0,0.0,0.0,0.0,0.0,2.8676,2.957,2.9671,2.8846,2.8104,2.705,2.5573,2.5317,2.5204,2.5204,2.4741,2.4321,2.3963,2.4144,2.4134,2.4036,2.4852,2.5201,2.5213,2.5689,2.6212,2.6837,2.7807,2.933,3.1166,3.2294,3.2503,3.2378,3.3884,3.4473,0.0,0.0,3.5305,3.5488,3.5438,3.5653,3.5818,3.5149,3.3424,0.0,3.2885,0.0,0.0,0.0,4.3123,4.4282,4.2064,4.3163,4.4436,4.3792,4.3343,4.235,3.9742,3.8263,3.728,0.0,3.6179,3.5941,3.6641,3.6762,3.6892,3.7225,3.7194,3.7209,3.756,3.684,3.6506,3.6849,3.6605,3.6167,3.5542,3.5001,3.4417,3.3807,3.3963,3.3941,3.3684,3.4104,3.4169,3.3908,3.3574,3.3294,3.3032,3.2723,3.289,3.3415,3.3415,3.3754,3.4225,3.3671,3.3754,3.4308,3.4308,3.3868,3.3186,3.2332,3.1626,3.102,0.0,0.0,0.0,0.0,0.0,0.0,0.0,0.0,0.0,0.0,0.0,0.0,0.0,0.0,0.0,0.0,0.0,0.0,0.0,2.979,3.0021,2.921,2.8728,2.7684,2.6039,2.5918,2.5863,2.5863,2.5029,2.4622,2.4622,2.4384,2.4397,2.4667,2.5464,2.5762,2.5721,2.6496,2.7164,2.7791,2.9023,3.0366,3.1709,3.2745,3.3337,3.3768,3.4609,3.5087,0.0,0.0,3.5215,3.5397,3.5462,3.5539,3.5745,3.6502,3.4793,3.3193,3.5517,0.0,0.0,4.1033,4.3943,4.5253,4.4138,4.4545,4.4939,4.4325,4.3532,4.2402,4.0651,3.9493,3.8512,3.7744,3.7033,3.6663,3.6797,3.7045,3.7071,3.6703,3.6769,3.7108,3.7795,3.6759,3.6484,3.7593,3.6974,3.6341,3.5914,3.5347,3.4716,3.4059,3.4307,3.4386,3.4242,3.4511,3.4621,3.4621,3.4178,3.3988,3.3974,3.3571,3.3754,3.4428,3.4618,3.5142,3.5767,3.5275,3.5469,3.6117,3.5903,3.5306,3.4361,3.2735,3.1806,3.1312,0.0,0.0,0.0,0.0,0.0,0.0,0.0,0.0,0.0,0.0,0.0,0.0,0.0,0.0,0.0,0.0,0.0,0.0,0.0,2.9666,3.0233,2.9422,2.9366,2.8943,2.8036,2.7196,2.6766,2.6766,2.5883,2.5452,2.5454,2.5446,2.5458,2.5508,2.6291,2.656,2.642,2.7093,2.8476,3.0193,3.0309,3.198,3.4373,3.4428,3.4361,3.4318,3.4593,0.0,0.0,0.0,3.4002,3.3344,3.4774,3.5399,0.0,3.5703,3.5721,0.0,0.0,0.0,3.8486,4.1531,4.2373,4.3037,4.5385,4.6683,4.6519,4.3396,4.2741,4.2093,4.0006,4.0127,4.016,3.9045,3.794,3.746,3.7978,3.6624,3.5715,3.6174,3.6212,3.6646,0.0,3.6307,3.5843,3.7016,3.5916,3.5203,3.5306,3.4689,3.4032,3.3436,3.437,3.4593,3.4016,3.4979,3.5451,3.5451,3.5436,3.5436,3.5422,3.5407,3.5439,3.5489,3.6212,3.6554,3.66,3.7397,3.769,3.7655,3.694,3.5875,3.4585,3.3743,3.3451,3.3333,0.0,0.0,0.0,0.0,0.0,0.0,0.0,0.0,0.0,0.0,0.0,0.0,0.0,0.0,0.0,0.0,0.0,0.0,0.0,2.9246,2.9763,2.9342,2.9937,2.9839,2.8922,2.8608,2.8743,2.9326,2.8449,2.8313,2.8837,2.6653,2.6794,2.8885,2.8696,2.853,2.8414,2.8867,2.9988,3.1513,3.2426,3.3807,3.5176,3.4053,3.4132,3.4764,0.0,0.0,0.0,3.3538,3.3779,3.386,3.3762,3.4125,0.0,3.543,3.6033,3.6671,0.0,0.0,3.8609,4.156,4.3069,4.4058,4.4876,4.6105,4.655,4.4838,4.3692,4.2422,4.068,3.9782,3.9201,3.8828,3.8561,3.8464,3.8655,3.8811,3.8482,3.7398,3.766,0.0,0.0,0.0,0.0,3.7884,3.7135,3.648,3.6122,3.5889,3.5481,3.4826,3.511,3.5189,3.4986,3.5326,3.5765,3.6259,3.6768,3.7041,3.7041,3.7041,3.6761,3.6307,3.6555,3.6374,3.5963,3.6234,3.6346,3.633,3.6075,3.5411,3.4494,3.3325,3.2622,3.2145,0.0,0.0,0.0,0.0,0.0,0.0,0.0,0.0,0.0,0.0,0.0,0.0,0.0,0.0,0.0,0.0,0.0,0.0,0.0,0.0,2.947,2.9641,3.0144,3.0123,2.9528,2.9214,2.9476,3.0359,2.9483,2.9474,3.0273,2.8357,2.828,2.9848,3.1161,3.097,2.9706,2.9933,3.0923,3.2381,3.302,3.426,3.5612,3.4828,3.4855,0.0,0.0,0.0,0.0,3.3639,3.3713,3.3822,3.3354,3.3885,3.4751,3.5348,3.6454,3.7644,3.8357,3.836,3.8687,4.0948,4.3078,4.4506,4.4159,4.4811,4.524,4.4431,4.3027,4.1548,4.0193,3.9234,3.8635,3.8602,3.8506,3.8598,3.8904,3.8954,3.8745,3.8033,3.8456,3.873,0.0,0.0,0.0,3.8372,3.7584,3.6911,3.6507,3.6267,3.5953,3.5519,3.5504,3.5504,3.5504,3.575,3.629,3.704,3.7544,3.7793,3.7793,3.7793,3.7393,3.6722,3.6973,3.668,3.6007,3.6289,3.6437,3.6362,3.5841,3.5062,3.4116,3.2709,3.1618,3.083,0.0,0.0,0.0,0.0,0.0,0.0,0.0,0.0,0.0,0.0,0.0,0.0,0.0,0.0,0.0,0.0,0.0,0.0,0.0,0.0,0.0,3.0248,3.0086,2.9969,2.9957,2.9146,2.918,3.0081,2.9206,2.9206,3.0037,3.0521,2.9945,2.8697,3.3317,3.3442,3.0211,3.035,3.1389,3.2893,3.2335,3.3605,3.5911,3.6577,0.0,0.0,0.0,0.0,0.0,0.0,0.0,0.0,0.0,3.4708,3.572,3.5654,3.7134,3.8929,3.9579,3.9259,3.8946,3.9876,4.2319,4.4245,4.3234,4.305,4.2891,4.2262,4.0938,3.9621,0.0,0.0,3.8626,3.8596,3.8267,3.8265,3.9016,3.7585,3.6953,0.0,0.0,0.0,0.0,0.0,0.0,3.8392,0.0,3.6477,3.6432,3.5848,3.5504,3.5504,3.5492,3.5524,3.5554,3.6306,3.7021,3.7738,3.7796,3.7825,3.7825,3.7825,3.7395,3.6749,3.7398,3.7294,3.6702,3.7439,3.7753,3.7635,3.6124,3.4821,3.357,3.2056,3.0671,2.9685,0.0,0.0,0.0,0.0,0.0,0.0,0.0,0.0,0.0,0.0,0.0,0.0,0.0,0.0,0.0,0.0,0.0,0.0,0.0,0.0,0.0,0.0,0.0,0.0,0.0,0.0,0.0,0.0,0.0,3.1854,3.2937,3.2799,3.2261,3.1365,3.1887,3.1468,3.0485,3.1339,3.2412,3.3508,0.0,3.5334,3.7527,0.0,0.0,0.0,0.0,0.0,0.0,0.0,0.0,0.0,0.0,3.7252,3.7853,3.8382,3.9338,4.0232,4.0401,4.0492,4.0477,4.0155,4.1648,4.2959,4.2161,4.2257,4.2291,4.1607,4.0696,3.9785,3.8987,0.0,0.0,4.1001,4.1716,0.0,4.319,4.2225,0.0,0.0,0.0,4.0336,3.9321,3.9354,0.0,0.0,3.6926,3.6267,3.5789,3.5594,3.5504,3.5504,3.5504,3.5753,3.6291,3.7119,3.7313,3.6996,3.7591,3.7853,3.7853,3.7853,3.7478,3.6743,3.6336,3.6055,3.586,3.5521,3.569,3.609,3.5148,3.4583,3.4074,3.2132,3.1208,3.0861,0.0,0.0,0.0,0.0,0.0,0.0,0.0,0.0,0.0,0.0,0.0,0.0,0.0,0.0,0.0,0.0,0.0,0.0,0.0,0.0,0.0,0.0,0.0,0.0,0.0,0.0,0.0,0.0,0.0,0.0,0.0,3.3105,3.2493,3.1727,3.1341,3.0861,3.0392,3.136,0.0,0.0,0.0,0.0,0.0,0.0,0.0,0.0,0.0,0.0,0.0,0.0,0.0,3.7909,3.7935,3.842,3.91,3.9759,0.0,4.1173,4.1763,4.1882,4.1727,4.1216,4.1783,4.2251,4.1475,4.1308,4.1281,4.1144,4.0062,0.0,3.9278,0.0,0.0,0.0,0.0,0.0,4.4382,4.3451,4.2755,0.0,4.2386,0.0,4.0517,4.0137,3.9269,0.0,3.709,3.6492,3.5549,3.5504,3.5504,3.5504,3.5813,3.6343,3.7109,3.7254,3.7281,3.722,3.7679,3.7905,3.7905,3.7905,3.7499,3.6761,0.0,3.5618,3.5064,3.4538,3.4444,3.4551,3.3812,3.3363,3.2954,3.1466,3.0907,3.0808,0.0,0.0,0.0,0.0,0.0,0.0,0.0,0.0,0.0,0.0,0.0,0.0,0.0,0.0,0.0,0.0,0.0,0.0,0.0,0.0,0.0,0.0,0.0,0.0,0.0,0.0,0.0,0.0,0.0,0.0,0.0,0.0,0.0,0.0,0.0,0.0,0.0,0.0,0.0,0.0,0.0,0.0,0.0,0.0,0.0,0.0,0.0,0.0,0.0,0.0,4.2416,3.9101,3.8875,3.9409,4.0193,4.0673,4.127,4.2013,4.3174,4.3172,4.2746,4.2498,4.2313,4.194,4.1053,4.0487,4.0263,4.0574,0.0,3.8544,3.9466,3.9478,3.9605,4.0472,0.0,4.2267,4.4362,4.3147,4.2801,4.4756,4.3549,4.2333,4.1662,4.0976,3.9724,3.7718,3.7492,3.6914,3.5711,3.5636,3.5688,3.5805,3.6445,3.7046,3.7668,3.7025,3.7045,3.7719,3.7625,3.7672,3.7802,3.7725,3.7341,3.665,3.6262,0.0,3.4419,3.4083,3.3739,3.3339,3.2598,3.1972,3.1432,3.07,3.0414,3.0298,0.0,0.0,0.0,0.0,0.0,0.0,0.0,0.0,0.0,0.0,0.0,0.0,0.0,0.0,0.0,0.0,0.0,0.0,0.0,0.0,0.0,0.0,0.0,0.0,0.0,0.0,0.0,0.0,0.0,0.0,0.0,0.0,0.0,0.0,0.0,0.0,0.0,0.0,0.0,0.0,0.0,0.0,0.0,0.0,0.0,0.0,0.0,0.0,0.0,0.0,4.2976,4.1628,4.2715,4.2931,4.2846,4.293,4.3062,4.3191,4.3429,4.3429,4.325,4.2765,4.2604,4.2241,4.0948,4.058,0.0,0.0,0.0,3.9857,3.8972,4.0311,0.0,4.3553,0.0,0.0,0.0,0.0,4.3658,0.0,0.0,0.0,0.0,0.0,0.0,0.0,0.0,3.7215,3.6461,3.6415,3.6698,3.7388,3.7536,3.7383,3.6979,3.6845,3.6741,3.6663,3.6219,3.647,3.7306,3.6856,3.6443,3.602,3.5343,0.0,3.4125,3.3465,3.3262,3.3339,3.2598,3.2232,3.2049,3.1325,3.1035,3.0934,0.0,0.0,0.0,0.0,0.0,0.0,0.0,0.0,0.0,0.0,0.0,0.0,0.0,0.0,0.0,0.0,0.0,0.0,0.0,0.0,0.0,0.0,0.0,0.0,0.0,0.0,0.0,0.0,0.0,0.0,0.0,0.0,0.0,0.0,0.0,0.0,0.0,0.0,0.0,0.0,0.0,0.0,0.0,0.0,0.0,0.0,0.0,0.0,0.0,0.0,4.4175,4.3932,4.426,4.4243,4.406,4.4069,4.4065,4.4065,4.4065,4.4065,4.3955,4.3487,4.3175,4.2523,4.0842,0.0,0.0,0.0,0.0,3.9956,3.9697,0.0,0.0,0.0,0.0,0.0,0.0,0.0,0.0,0.0,0.0,0.0,0.0,0.0,0.0,0.0,0.0,3.7566,3.7235,3.7203,3.7412,3.7791,3.7423,3.7078,3.6789,3.6366,3.6251,3.6412,3.6139,3.6419,3.7173,3.6941,3.6464,3.5861,3.5384,0.0,3.3807,3.3317,3.2896,3.2481,3.1766,3.1697,3.1935,3.1201,3.1332,3.1704,0.0,0.0,0.0,0.0,0.0,0.0,0.0,0.0,2.5196,2.576,2.5387,2.5494,0.0,0.0,0.0,0.0,0.0,0.0,0.0,0.0,0.0,0.0,0.0,0.0,0.0,0.0,0.0,0.0,0.0,0.0,0.0,0.0,0.0,0.0,0.0,0.0,0.0,0.0,0.0,0.0,0.0,0.0,0.0,0.0,0.0,0.0,0.0,0.0,0.0,0.0,4.4674,4.4795,4.4416,4.4483,4.4625,4.4398,4.4461,4.4593,4.4593,4.4593,4.4527,4.4204,4.3816,4.3021,4.1224,4.0474,0.0,0.0,3.9175,3.9571,4.0357,0.0,0.0,0.0,0.0,0.0,0.0,0.0,0.0,0.0,0.0,0.0,0.0,0.0,0.0,0.0,0.0,0.0,3.781,3.7951,3.7959,3.7829,3.711,3.6752,3.6812,3.6011,3.5941,3.658,3.6457,3.6803,3.7524,3.7396,3.6844,3.5971,3.5752,0.0,0.0,3.3187,3.2549,3.1738,3.106,3.1058,3.1386,3.0872,3.1288,3.1908,0.0,0.0,0.0,0.0,0.0,0.0,0.0,0.0,2.4974,2.4922,2.5487,0.0,0.0,0.0,0.0,0.0,0.0,0.0,0.0,0.0,0.0,0.0,0.0,0.0,0.0,0.0,0.0,0.0,0.0,0.0,0.0,0.0,0.0,0.0,0.0,0.0,0.0,0.0,0.0,0.0,0.0,0.0,0.0,0.0,0.0,0.0,0.0,0.0,0.0,0.0,0.0,4.2539,4.3137,4.4044,4.4692,4.3712,0.0,0.0,4.4593,4.4593,4.458,4.4553,4.4514,4.4119,4.2706,0.0,0.0,3.9234,3.8752,3.9067,4.0058,3.9963,4.0471,0.0,0.0,0.0,0.0,0.0,0.0,0.0,0.0,0.0,0.0,0.0,0.0,0.0,0.0,0.0,3.7847,3.8496,3.8587,3.7928,3.7168,3.6793,3.6795,3.6011,3.6101,3.7133,3.6623,3.7154,3.8564,3.8065,3.7249,3.6274,3.623,0.0,0.0,3.2749,3.2247,3.1771,3.1323,3.0794,3.0289,3.0521,3.0716,3.0698,0.0,0.0,0.0,0.0,0.0,0.0,0.0,0.0,2.519,2.5594,2.5365,0.0,0.0,0.0,0.0,0.0,0.0,0.0,0.0,0.0,0.0,0.0,0.0,0.0,0.0,0.0,0.0,0.0,0.0,0.0,0.0,0.0,0.0,0.0,0.0,0.0,0.0,0.0,0.0,0.0,0.0,0.0,0.0,0.0,0.0,0.0,0.0,0.0,0.0,0.0,0.0,0.0,4.178,4.2661,0.0,0.0,4.415,4.4532,4.5059,4.5192,4.5107,4.4695,4.3851,4.293,4.2318,0.0,0.0,3.8918,3.8703,3.9002,4.0005,4.0182,4.0517,0.0,0.0,0.0,0.0,0.0,0.0,0.0,0.0,0.0,0.0,0.0,0.0,0.0,0.0,0.0,3.792,3.8166,3.8007,3.7246,3.6965,3.6575,3.6079,3.6073,3.646,3.7209,3.6769,3.7072,3.7955,3.7256,3.6416,3.5518,3.5518,0.0,0.0,3.2999,3.2483,3.1737,3.1142,3.1163,3.1446,3.0639,3.1304,3.228,0.0,0.0,0.0,0.0,0.0,0.0,2.5255,2.5228,2.548,2.6251,2.5589,0.0,0.0,0.0,0.0,0.0,0.0,0.0,0.0,0.0,0.0,0.0,0.0,0.0,0.0,0.0,0.0,0.0,0.0,0.0,0.0,0.0,0.0,0.0,0.0,0.0,0.0,0.0,0.0,0.0,0.0,0.0,0.0,0.0,0.0,0.0,0.0,0.0,0.0,0.0,0.0,0.0,0.0,0.0,0.0,0.0,4.3912,4.4432,4.5056,4.5402,4.5457,4.4896,4.35,4.2076,0.0,0.0,3.925,3.8793,3.8698,3.9017,4.0005,4.0233,4.0391,0.0,0.0,0.0,0.0,0.0,0.0,0.0,0.0,0.0,0.0,0.0,0.0,0.0,0.0,0.0,3.7709,3.7381,3.6992,3.6451,3.6434,3.613,3.5504,3.5859,3.6252,3.6702,3.6446,3.6624,3.7125,3.656,3.5826,3.5004,3.5004,0.0,0.0,3.3199,3.2729,3.1952,3.1446,3.1475,3.1703,3.0729,3.1466,3.2665,0.0,0.0,0.0,0.0,0.0,0.0,0.0,0.0,2.5704,2.6575,2.6346,0.0,0.0,0.0,0.0,0.0,0.0,0.0,0.0,0.0,0.0,0.0,0.0,0.0,0.0,0.0,0.0,0.0,0.0,0.0,0.0,0.0,0.0,0.0,0.0,0.0,0.0,0.0,0.0,0.0,0.0,0.0,0.0,0.0,0.0,0.0,0.0,0.0,0.0,0.0,0.0,0.0,0.0,0.0,0.0,0.0,4.3008,4.4297,4.4316,4.4932,4.5513,4.518,4.3869,4.2112,0.0,0.0,4.0541,3.9013,3.8707,3.9008,4.0005,3.9768,3.9736,4.0752,4.0449,0.0,0.0,0.0,0.0,0.0,0.0,0.0,0.0,0.0,0.0,0.0,0.0,0.0,3.7136,3.6169,3.5616,3.5616,3.5616,3.5492,3.5209,3.5209,3.5318,3.5517,3.5515,3.5789,3.6303,3.6303,3.5826,0.0,0.0,0.0,0.0,3.3199,3.2921,3.2501,3.2483,3.1563,3.028,3.0654,3.0842,3.0849,0.0,0.0,0.0,0.0,0.0,0.0,0.0,0.0,2.5461,2.6256,2.5853,0.0,0.0,0.0,0.0,0.0,0.0,0.0,0.0,0.0,0.0,0.0,0.0,0.0,0.0,0.0,0.0,0.0,0.0,0.0,0.0,0.0,0.0,0.0,0.0,0.0,0.0,0.0,0.0,0.0,0.0,0.0,0.0,0.0,0.0,0.0,0.0,0.0,0.0,0.0,0.0,0.0,0.0,0.0,0.0,0.0,0.0,0.0,4.3034,4.334,4.3333,4.2457,4.0611,3.8859,3.8357,3.7927,3.7576,3.738,3.7828,3.8597,3.9535,3.9669,3.9877,4.077,4.0449,0.0,0.0,0.0,0.0,0.0,0.0,0.0,0.0,0.0,0.0,0.0,0.0,0.0,3.692,3.607,3.5838,3.6358,3.6212,3.5994,3.5688,3.6041,3.5986,3.5497,3.5269,3.5367,3.5731,3.5137,3.4698,0.0,0.0,0.0,0.0,3.2859,3.2103,3.0522,3.1363,3.1242,3.0568,3.0128,3.0631,3.1395,0.0,0.0,0.0,0.0,0.0,0.0,0.0,0.0,2.5224,2.6295,2.6114,0.0,0.0,0.0,0.0,0.0,0.0,0.0,0.0,0.0,0.0,0.0,0.0,0.0,0.0,0.0,0.0,0.0,0.0,0.0,0.0,0.0,0.0,0.0,0.0,0.0,0.0,0.0,0.0,0.0,0.0,0.0,3.9523,0.0,0.0,0.0,0.0,0.0,0.0,0.0,0.0,0.0,0.0,0.0,0.0,0.0,4.0163,0.0,0.0,4.2186,4.2177,4.1159,3.9292,0.0,0.0,3.7175,3.6646,3.7188,3.7998,3.8785,3.9466,3.9643,3.9894,4.0487,4.0497,0.0,0.0,0.0,0.0,0.0,0.0,0.0,0.0,0.0,0.0,0.0,0.0,0.0,3.617,3.5853,3.5891,3.624,3.6282,3.5975,3.5313,3.5621,3.5471,3.4864,3.4654,3.4697,3.5001,3.446,3.42,0.0,0.0,0.0,0.0,3.2734,3.1972,3.0499,3.1094,3.1026,3.0539,3.0122,3.0556,3.1309,0.0,0.0,0.0,0.0,0.0,0.0,0.0,0.0,0.0,0.0,0.0,0.0,0.0,0.0,0.0,0.0,0.0,0.0,0.0,0.0,0.0,0.0,0.0,0.0,0.0,0.0,0.0,3.1059,3.152,3.1502,3.1126,0.0,0.0,0.0,0.0,0.0,0.0,0.0,0.0,0.0,0.0,3.6511,0.0,0.0,0.0,0.0,0.0,0.0,0.0,0.0,0.0,0.0,0.0,0.0,0.0,0.0,0.0,0.0,0.0,0.0,0.0,0.0,0.0,0.0,0.0,3.7662,0.0,3.8095,3.8868,3.9421,3.9628,3.9687,3.9817,4.0052,4.0521,0.0,0.0,0.0,0.0,0.0,0.0,0.0,0.0,0.0,0.0,0.0,0.0,0.0,3.5184,3.5524,3.5687,3.5427,3.5753,3.5431,3.4362,3.4359,3.4159,3.3807,3.3807,3.3935,3.42,3.42,3.42,0.0,0.0,0.0,0.0,3.273,3.2297,3.1787,3.1446,3.0815,3.0154,3.0412,3.053,3.0694,0.0,0.0,0.0,0.0,0.0,0.0,0.0,0.0,0.0,0.0,0.0,0.0,0.0,0.0,0.0,0.0,0.0,0.0,0.0,0.0,0.0,0.0,0.0,0.0,0.0,0.0,0.0,3.0708,3.0219,2.8948,2.7013,2.7842,0.0,0.0,0.0,0.0,0.0,0.0,0.0,0.0,3.4344,3.5445,0.0,0.0,0.0,0.0,3.4511,3.4683,0.0,0.0,0.0,0.0,0.0,0.0,0.0,0.0,3.8559,3.8556,3.9256,0.0,4.0106,3.9155,3.8185,3.752,0.0,3.7119,3.6839,0.0,0.0,0.0,3.9163,3.9632,4.0025,4.0087,4.0204,0.0,0.0,0.0,0.0,0.0,0.0,0.0,0.0,0.0,0.0,0.0,0.0,3.6338,3.5718,3.5097,3.4702,3.4582,3.4428,3.4499,3.483,3.483,3.4485,3.3807,3.3807,3.3935,3.42,3.42,3.42,0.0,0.0,0.0,3.2368,3.2524,3.1649,3.0188,3.0399,2.9989,2.9315,2.9577,2.9774,3.0039,0.0,0.0,0.0,0.0,0.0,0.0,0.0,0.0,0.0,0.0,0.0,0.0,0.0,0.0,0.0,0.0,0.0,0.0,0.0,0.0,0.0,0.0,0.0,0.0,0.0,0.0,0.0,0.0,0.0,2.7105,0.0,0.0,0.0,0.0,0.0,0.0,0.0,0.0,0.0,3.0946,3.1899,0.0,0.0,0.0,0.0,0.0,3.3611,3.4051,0.0,3.5933,3.6831,3.7639,0.0,0.0,0.0,0.0,3.8994,3.9184,3.9323,3.9242,3.9085,3.8971,3.8599,3.8309,3.8521,0.0,0.0,0.0,0.0,0.0,0.0,0.0,0.0,0.0,0.0,0.0,0.0,0.0,0.0,0.0,0.0,0.0,0.0,0.0,0.0,0.0,0.0,3.5989,3.5506,3.4971,3.4327,3.355,3.3703,3.4009,3.4454,3.4454,3.4215,3.3807,3.3807,3.3935,3.42,3.42,3.3995,0.0,0.0,0.0,3.1805,3.2115,3.1299,2.9873,2.9943,2.9659,2.9225,2.9542,2.9738,2.9967,0.0,0.0,0.0,0.0,0.0,0.0,0.0,0.0,0.0,0.0,0.0,0.0,0.0,0.0,0.0,0.0,0.0,0.0,0.0,0.0,0.0,0.0,0.0,0.0,0.0,0.0,0.0,0.0,0.0,0.0,0.0,0.0,2.0372,0.0,0.0,0.0,0.0,0.0,2.7061,2.8451,2.9359,0.0,0.0,0.0,0.0,0.0,0.0,0.0,0.0,3.5805,3.6798,3.7677,3.8472,0.0,0.0,0.0,0.0,0.0,4.0106,3.9466,3.8974,3.9567,3.9599,3.9599,3.9861,0.0,0.0,0.0,0.0,0.0,0.0,0.0,0.0,0.0,0.0,0.0,0.0,0.0,0.0,0.0,0.0,0.0,0.0,0.0,0.0,0.0,0.0,3.5789,3.5041,3.4876,3.4197,3.2821,3.344,3.3733,3.3623,3.3733,3.3807,3.3807,3.3807,3.3928,3.4147,3.4147,3.3701,3.2976,0.0,0.0,3.1421,3.157,3.1084,3.0217,2.9842,2.9598,2.9484,2.9861,3.0006,3.015,0.0,0.0,0.0,0.0,0.0,0.0,0.0,0.0,0.0,0.0,0.0,0.0,0.0,0.0,0.0,0.0,0.0,0.0,0.0,0.0,0.0,0.0,0.0,0.0,0.0,0.0,0.0,0.0,0.0,0.0,2.0157,1.7189,1.6178,1.6877,0.0,2.0982,2.2685,2.4076,2.5356,2.6606,2.8565,0.0,0.0,0.0,0.0,0.0,0.0,0.0,0.0,3.5477,3.6671,3.7935,3.8525,0.0,0.0,0.0,0.0,0.0,4.0807,4.125,4.1089,3.9988,3.9685,3.9817,4.0352,0.0,0.0,0.0,0.0,0.0,0.0,0.0,0.0,0.0,0.0,0.0,0.0,0.0,0.0,0.0,0.0,0.0,0.0,0.0,0.0,0.0,0.0,3.5151,3.5023,3.4344,3.3862,3.3623,3.3733,3.3476,3.2784,3.3458,3.3807,3.3807,3.3807,3.3815,3.385,3.385,3.3427,3.266,0.0,3.2298,3.1366,3.0958,3.0692,3.0488,2.9908,2.9678,2.9678,2.9916,3.0006,3.0054,0.0,0.0,0.0,0.0,0.0,0.0,0.0,0.0,0.0,0.0,0.0,0.0,0.0,0.0,0.0,0.0,0.0,0.0,0.0,0.0,0.0,0.0,3.1232,3.0029,0.0,0.0,0.0,0.0,0.0,2.1732,1.8936,1.5895,1.4366,1.4258,0.0,2.0026,2.1922,2.3153,2.4728,2.6551,0.0,0.0,0.0,0.0,0.0,0.0,0.0,0.0,0.0,0.0,3.6356,3.7471,3.8418,0.0,0.0,0.0,0.0,0.0,4.1087,4.1296,4.1234,4.1433,4.2048,4.2797,4.3471,0.0,0.0,0.0,0.0,0.0,0.0,0.0,0.0,0.0,0.0,0.0,0.0,0.0,0.0,0.0,0.0,0.0,0.0,0.0,0.0,0.0,0.0,0.0,3.4344,3.3592,3.2944,3.2522,3.2631,3.2329,3.1533,3.2329,3.265,3.2485,3.2485,3.2485,3.2522,3.2944,3.2706,3.1971,0.0,3.1898,3.0742,3.0766,3.0438,2.9956,3.0051,2.9981,2.9893,3.0122,3.0209,3.0222,0.0,0.0,0.0,0.0,0.0,0.0,0.0,0.0,0.0,0.0,0.0,0.0,0.0,0.0,0.0,0.0,0.0,0.0,0.0,0.0,0.0,3.4101,3.2582,3.1021,2.9518,0.0,2.7413,2.5279,2.3447,2.0962,1.7874,1.5689,1.4312,1.3823,0.0,2.0129,2.1806,2.301,2.4602,2.6401,0.0,0.0,0.0,0.0,0.0,0.0,0.0,0.0,0.0,0.0,0.0,0.0,0.0,0.0,0.0,3.9827,4.0005,4.0311,4.1107,4.1298,4.1596,4.2816,0.0,4.4667,4.5938,0.0,0.0,0.0,0.0,0.0,0.0,0.0,0.0,0.0,0.0,0.0,0.0,0.0,0.0,0.0,0.0,0.0,0.0,0.0,0.0,0.0,0.0,0.0,3.3889,3.3121,3.2441,3.1892,3.1875,3.148,3.0688,3.1275,3.1563,3.1495,3.1434,3.1397,3.1415,3.2045,3.188,3.1146,3.177,3.1274,3.0037,3.0451,3.0189,2.9589,3.0174,3.0267,3.0129,3.0317,3.0404,3.0404,0.0,0.0,0.0,0.0,0.0,0.0,0.0,0.0,0.0,0.0,0.0,0.0,0.0,0.0,0.0,0.0,0.0,0.0,0.0,0.0,0.0,3.3322,3.3844,3.2768,2.9846,2.7079,2.5432,2.4938,2.1845,1.8917,1.6185,1.6282,1.6388,1.6619,0.0,2.112,2.1999,2.3894,2.4789,2.5128,2.7213,0.0,0.0,0.0,0.0,0.0,0.0,0.0,0.0,0.0,0.0,0.0,0.0,0.0,3.8927,3.968,3.9903,4.0091,4.0899,4.2165,4.3319,4.3447,4.2746,0.0,4.5644,4.5698,0.0,0.0,0.0,0.0,0.0,0.0,0.0,0.0,0.0,0.0,0.0,0.0,0.0,0.0,0.0,0.0,0.0,0.0,0.0,0.0,0.0,0.0,3.4183,3.3403,3.3053,3.3255,3.2485,3.1685,3.0885,3.0941,3.1249,3.176,3.1513,3.1397,3.1397,3.147,3.1054,3.0283,3.0356,3.0012,2.9467,2.9692,2.9853,2.9984,3.0273,3.0398,3.0367,3.0398,3.0404,3.0404,0.0,0.0,0.0,0.0,0.0,0.0,0.0,0.0,0.0,0.0,0.0,0.0,0.0,0.0,0.0,0.0,0.0,0.0,0.0,0.0,0.0,0.0,3.3522,3.2592,3.1506,2.9035,2.6815,2.4831,2.2269,2.0317,1.8943,1.9125,0.0,0.0,0.0,2.2635,2.3744,2.4267,2.4874,2.5647,2.752,2.8467,0.0,0.0,0.0,0.0,0.0,0.0,0.0,0.0,3.5932,3.738,3.84,3.8707,3.8762,3.9056,3.9148,3.9331,4.0139,4.1534,4.2873,4.3386,4.3543,0.0,0.0,0.0,0.0,0.0,0.0,0.0,0.0,0.0,0.0,0.0,0.0,0.0,0.0,0.0,0.0,0.0,0.0,0.0,0.0,0.0,0.0,0.0,0.0,0.0,0.0,3.2939,3.2304,3.1864,3.1159,3.0655,3.0333,3.0333,3.0444,3.0672,3.0329,3.0072,2.9922,3.043,3.0485,3.021,3.021,3.0171,3.0131,2.9823,2.951,2.9284,2.9499,2.9929,3.0404,3.0404,3.0731,3.1135,0.0,0.0,0.0,0.0,0.0,0.0,0.0,0.0,0.0,0.0,0.0,0.0,0.0,0.0,0.0,0.0,0.0,0.0,0.0,0.0,0.0,0.0,0.0,3.2336,3.1801,2.9794,2.7741,2.5642,2.3184,2.1593,2.0884,0.0,0.0,0.0,0.0,2.3562,2.3914,2.4343,2.4943,2.5715,2.7343,2.8381,0.0,0.0,0.0,0.0,0.0,0.0,0.0,0.0,3.6213,3.7558,0.0,0.0,0.0,0.0,3.9074,3.9258,4.0065,4.1277,4.2488,0.0,0.0,0.0,0.0,0.0,0.0,0.0,0.0,0.0,0.0,0.0,0.0,0.0,0.0,0.0,0.0,0.0,0.0,0.0,0.0,0.0,0.0,0.0,0.0,0.0,0.0,0.0,0.0,3.2901,3.2065,3.1545,3.0612,3.0129,3.0129,3.0129,3.0082,2.998,2.9458,2.9183,2.9141,2.9706,2.9945,2.9945,2.9945,3.0118,3.0387,2.9966,2.9593,2.9327,2.9465,2.9871,3.0423,3.0712,3.1192,3.166,0.0,0.0,0.0,0.0,0.0,0.0,0.0,0.0,0.0,0.0,0.0,0.0,0.0,0.0,0.0,0.0,0.0,0.0,0.0,0.0,0.0,0.0,0.0,3.2236,3.0253,2.8631,2.7699,2.7466,2.4338,2.2282,2.1278,2.2655,0.0,0.0,0.0,0.0,2.2037,2.4197,2.4986,2.4924,2.6577,2.7536,2.8183,0.0,0.0,0.0,0.0,0.0,0.0,0.0,3.7193,3.8689,0.0,0.0,0.0,3.9662,3.9916,4.0084,4.0875,4.1682,4.2506,0.0,0.0,0.0,0.0,0.0,0.0,0.0,0.0,0.0,0.0,0.0,0.0,0.0,0.0,0.0,0.0,0.0,0.0,0.0,0.0,0.0,0.0,0.0,0.0,0.0,0.0,0.0,0.0,3.3438,3.2615,3.2865,3.1269,3.0404,3.0404,3.0404,3.026,2.9987,2.9193,2.9012,2.9384,2.9384,2.9384,2.9384,2.9384,2.9625,3.0006,2.9987,3.0157,3.0404,3.0385,3.0385,3.05,3.1371,3.1698,3.1814,0.0,0.0,0.0,0.0,0.0,0.0,0.0,0.0,0.0,0.0,0.0,0.0,0.0,0.0,0.0,0.0,0.0,0.0,0.0,0.0,0.0,0.0,0.0,0.0,0.0,0.0,2.7981,2.5611,2.4236,2.3708,0.0,0.0,0.0,2.2399,0.0,2.3769,2.2125,2.4366,2.5197,2.5179,2.7174,2.7984,2.8121,0.0,0.0,0.0,0.0,0.0,0.0,0.0,0.0,0.0,3.8524,0.0,0.0,3.9827,4.0304,4.0799,4.104,4.2103,0.0,0.0,0.0,0.0,0.0,0.0,0.0,0.0,0.0,0.0,0.0,0.0,0.0,0.0,0.0,0.0,0.0,0.0,0.0,0.0,0.0,0.0,0.0,0.0,0.0,0.0,0.0,0.0,0.0,3.3055,3.2276,3.1173,3.0654,3.0404,3.0404,3.0404,3.0361,3.0273,3.0043,2.9491,2.8687,2.8106,2.8162,2.8668,2.8097,2.868,2.9975,2.9538,2.9786,3.0346,2.9737,2.9871,3.0423,3.0692,3.1519,3.2506,0.0,0.0,0.0,0.0,0.0,0.0,0.0,0.0,0.0,0.0,0.0,0.0,0.0,0.0,0.0,0.0,0.0,0.0,0.0,0.0,0.0,0.0,0.0,0.0,0.0,2.9084,2.7984,0.0,0.0,0.0,0.0,0.0,0.0,2.2471,0.0,2.3118,2.1581,2.3717,2.4762,2.5117,2.6715,2.7569,2.7936,0.0,0.0,0.0,0.0,0.0,0.0,0.0,0.0,0.0,3.8909,0.0,0.0,4.0671,4.1203,4.1662,4.1974,0.0,0.0,0.0,0.0,0.0,0.0,0.0,0.0,0.0,0.0,0.0,0.0,0.0,0.0,0.0,0.0,0.0,0.0,0.0,0.0,0.0,0.0,0.0,0.0,0.0,0.0,0.0,0.0,0.0,0.0,3.2602,3.1968,3.0942,3.0621,3.0436,3.0436,3.0472,3.0472,3.0436,2.976,2.9004,2.8182,2.7949,2.81,2.8551,2.8134,2.8595,2.9608,2.926,2.9602,3.0346,2.9813,2.9948,3.0442,3.0788,3.1564,3.2449,0.0,0.0,0.0,0.0,0.0,0.0,0.0,0.0,0.0,0.0,0.0,0.0,0.0,0.0,0.0,0.0,0.0,0.0,0.0,0.0,0.0,0.0,0.0,0.0,0.0,0.0,0.0,0.0,0.0,0.0,0.0,0.0,2.3964,2.1805,0.0,2.2182,2.0776,2.2626,2.3916,2.4809,2.5512,2.648,2.7459,2.7732,0.0,0.0,0.0,0.0,0.0,0.0,0.0,0.0,3.9687,4.0037,4.0441,4.193,4.2375,4.258,0.0,0.0,0.0,0.0,0.0,0.0,0.0,0.0,0.0,0.0,0.0,0.0,0.0,0.0,0.0,0.0,0.0,0.0,0.0,0.0,0.0,0.0,0.0,0.0,0.0,0.0,0.0,0.0,0.0,0.0,0.0,3.2102,3.1666,3.1582,3.0883,3.0464,3.0399,3.0441,3.0418,3.0247,2.8713,2.7917,2.7794,2.8352,2.8604,2.8611,2.8948,2.9011,2.8876,2.905,2.9563,3.0288,3.0288,3.0327,3.05,3.1288,3.1641,3.1929,0.0,0.0,0.0,0.0,0.0,0.0,0.0,0.0,0.0,0.0,0.0,0.0,0.0,0.0,0.0,0.0,0.0,0.0,0.0,0.0,0.0,0.0,0.0,0.0,0.0,0.0,0.0,0.0,0.0,0.0,0.0,0.0,0.0,2.2201,0.0,2.2335,2.1175,2.2744,2.3696,2.423,2.4984,2.5338,2.5492,2.6245,2.6644,0.0,0.0,0.0,0.0,0.0,0.0,0.0,4.0039,4.1159,4.2237,4.259,4.2952,4.3406,0.0,4.4563,0.0,0.0,0.0,0.0,0.0,0.0,0.0,0.0,0.0,0.0,0.0,0.0,0.0,0.0,0.0,0.0,0.0,0.0,0.0,0.0,0.0,0.0,0.0,0.0,0.0,0.0,0.0,0.0,3.1987,3.1795,3.1405,3.0786,3.0582,3.0207,2.9557,2.9516,2.9187,0.0,2.8121,2.7556,2.689,2.7006,2.7067,2.7149,2.8514,2.8357,2.7236,2.8569,2.9204,2.9371,2.9371,2.9794,3.0423,3.0615,3.1115,3.1833,0.0,0.0,0.0,0.0,0.0,0.0,0.0,0.0,0.0,0.0,0.0,0.0,0.0,0.0,0.0,0.0,0.0,0.0,0.0,0.0,0.0,0.0,0.0,0.0,0.0,0.0,0.0,0.0,0.0,0.0,0.0,0.0,0.0,2.3544,0.0,2.2647,2.1961,2.2602,2.3322,2.4023,2.443,2.4651,2.4917,2.5772,2.5912,2.6062,2.8922,0.0,0.0,0.0,0.0,0.0,0.0,0.0,4.1919,4.2313,4.2903,4.3505,0.0,0.0,0.0,0.0,0.0,0.0,0.0,0.0,0.0,0.0,0.0,0.0,0.0,0.0,0.0,0.0,0.0,0.0,0.0,0.0,0.0,0.0,0.0,0.0,0.0,0.0,0.0,0.0,0.0,3.1519,3.1096,3.0717,3.0496,3.0498,3.0185,2.9994,2.997,2.9554,2.911,2.8653,2.7763,2.7088,2.665,2.665,2.6418,2.6109,2.7378,2.7446,2.6697,2.7986,2.8742,2.9146,2.9563,3.0,3.0404,3.0404,3.0692,3.125,0.0,0.0,0.0,0.0,0.0,0.0,0.0,0.0,0.0,0.0,0.0,0.0,0.0,0.0,0.0,0.0,0.0,0.0,0.0,0.0,0.0,0.0,0.0,0.0,0.0,0.0,0.0,0.0,0.0,0.0,0.0,0.0,0.0,2.523,0.0,2.3078,2.3023,2.2613,2.3113,2.4142,2.4142,2.4356,2.4734,2.5454,2.5415,2.5325,2.8103,2.9469,3.0477,3.3915,0.0,0.0,0.0,0.0,4.1232,4.1899,4.2561,4.3108,0.0,0.0,0.0,0.0,0.0,0.0,0.0,0.0,0.0,0.0,0.0,0.0,0.0,0.0,0.0,0.0,0.0,0.0,0.0,0.0,0.0,0.0,0.0,0.0,0.0,0.0,0.0,0.0,0.0,3.0327,3.0173,2.9564,2.9468,3.0059,2.955,2.9525,3.0059,2.9394,2.8943,2.8704,2.72,2.6467,2.6482,2.6479,2.6246,2.5879,2.6443,2.6654,2.6678,2.7544,2.8299,2.8973,2.9833,3.0269,3.0404,3.0404,3.0404,3.0615,0.0,0.0,0.0,0.0,0.0,0.0,0.0,0.0,0.0,0.0,0.0,0.0,0.0,0.0,0.0,0.0,0.0,0.0,2.0737,0.0,0.0,2.4425,2.5685,2.6393,0.0,0.0,0.0,0.0,0.0,0.0,0.0,0.0,0.0,2.6793,0.0,0.0,2.4459,2.3441,2.3647,2.4675,2.4675,2.4469,2.4104,2.4261,2.4339,2.4662,2.67,2.8225,2.9895,3.3662,3.6289,0.0,0.0,0.0,4.2297,4.2411,4.2306,4.2329,0.0,0.0,0.0,0.0,0.0,0.0,0.0,0.0,0.0,0.0,0.0,0.0,0.0,0.0,0.0,0.0,0.0,0.0,0.0,0.0,0.0,0.0,0.0,0.0,0.0,0.0,0.0,0.0,3.0885,3.0077,2.9319,2.9241,2.8958,2.8443,2.8381,2.8089,2.7499,2.7333,2.6833,2.6016,2.5658,2.5511,2.5564,2.5576,2.6324,2.7612,2.6921,2.6616,2.6678,2.7544,2.7953,2.8145,2.8953,2.9737,3.0404,3.0404,3.0404,3.0538,0.0,0.0,0.0,0.0,0.0,0.0,0.0,0.0,0.0,0.0,0.0,0.0,0.0,0.0,0.0,1.9182,1.8924,1.9247,2.0379,2.2008,2.3377,2.4297,2.5383,2.5764,2.5379,0.0,0.0,0.0,0.0,0.0,0.0,3.1471,3.0084,0.0,0.0,0.0,0.0,0.0,2.5489,2.5534,2.5534,2.509,2.4456,2.4456,2.4513,2.4725,2.5961,2.7357,2.9067,3.2272,3.48,3.6999,3.9061,0.0,0.0,0.0,0.0,0.0,0.0,0.0,0.0,0.0,0.0,0.0,0.0,0.0,0.0,0.0,0.0,0.0,0.0,0.0,0.0,0.0,0.0,0.0,0.0,0.0,0.0,0.0,0.0,0.0,0.0,0.0,0.0,0.0,3.0615,3.0019,2.9146,2.8773,2.8434,2.811,2.7726,2.7595,2.7734,2.7177,2.6412,2.5447,2.5357,2.5335,2.5402,2.5359,2.6058,2.721,2.6322,2.6458,2.7351,2.7736,2.8165,2.8665,2.9506,3.0058,3.0404,3.0404,3.0404,3.0519,0.0,0.0,0.0,0.0,0.0,0.0,0.0,0.0,0.0,0.0,0.0,0.0,0.0,0.0,0.0,0.0,1.7626,1.8202,2.0099,2.1534,2.2964,2.4337,2.5116,2.5347,2.502,0.0,0.0,0.0,0.0,0.0,3.5418,3.3954,3.2987,0.0,3.0506,0.0,0.0,0.0,0.0,0.0,0.0,0.0,0.0,0.0,2.5294,2.4929,2.5821,2.6889,2.8281,3.0886,3.3334,3.5652,3.7857,3.926,0.0,0.0,0.0,0.0,0.0,0.0,0.0,0.0,0.0,0.0,0.0,0.0,0.0,0.0,0.0,0.0,0.0,0.0,0.0,0.0,0.0,0.0,0.0,0.0,0.0,0.0,0.0,0.0,0.0,0.0,0.0,0.0,3.0635,3.0019,2.9146,2.8446,2.7974,2.775,2.7026,2.6951,2.7616,2.6895,2.6152,2.539,2.533,2.5336,2.5375,2.5331,2.5919,2.6964,2.6083,2.6538,2.7915,2.8126,2.8569,2.9184,3.0058,3.0404,3.0404,3.0404,3.0404,3.05,0.0,0.0,0.0,0.0,0.0,0.0,0.0,0.0,0.0,0.0,0.0,0.0,0.0,1.6471,1.5392,1.5142,1.4972,1.6188,1.9246,2.083,2.2457,2.4323,2.5116,0.0,2.6369,0.0,0.0,0.0,0.0,0.0,3.5834,3.4551,3.4698,3.5893,3.2626,3.038,2.8989,0.0,0.0,0.0,0.0,0.0,0.0,0.0,0.0,0.0,0.0,0.0,0.0,0.0,0.0,0.0,0.0,0.0,0.0,0.0,0.0,0.0,0.0,0.0,0.0,0.0,0.0,0.0,0.0,0.0,0.0,0.0,0.0,0.0,0.0,0.0,0.0,0.0,0.0,0.0,0.0,0.0,0.0,0.0,0.0,0.0,0.0,0.0,0.0,0.0,3.1308,3.0019,2.9146,2.8396,2.7629,2.6796,2.6063,2.5682,2.5741,2.5623,2.5518,2.539,2.533,2.5308,2.5317,2.5308,2.6236,2.7785,2.6919,2.7049,2.7953,2.8723,2.9069,2.9184,3.0058,3.0404,3.0404,3.0404,3.0404,3.0404,0.0,0.0,0.0,0.0,0.0,0.0,0.0,0.0,0.0,0.0,0.0,0.0,0.0,1.7681,1.6506,1.5392,1.59,1.752,2.0385,2.2749,2.4563,2.5756,2.6842,2.7346,2.7149,0.0,0.0,0.0,0.0,3.323,3.5119,3.4648,3.4405,3.4268,3.3197,3.2643,3.2437,3.119,0.0,0.0,0.0,0.0,0.0,0.0,0.0,0.0,0.0,0.0,0.0,0.0,0.0,0.0,0.0,0.0,0.0,0.0,0.0,0.0,0.0,0.0,0.0,0.0,0.0,0.0,0.0,0.0,0.0,0.0,0.0,0.0,0.0,0.0,0.0,0.0,0.0,0.0,0.0,0.0,0.0,0.0,0.0,0.0,0.0,0.0,0.0,0.0,0.0,3.0128,2.9206,2.8518,2.7707,2.6799,2.6043,2.5637,2.5602,2.552,2.5498,2.5454,2.5398,2.5383,2.5425,2.5376,2.602,2.7135,2.7349,2.8217,2.9481,2.9204,2.9429,2.9967,3.0288,3.0404,3.0404,3.0404,3.075,3.1231,0.0,0.0,0.0,0.0,0.0,0.0,0.0,0.0,0.0,0.0,0.0,0.0,0.0,0.0,1.721,1.5655,1.6715,1.8668,2.1523,2.4077,2.6006,2.7188,2.8248,2.874,2.8551,0.0,0.0,0.0,0.0,0.0,0.0,3.4198,3.3932,3.3512,3.3266,3.3251,0.0,0.0,0.0,3.0469,0.0,0.0,2.8475,0.0,0.0,0.0,0.0,0.0,0.0,0.0,0.0,0.0,0.0,0.0,0.0,0.0,0.0,0.0,0.0,0.0,0.0,0.0,0.0,0.0,0.0,0.0,0.0,0.0,0.0,0.0,0.0,0.0,0.0,0.0,0.0,0.0,0.0,0.0,0.0,0.0,0.0,0.0,0.0,0.0,0.0,0.0,0.0,0.0,3.0121,2.887,2.7616,2.6427,2.592,2.5657,2.5602,2.5556,2.5511,2.5491,2.5459,2.5462,2.5508,2.5735,2.6304,2.7187,2.7966,2.8929,2.9948,2.964,2.988,3.0458,3.0735,3.0857,3.0941,3.1204,3.1683,3.2202,0.0,0.0,0.0,0.0,0.0,0.0,0.0,0.0,0.0,0.0,0.0,0.0,0.0,0.0,0.0,1.5769,1.7149,1.9422,2.2563,2.4611,2.6571,2.8511,2.9205,2.9893,3.0631,0.0,0.0,0.0,0.0,0.0,0.0,0.0,3.3367,3.4094,3.2909,3.2007,3.1453,0.0,3.2124,3.016,0.0,3.0368,2.8979,0.0,0.0,0.0,2.8165,2.8059,0.0,0.0,0.0,0.0,0.0,0.0,0.0,0.0,0.0,0.0,0.0,0.0,0.0,0.0,0.0,0.0,0.0,0.0,0.0,0.0,0.0,0.0,0.0,0.0,0.0,0.0,0.0,0.0,0.0,0.0,0.0,0.0,0.0,0.0,0.0,0.0,0.0,0.0,3.2113,3.1001,3.1863,2.948,2.7327,2.566,2.5603,2.5602,2.5602,2.5602,2.5564,2.5493,2.5493,2.5496,2.5532,2.634,2.7179,2.8042,2.8776,2.9127,2.9209,3.005,3.0441,3.0572,3.1383,3.1792,3.2003,3.2807,3.3149,3.3239,0.0,0.0,0.0,0.0,0.0,0.0,0.0,0.0,0.0,0.0,0.0,0.0,0.0,0.0,1.7424,1.7291,1.8686,2.1056,2.4514,2.6861,2.8895,3.068,3.0871,3.1275,3.196,0.0,0.0,0.0,0.0,0.0,0.0,0.0,0.0,0.0,3.2371,3.1715,3.0701,3.1145,0.0,0.0,3.0058,3.0021,0.0,0.0,0.0,0.0,0.0,2.8563,0.0,0.0,3.1329,3.2181,0.0,0.0,0.0,0.0,0.0,0.0,4.0457,0.0,0.0,0.0,0.0,0.0,0.0,0.0,0.0,0.0,0.0,0.0,0.0,0.0,0.0,0.0,0.0,0.0,0.0,0.0,0.0,0.0,0.0,0.0,0.0,0.0,0.0,0.0,3.2843,3.182,3.197,2.9563,2.7394,2.572,2.5662,2.5658,2.5602,2.5602,2.5597,2.5567,2.5567,2.5601,2.5675,2.6437,2.7252,2.8113,2.8792,2.9494,3.0124,3.0371,3.052,3.0665,3.1518,3.1873,3.1993,3.285,3.3576,3.4137,0.0,0.0,0.0,0.0,0.0,0.0,0.0,0.0,0.0,0.0,0.0,0.0,0.0,0.0,0.0,1.884,2.0189,2.2451,2.5749,2.7954,2.9848,3.1442,3.1771,3.2233,3.2948,0.0,0.0,0.0,0.0,0.0,0.0,0.0,0.0,0.0,0.0,0.0,0.0,0.0,0.0,0.0,3.0192,0.0,0.0,2.9593,2.9515,0.0,0.0,0.0,2.9267,3.0569,3.1897,0.0,0.0,0.0,0.0,0.0,0.0,0.0,0.0,0.0,0.0,0.0,0.0,0.0,4.0857,4.0877,0.0,0.0,0.0,0.0,0.0,0.0,0.0,0.0,0.0,0.0,0.0,0.0,0.0,0.0,0.0,0.0,0.0,3.5723,3.4844,3.5215,3.3359,3.1855,3.1046,2.96,2.8003,2.6309,2.623,2.6054,2.5656,2.5636,2.5636,2.5636,2.5636,2.5856,2.6269,2.7035,2.7839,2.8637,2.9396,3.0047,3.0533,3.0571,3.0812,3.1274,3.2102,3.2694,3.3163,3.4018,3.4668,3.5112,0.0,0.0,0.0,0.0,0.0,0.0,0.0,0.0,0.0,0.0,0.0,0.0,0.0,0.0,0.0,0.0,2.1649,2.3642,2.6523,2.8408,0.0,0.0,0.0,0.0,0.0,0.0,0.0,0.0,0.0,0.0,0.0,0.0,0.0,0.0,0.0,0.0,0.0,0.0,0.0,2.945,3.0845,3.1056,0.0,0.0,3.023,0.0,2.8645,2.881,2.9636,2.9618,3.182,0.0,0.0,0.0,0.0,0.0,3.9675,0.0,0.0,0.0,0.0,0.0,0.0,0.0,4.0842,4.0854,4.065,0.0,0.0,0.0,0.0,0.0,0.0,0.0,0.0,0.0,0.0,0.0,0.0,0.0,0.0,0.0,3.7461,3.5957,3.5273,3.5957,3.3711,3.1523,2.9707,2.9609,2.8848,2.7207,2.7051,2.6621,2.5859,2.5742,2.5703,2.5703,2.5703,2.6152,2.7031,2.7837,2.8618,2.9363,3.0236,3.0609,3.0623,3.0679,3.1226,3.2104,3.2915,3.3833,3.4804,3.5608,3.5948,3.5996,0.0,0.0,0.0,0.0,0.0,0.0,0.0,0.0,0.0,0.0,0.0,0.0,0.0,0.0,0.0,0.0,2.2949,2.487,2.731,2.9465,0.0,0.0,0.0,0.0,0.0,0.0,0.0,0.0,0.0,0.0,0.0,0.0,0.0,0.0,0.0,0.0,0.0,0.0,0.0,2.9536,3.0417,0.0,3.1942,3.1491,3.0956,3.0335,2.9567,2.8999,2.8826,0.0,3.2213,3.4147,0.0,0.0,0.0,0.0,0.0,0.0,0.0,0.0,0.0,0.0,0.0,0.0,4.0114,3.995,3.9708,0.0,0.0,0.0,0.0,0.0,0.0,0.0,0.0,0.0,0.0,0.0,0.0,0.0,0.0,0.0,3.8476,3.7402,3.6562,3.6035,3.4238,3.2129,2.9726,2.9609,2.9121,2.8086,2.7363,2.6914,2.6758,2.6055,2.5703,2.5703,2.5703,2.6152,2.7031,2.7837,2.8657,2.9507,3.0277,3.0638,3.0682,3.0692,3.1276,3.2245,3.3043,3.3905,3.4805,3.5663,3.5995,3.5996,0.0,0.0,0.0,0.0,0.0,0.0,0.0,0.0,0.0,0.0,0.0,0.0,0.0,0.0,0.0,0.0,0.0,0.0,0.0,0.0,0.0,0.0,0.0,0.0,0.0,0.0,0.0,0.0,0.0,0.0,0.0,0.0,0.0,0.0,0.0,0.0,0.0,0.0,3.1462,3.1446,3.0804,0.0,3.0472,3.0205,2.9668,2.9068,2.9083,2.9038,2.9302,3.1661,3.2725,0.0,0.0,3.6217,3.622,0.0,3.7761,3.7335,0.0,0.0,0.0,3.9568,0.0,0.0,0.0,3.9655,3.8998,3.8971,0.0,0.0,0.0,0.0,0.0,0.0,0.0,0.0,0.0,0.0,0.0,0.0,0.0,0.0,3.998,3.832,3.6758,3.5449,3.4141,3.2676,3.0996,3.0488,2.9844,2.8984,2.8516,2.7871,2.7012,2.6562,2.6133,2.5703,2.6133,2.6797,2.7676,2.8512,2.9342,3.0127,3.0557,3.0732,3.0716,3.077,3.1599,3.2832,3.3242,3.4199,3.5391,3.584,3.5996,3.5996,0.0,0.0,0.0,0.0,0.0,0.0,0.0,0.0,0.0,0.0,0.0,0.0,0.0,0.0,0.0,0.0,0.0,0.0,0.0,0.0,0.0,0.0,0.0,3.3766,0.0,3.497,0.0,0.0,0.0,0.0,0.0,0.0,0.0,0.0,0.0,0.0,0.0,0.0,0.0,3.3144,0.0,3.024,2.9531,2.9394,2.892,2.8345,2.8515,2.8832,2.9595,3.2155,0.0,3.2617,3.4955,3.5578,0.0,0.0,0.0,0.0,0.0,0.0,0.0,0.0,0.0,3.8743,0.0,0.0,0.0,3.8896,0.0,0.0,0.0,0.0,0.0,0.0,0.0,0.0,0.0,0.0,0.0,0.0,0.0,0.0,0.0,3.9238,3.7012,3.5098,3.4141,3.3223,3.2246,3.1367,3.0586,2.9863,2.9687,2.8926,2.7519,2.7324,2.6894,2.6211,2.6914,2.7715,2.8574,2.9277,3.0017,3.0745,3.0858,3.0935,3.0981,3.0916,3.1992,3.3633,3.3476,3.4473,3.5996,3.5996,3.5996,3.5996,3.7922,3.8425,0.0,0.0,0.0,0.0,0.0,0.0,0.0,0.0,0.0,0.0,0.0,0.0,0.0,0.0,0.0,0.0,2.9197,0.0,0.0,0.0,0.0,0.0,3.4633,3.6305,0.0,0.0,0.0,0.0,0.0,0.0,0.0,0.0,3.3264,0.0,0.0,0.0,3.2409,0.0,3.1718,3.2015,0.0,3.2275,3.1612,3.0738,2.91,2.821,2.8142,0.0,3.0804,3.1225,0.0,3.4447,0.0,0.0,0.0,0.0,0.0,0.0,0.0,0.0,3.804,0.0,0.0,0.0,3.7121,3.7057,0.0,0.0,0.0,0.0,0.0,0.0,0.0,0.0,0.0,0.0,0.0,0.0,0.0,0.0,0.0,4.0644,3.8555,3.6035,3.5039,3.3867,3.2285,3.1367,3.0859,3.0762,3.0,2.9492,2.9316,2.8535,2.8105,2.8008,2.8105,2.8613,2.9453,2.9551,3.0078,3.0879,3.0898,3.1328,3.1972,3.1211,3.2344,3.4473,3.3691,3.4473,3.5996,3.5996,3.5996,3.5996,3.8041,3.8836,0.0,0.0,0.0,0.0,0.0,0.0,0.0,0.0,0.0,0.0,0.0,0.0,0.0,0.0,0.0,2.8581,0.0,0.0,0.0,0.0,0.0,0.0,0.0,0.0,0.0,0.0,3.7466,0.0,0.0,0.0,0.0,0.0,3.5067,0.0,3.507,0.0,0.0,0.0,0.0,0.0,0.0,3.1553,3.0502,3.0127,2.9314,2.8857,2.8834,0.0,3.0432,0.0,0.0,0.0,0.0,0.0,0.0,0.0,0.0,0.0,0.0,0.0,0.0,0.0,3.7585,0.0,3.644,0.0,0.0,0.0,0.0,0.0,0.0,0.0,4.2318,0.0,0.0,0.0,0.0,0.0,0.0,0.0,0.0,0.0,0.0,0.0,3.5957,3.4922,3.3711,3.2812,3.2344,3.2344,3.1543,3.0879,3.0351,2.9492,2.8788,2.8252,2.8788,2.9237,2.9561,3.0116,3.0547,3.0898,3.0898,3.1387,3.2168,3.1816,3.2851,3.4668,3.4297,3.5215,3.6758,3.6758,3.707,3.7519,3.8616,0.0,0.0,0.0,0.0,0.0,3.6446,3.4515,3.3018,0.0,0.0,0.0,2.9423,2.9354,0.0,0.0,2.9219,2.9731,0.0,0.0,3.2498,0.0,0.0,0.0,0.0,0.0,0.0,0.0,0.0,0.0,0.0,0.0,0.0,0.0,0.0,3.6302,3.606,0.0,0.0,3.5188,3.3874,3.3453,3.3339,3.1057,2.9967,2.9651,2.9651,2.954,2.9509,3.0209,3.038,0.0,3.1647,0.0,0.0,0.0,0.0,0.0,3.4878,0.0,0.0,0.0,0.0,0.0,0.0,0.0,0.0,0.0,0.0,0.0,0.0,0.0,0.0,0.0,0.0,0.0,0.0,0.0,0.0,0.0,0.0,0.0,0.0,0.0,0.0,3.8141,3.6952,3.5879,3.4766,3.3867,3.3398,3.3398,3.2832,3.2226,3.1582,3.0742,2.9958,2.9249,2.9724,2.9918,2.9856,3.0564,3.0898,3.0918,3.1152,3.1738,3.2539,3.2539,3.3535,3.5039,3.4785,3.5918,3.7637,3.7383,3.7695,3.8281,4.0028,4.0079,0.0,0.0,0.0,0.0,3.5765,3.3885,3.2621,0.0,0.0,0.0,0.0,0.0,0.0,0.0,0.0,3.1308,3.1336,0.0,3.2839,0.0,0.0,3.7102,0.0,0.0,0.0,0.0,0.0,0.0,0.0,0.0,0.0,0.0,0.0,3.679,3.7339,3.5828,3.4936,3.4447,3.3444,3.2316,3.1376,0.0,3.1399,3.0272,3.0272,0.0,0.0,3.0097,3.0288,0.0,0.0,0.0,0.0,0.0,0.0,0.0,0.0,0.0,0.0,3.5333,0.0,0.0,0.0,0.0,3.5896,0.0,0.0,0.0,0.0,0.0,0.0,0.0,0.0,0.0,0.0,0.0,0.0,0.0,0.0,0.0,0.0,0.0,0.0,3.9815,3.8157,3.6504,3.4785,3.3867,3.3398,3.3398,3.3379,3.3359,3.332,3.2519,3.2047,3.1868,3.1189,3.0797,3.0677,3.0837,3.0898,3.0957,3.1797,3.2617,3.3359,3.3359,3.4394,3.5879,3.5039,3.6289,3.8457,3.7617,3.7324,3.7461,0.0,0.0,0.0,0.0,0.0,3.7265,3.5733,3.4704,0.0,0.0,0.0,0.0,0.0,3.3133,3.2851,0.0,0.0,3.1886,3.1785,3.2799,0.0,0.0,0.0,3.781,0.0,0.0,0.0,0.0,0.0,0.0,0.0,0.0,0.0,0.0,0.0,3.7316,0.0,0.0,0.0,0.0,0.0,3.2979,3.234,0.0,0.0,3.0898,3.0898,3.076,0.0,3.0372,3.0576,3.0898,3.0831,3.1268,3.1793,3.1694,3.2089,0.0,0.0,0.0,3.3394,3.4127,0.0,0.0,0.0,0.0,0.0,0.0,0.0,0.0,0.0,0.0,0.0,0.0,0.0,0.0,0.0,0.0,0.0,0.0,0.0,0.0,0.0,0.0,0.0,3.9786,3.8649,3.729,3.559,3.6345,3.6309,3.5156,3.5117,3.4844,3.4277,3.2891,3.2126,3.1986,3.1247,3.0836,3.0716,3.1443,3.1758,3.1816,3.2637,3.3476,3.4258,3.4258,3.4941,3.6035,3.6309,3.6953,3.7773,3.8066,3.8887,3.9922,3.9952,0.0,0.0,0.0,0.0,0.0,0.0,0.0,0.0,0.0,3.4902,0.0,3.5034,0.0,3.4109,0.0,3.3475,3.2922,3.2879,3.3519,0.0,3.5155,3.6856,0.0,0.0,0.0,0.0,0.0,0.0,3.9371,0.0,0.0,0.0,0.0,0.0,0.0,0.0,0.0,3.6132,0.0,0.0,3.3319,0.0,0.0,3.1752,3.1824,0.0,3.1373,3.0963,3.0566,3.0617,3.0692,3.0055,3.0458,3.1107,3.0645,3.0926,3.1366,3.1345,3.1763,0.0,3.3097,3.363,0.0,3.4954,0.0,0.0,0.0,0.0,0.0,0.0,0.0,0.0,0.0,0.0,0.0,0.0,0.0,0.0,0.0,0.0,0.0,0.0,0.0,4.1898,4.0524,3.9457,3.8264,0.0,0.0,3.8086,3.6953,3.6621,3.6191,3.5625,3.3633,3.2575,3.2455,3.1403,3.0836,3.0735,3.1736,3.2207,3.2266,3.3379,3.418,3.4726,3.5039,3.5488,3.6094,3.6953,3.748,3.7871,3.873,3.9961,4.1191,0.0,0.0,0.0,0.0,3.8821,0.0,0.0,0.0,3.584,0.0,3.5495,3.5491,3.4701,3.4556,3.4754,3.5297,3.4699,0.0,3.4436,3.4739,0.0,0.0,3.6886,3.8161,3.8935,0.0,0.0,0.0,0.0,0.0,0.0,0.0,0.0,0.0,3.924,0.0,3.6684,3.6636,3.5949,3.4818,3.4072,3.331,3.264,3.2586,3.2774,3.301,3.2596,3.1703,3.0734,3.0682,3.0451,3.0029,2.9285,2.9556,3.0164,3.0141,3.0145,3.0342,3.1047,3.1644,3.208,3.2192,0.0,0.0,0.0,0.0,3.4452,0.0,0.0,0.0,0.0,0.0,0.0,0.0,0.0,0.0,0.0,0.0,0.0,0.0,0.0,0.0,0.0,4.4097,4.2783,4.1964,4.0579,3.9347,0.0,0.0,3.873,3.8594,3.7793,3.7344,3.7305,3.4746,3.3435,3.3356,3.1736,3.0915,3.0875,3.1814,3.2285,3.2402,3.4043,3.4785,3.4883,3.5723,3.6094,3.6211,3.709,3.7969,3.8828,3.9668,4.0488,4.1191,3.9952,4.0527,4.0744,0.0,3.8816,3.7646,0.0,0.0,0.0,0.0,3.7756,3.8157,3.7445,3.6678,3.6071,3.5764,3.4841,0.0,0.0,0.0,0.0,3.6182,3.7247,3.8353,3.9529,4.0127,0.0,4.185,0.0,0.0,4.0781,0.0,0.0,0.0,0.0,0.0,3.6434,3.7019,3.6739,3.5842,3.499,3.47,0.0,0.0,3.3668,3.376,3.2178,3.1411,3.1049,3.0454,3.0582,3.085,3.0065,3.0361,3.076,2.9647,2.9525,2.9673,2.9274,2.9616,3.0271,3.0884,3.147,3.2081,0.0,0.0,0.0,0.0,0.0,0.0,0.0,0.0,0.0,0.0,0.0,0.0,0.0,0.0,0.0,0.0,0.0,0.0,0.0,4.3519,4.21,4.1976,4.1017,3.9852,0.0,0.0,0.0,3.8652,3.8379,3.7969,3.7305,3.5351,3.4355,3.4315,3.2656,3.2168,3.2713,3.2968,3.3457,3.4121,3.5195,3.6035,3.6641,3.6875,3.7344,3.8027,3.8887,3.9766,4.0566,4.0781,4.1016,4.1191,4.0297,0.0,0.0,4.1554,0.0,0.0,3.8231,0.0,0.0,3.7449,3.8317,0.0,3.7659,3.7024,3.6547,3.621,3.5329,0.0,3.557,0.0,0.0,3.6569,3.6742,3.7476,3.8914,3.9275,0.0,4.1302,0.0,0.0,4.0561,0.0,0.0,0.0,0.0,3.7991,0.0,3.6942,3.6707,3.6211,3.5353,0.0,0.0,3.4169,3.3913,3.3847,3.1996,3.1249,3.1008,3.0157,3.0074,3.0168,2.9392,2.9675,3.0092,2.9045,2.89,2.9016,2.8747,2.9023,2.9506,2.9963,3.0407,3.0897,3.1618,3.1922,3.225,0.0,0.0,0.0,0.0,0.0,0.0,0.0,0.0,0.0,0.0,0.0,0.0,0.0,0.0,0.0,0.0,4.3004,4.1629,4.2418,4.1393,0.0,0.0,0.0,0.0,3.9698,3.9641,3.9078,3.7871,3.6523,3.5449,3.4687,3.3359,3.2969,3.3418,3.3789,3.4238,3.4766,3.6016,3.6855,3.7324,3.7715,3.8164,3.8691,3.9551,4.043,4.1191,4.1191,4.1191,4.1191,0.0,0.0,0.0,0.0,0.0,0.0,0.0,3.8974,0.0,3.7805,0.0,3.8213,3.6962,3.6727,3.6649,3.6658,0.0,3.5809,3.6463,3.5884,3.5782,3.6415,3.5981,3.6419,3.7873,3.7794,0.0,0.0,0.0,0.0,0.0,0.0,0.0,0.0,0.0,0.0,0.0,3.6758,3.6395,0.0,3.5481,3.5124,3.4982,3.4114,3.3842,3.3718,3.217,3.1331,3.0822,2.9901,2.9404,2.9105,2.851,2.8719,2.913,2.8784,2.8582,2.8552,2.8917,2.9178,2.9351,2.9351,2.9513,2.984,3.0565,3.0762,3.1007,3.1779,3.2027,3.2508,0.0,0.0,0.0,0.0,0.0,0.0,0.0,0.0,0.0,0.0,0.0,0.0,0.0,0.0,4.1756,4.3173,4.2026,0.0,0.0,0.0,0.0,4.1209,4.1053,4.0391,3.9101,0.0,3.6601,3.5195,3.4101,3.3633,3.3769,3.4512,3.4922,3.5137,3.6758,3.7539,3.7695,3.8457,3.8848,3.9023,3.9766,4.0605,4.1367,4.1367,4.1426,4.1504,0.0,0.0,0.0,0.0,0.0,4.2821,4.2533,4.1356,4.023,3.9549,3.9945,3.9819,3.8539,3.7795,3.7452,3.7545,3.6288,0.0,0.0,0.0,0.0,3.5701,3.6167,3.7067,3.8426,3.8489,3.9697,0.0,0.0,0.0,0.0,0.0,0.0,0.0,0.0,0.0,3.7492,3.7345,0.0,3.6285,3.6138,3.5804,3.5286,3.4221,3.4099,3.4384,3.3161,3.2108,3.1127,2.9865,2.9835,3.0335,3.0435,3.0397,3.0302,3.0242,2.9595,2.8917,2.8982,2.9021,2.9067,2.9067,2.9267,2.9431,2.9377,2.9524,2.9851,3.0431,3.056,3.1406,3.4074,0.0,0.0,0.0,0.0,0.0,0.0,0.0,0.0,0.0,0.0,0.0,0.0,0.0,0.0,0.0,0.0,0.0,0.0,0.0,0.0,0.0,4.1363,0.0,0.0,0.0,3.7519,3.7891,3.5586,3.4844,3.5547,3.5703,3.6152,3.6894,3.793,3.8789,3.9453,3.9609,4.0098,4.0762,4.0918,4.1465,4.2187,4.2187,4.2637,4.3164,0.0,0.0,0.0,0.0,0.0,0.0,0.0,4.2038,0.0,4.0007,3.9473,3.8948,3.8368,3.7933,3.7731,3.778,3.7115,3.6829,3.7189,3.6874,3.6692,3.6692,3.629,0.0,3.8163,3.7344,3.8348,4.1205,0.0,0.0,0.0,0.0,0.0,0.0,0.0,3.8166,0.0,0.0,0.0,3.7267,3.6441,3.5929,3.5604,3.4624,3.4461,3.4561,3.3563,3.2874,3.2272,3.122,3.0837,3.0828,3.0959,3.0913,3.0704,3.0144,2.9917,2.971,2.9143,2.9005,2.9005,2.9005,2.91,2.9167,2.904,2.91,2.9278,2.9517,2.9574,3.0505,3.3514,3.6382,0.0,0.0,0.0,0.0,0.0,0.0,0.0,0.0,0.0,0.0,0.0,0.0,0.0,0.0,0.0,0.0,0.0,0.0,0.0,0.0,0.0,0.0,0.0,0.0,0.0,3.7802,3.7069,3.6719,3.6699,3.7148,3.7578,3.8027,3.8906,3.9512,3.9941,4.0391,4.082,4.123,4.166,4.2051,4.2441,4.291,4.334,4.3633,0.0,4.4164,0.0,0.0,4.3826,0.0,4.3172,4.2066,4.0933,4.0252,3.9068,3.829,3.829,3.8149,3.8092,3.8262,3.785,3.7703,3.8019,3.7748,3.7569,3.7569,3.6605,3.653,3.7544,3.6279,3.6822,0.0,0.0,0.0,0.0,0.0,0.0,0.0,0.0,0.0,0.0,0.0,3.7427,3.7917,3.6478,3.583,3.5642,3.496,3.4764,3.4775,3.4027,3.3799,3.3759,3.3104,3.2083,3.114,3.156,3.1402,3.0918,3.0207,3.0285,3.0379,2.928,2.9005,2.9005,2.9005,2.9005,2.9005,2.9005,2.9005,2.9005,2.9005,2.9229,3.0251,3.2996,3.5681,0.0,0.0,0.0,0.0,0.0,0.0,0.0,0.0,0.0,0.0,0.0,0.0,0.0,0.0,0.0,0.0,0.0,0.0,0.0,0.0,0.0,4.185,4.0779,0.0,3.9745,3.7888,3.8347,3.8201,3.7557,3.8476,3.8887,3.8926,3.998,4.0547,4.0742,4.125,4.1562,4.1777,4.2226,4.2637,4.3047,4.3711,4.4082,4.4258,0.0,0.0,0.0,0.0,0.0,0.0,4.2506,4.1728,4.1169,4.1088,4.0381,3.9876,3.9876,3.9236,3.9086,3.9825,3.8008,3.7371,3.8696,3.7563,3.6789,3.6789,3.732,3.7355,3.6805,3.665,3.6973,0.0,0.0,0.0,0.0,0.0,0.0,0.0,0.0,0.0,0.0,3.8112,3.7781,3.7128,3.6249,3.5618,3.5139,3.4821,3.4999,3.5391,3.507,3.5108,3.5297,3.5228,3.3432,3.1573,3.3343,3.2685,3.137,3.1814,3.1297,3.0379,2.928,2.9005,2.9005,2.9005,2.9005,2.9005,2.9005,2.9005,2.9005,2.9005,2.9971,3.1355,3.3167,3.4229,3.5613,0.0,0.0,0.0,0.0,0.0,0.0,0.0,0.0,0.0,0.0,4.2507,0.0,0.0,0.0,0.0,0.0,0.0,0.0,4.3194,0.0,4.3592,4.4226,4.1241,3.9972,4.0443,3.9078,3.8383,3.8326,3.9332,3.9785,3.9863,4.1465,4.2617,4.3281,4.2578,4.2754,4.3398,4.2676,4.3379,4.4766,4.4844,4.5371,4.6055,0.0,0.0,0.0,0.0,0.0,0.0,0.0,4.1281,4.104,4.104,4.0474,4.0096,4.0096,3.9421,3.9076,3.9428,3.8204,3.7659,3.8254,3.776,3.7424,3.7424,3.7255,3.7229,3.7402,3.6833,3.706,0.0,0.0,0.0,0.0,0.0,0.0,0.0,0.0,3.8614,3.8566,3.7878,3.7478,3.729,3.663,3.5957,3.5339,3.5215,3.5312,3.5493,3.5376,3.5417,3.55,3.55,3.4402,3.3177,3.3955,3.3678,3.286,3.1938,3.1606,3.1212,2.9665,2.9123,2.9005,2.9005,2.9005,2.9005,2.9005,2.9005,2.9005,2.9005,3.0315,3.1739,3.2562,3.4347,3.592,0.0,0.0,0.0,0.0,0.0,0.0,0.0,0.0,0.0,0.0,0.0,4.2715,0.0,0.0,0.0,0.0,0.0,0.0,4.3408,0.0,4.2246,4.3066,4.1193,4.016,3.9966,3.9967,3.9685,3.9218,4.0211,4.0937,4.1465,4.2656,4.3379,4.3672,4.332,4.3398,4.3711,4.3887,4.4394,4.5058,4.5586,4.5996,4.6308,4.3494,0.0,4.2844,0.0,4.1681,4.1367,4.1146,4.1142,4.1178,4.1178,4.0844,4.0594,4.0594,3.9918,3.9472,3.9472,3.8574,3.8111,3.8334,3.8145,3.7922,3.7677,3.7343,0.0,3.7295,3.6622,3.6771,3.784,3.9024,0.0,0.0,0.0,0.0,0.0,3.8328,3.8474,3.8659,3.757,3.7248,3.7431,3.6569,3.5931,3.55,3.55,3.55,3.55,3.55,3.55,3.55,3.55,3.5084,3.4584,3.4584,3.4417,3.3865,3.2187,3.1933,3.1789,2.9903,2.9192,2.9005,2.9005,2.9005,2.9005,2.9005,2.9005,2.9078,2.9299,3.0476,3.164,3.2314,3.4459,3.6151,3.6217,0.0,0.0,0.0,0.0,0.0,0.0,0.0,3.8765,3.8901,4.0741,0.0,0.0,0.0,0.0,0.0,0.0,0.0,0.0,0.0,0.0,0.0,4.1319,4.0475,4.0163,4.096,4.1018,4.0508,4.1481,4.2363,4.3141,4.3808,4.4238,4.4433,4.4199,4.4238,4.4492,4.4863,4.5156,4.5469,4.6074,4.6308,4.6289,4.3392,4.2811,4.2066,4.1339,4.1704,4.1808,4.1018,4.1402,4.1789,4.1789,4.1771,4.1789,4.1789,4.1057,4.0577,4.0577,3.9181,3.8598,3.9338,3.8704,3.7945,0.0,0.0,3.7461,3.5966,3.591,3.5965,3.6023,0.0,0.0,3.6895,0.0,3.9071,3.7599,3.9439,3.9383,3.7889,3.7325,3.7248,3.7356,3.5763,3.5273,3.55,3.55,3.55,3.55,3.55,3.55,3.55,3.55,3.5481,3.5481,3.5481,3.4891,3.398,3.2901,3.2397,3.1789,2.9903,2.9192,2.9005,2.9005,2.9005,2.9005,2.9005,2.9005,2.9225,3.0026,3.0405,3.1097,3.2702,3.4211,3.5771,3.7415,0.0,0.0,0.0,0.0,0.0,0.0,4.1117,4.1568,3.9854,0.0,0.0,0.0,0.0,0.0,0.0,0.0,0.0,4.3435,4.3244,0.0,4.4267,4.1766,4.0998,4.1975,4.2053,4.2143,4.2307,4.3238,4.4076,4.4784,4.4918,4.5469,4.6191,4.5332,4.5488,4.6172,4.5332,4.5527,4.6289,4.6308,4.6308,4.6289,4.2016,4.1711,4.1418,4.1074,4.116,4.1337,4.1481,4.2038,4.2402,4.2402,4.2733,4.2759,4.2196,4.0781,3.9843,0.0,3.8447,3.7651,0.0,3.7686,3.7456,3.7171,3.6833,3.6408,3.5914,3.5722,3.5912,3.6466,0.0,0.0,0.0,3.9596,3.9053,3.7544,3.8122,3.7796,3.6773,3.6255,3.6054,3.6073,3.5381,3.5147,3.5258,3.5432,3.55,3.55,3.55,3.55,3.55,3.55,3.55,3.5479,3.5289,3.517,3.4876,3.3746,3.2845,3.1911,3.0576,2.9617,2.9005,2.9005,2.9005,2.9005,2.9005,2.9005,2.9225,3.0026,3.0698,3.154,3.2769,3.4466,3.5901,3.6627,3.7509,0.0,0.0,0.0,0.0,0.0,3.9565,3.9411,0.0,4.08,0.0,0.0,0.0,0.0,0.0,0.0,0.0,0.0,4.3588,0.0,4.4278,4.3002,4.2499,4.282,4.3031,4.3168,4.3277,4.4179,4.4706,4.4977,4.5605,4.6035,4.6289,4.5996,4.6055,4.6269,4.5996,4.6055,4.6289,4.62,4.6152,4.6145,4.134,4.1138,4.0988,4.0662,4.0967,4.138,4.1729,4.2482,4.2995,4.2995,4.303,4.2855,4.2359,4.0709,0.0,3.966,3.8492,3.7773,3.7773,3.7773,3.763,3.7325,3.6499,3.6227,3.6644,3.5572,0.0,3.7301,3.7845,3.835,3.885,3.885,3.8257,3.7202,3.7202,3.6854,3.6262,3.5581,3.5379,3.5465,3.4955,3.4907,3.5113,3.5289,3.5354,3.5361,3.5453,3.5369,3.5215,3.5312,3.5289,3.5174,3.4999,3.5051,3.5002,3.3944,3.31,3.2217,3.0945,3.0035,2.9372,2.9078,2.9005,2.9005,2.9005,2.9225,2.9684,3.0485,3.1292,3.2287,3.368,3.5281,3.6678,3.7584,3.8402,3.9238,4.0123,0.0,0.0,0.0,0.0,0.0,0.0,4.1952,4.2558,0.0,0.0,0.0,0.0,0.0,0.0,4.4708,4.3995,0.0,4.487,4.3756,4.3408,4.3801,4.4012,4.4285,4.4623,4.5214,4.5468,4.5443,4.6035,4.6308,4.6308,4.6308,4.6308,4.6308,4.6308,4.6268,4.6203,4.612,4.6075,4.6018,4.1359,4.1081,4.0827,0.0,4.1168,0.0,4.1916,4.281,4.3515,4.3515,4.28,4.2286,4.2213,4.0818,3.9879,3.9808,0.0,0.0,0.0,3.8707,3.8374,3.7647,3.6824,3.6879,3.7908,3.5559,3.557,3.8132,3.7431,3.7099,3.7099,3.7099,3.6944,3.664,3.664,3.6459,3.6107,3.5312,3.5151,3.5336,3.4582,3.4595,3.5079,3.5096,3.5088,3.5105,3.5361,3.5122,3.4734,3.4981,3.4908,3.4713,3.4674,3.4674,3.4533,3.3701,3.3243,3.2672,3.115,3.0512,3.0099,2.9354,2.9115,2.9078,2.9078,2.9689,3.0466,3.1268,3.2077,3.3234,3.5174,3.6509,3.7931,3.9805,4.0386,4.0873,4.17,0.0,0.0,0.0,0.0,0.0,0.0,4.4838,4.4258,0.0,0.0,0.0,0.0,0.0,4.5529,4.4723,4.4503,4.4843,4.5796,4.4201,4.3903,4.4903,4.5035,4.5445,4.6117,4.6247,4.6226,4.6117,4.6247,4.6308,4.6308,4.6308,4.6289,4.6289,4.6289,4.6201,4.6082,4.6077,4.5992,4.5872,0.0,0.0,4.1686,4.2035,4.232,4.2617,4.3032,4.3321,4.3515,4.3515,4.28,4.2066,4.1444,4.0506,3.9643,3.9038,3.8817,3.8707,3.8707,3.8707,3.8715,3.8734,3.7949,3.7766,3.8282,3.6448,3.583,3.6465,3.6884,3.7099,3.7099,3.7099,3.6738,3.6092,3.6092,3.5577,3.4705,3.4738,3.4674,3.4533,3.4772,3.4851,3.4832,3.5016,3.4972,3.4793,3.487,3.4822,3.4704,3.4764,3.4744,3.4653,3.4401,3.4478,3.4615,3.4154,3.3519,3.2869,3.2293,3.1618,3.1072,3.087,3.0375,2.9922,2.9922,3.0224,3.0716,3.1533,3.2521,3.374,3.5488,3.7278,3.8842,3.9919,4.0875,4.1566,4.1769,4.147,0.0,0.0,4.2797,4.3325,4.3901,4.3984,4.4101,0.0,0.0,0.0,0.0,4.5657,4.5529,4.4723,4.5182,4.5562,4.5803,4.5538,4.5599,4.5955,4.5976,4.6074,4.6248,4.6289,4.6289,4.6248,4.6289,4.6308,4.6308,4.6308,4.6246,4.6147,4.6147,4.6072,4.5948,4.5896,4.585,4.5815,4.1853,4.2021,4.2223,4.2282,4.2519,4.2807,4.3087,4.3339,4.3515,4.3515,4.2488,4.1589,4.115,4.0047,3.9184,3.8744,3.8707,3.8707,3.8707,3.88,3.8947,3.9099,3.8484,3.8451,3.9166,3.7146,3.596,3.5719,3.6139,3.6368,3.6368,3.6368,3.6065,3.5524,3.5524,3.5111,3.4434,3.4632,3.4582,3.4456,3.4793,3.4908,3.4908,3.5034,3.4935,3.4724,3.4972,3.4725,3.4337,3.4612,3.4612,3.4434,3.4265,3.4423,3.4663,3.4467,3.4005,3.3438,3.2926,3.236,3.177,3.1035,3.0522,3.0227,3.0353,3.0779,3.1406,3.2345,3.3597,3.4972,3.6397,3.8204,3.989,4.1253,4.1999,4.2527,4.2893,4.2624,0.0,4.3216,4.3704,4.4228,4.4823,4.4883,4.4922,4.498,4.5371,0.0,4.5506,4.5819,4.5756,4.5257,4.5611,4.5832,4.5944,4.6104,4.6225,4.6308,4.6308,4.6308,4.6308,4.6308,4.6308,4.6308,4.6308,4.6308,4.6308,4.6308,4.6223,4.6108,4.6108,4.6001,4.5839,4.5815,4.5768,4.5692,4.2165,4.2462,4.2674,4.2144,4.2482,4.2826,4.2826,4.3214,4.3513,4.3563,4.2184,4.1206,4.1251,3.981,3.8833,3.8833,3.8833,3.8803,3.8762,3.8901,3.9055,3.9238,3.8618,3.8797,3.9938,3.7608,3.6085,3.55,3.55,3.55,3.55,3.55,3.5376,3.5147,3.5147,3.5008,3.4754,3.4793,3.4812,3.4754,3.4793,3.4935,3.5105,3.5105,3.4935,3.4754,3.5215,3.4765,3.4018,3.4537,3.4518,3.4288,3.4288,3.4489,3.4754,3.4754,3.4572,3.4177,3.3441,3.3084,3.2582,3.1229,3.0787,3.0738,3.0974,3.158,3.2395,3.345,3.4917,3.6426,3.7781,3.9307,4.1005,4.2964,4.3278,4.3525,4.4232,0.0,4.3657,4.4623,4.4842,4.5276,4.621,4.6308,4.5996,4.5254,4.5859,4.5889,4.5004,4.5655,4.6014,4.5903,4.585,4.5939,4.614,4.6247,4.6308,4.6308,4.6308,4.6289,4.6268,4.6268,4.6268,4.6246,4.6246,4.6246,4.6246,4.6246,4.617,4.6059,4.6059,4.5948,4.5782,4.5782,4.5692,4.5614,4.3249,4.3303,4.3357,4.3249,4.3303,4.3375,4.3375,4.3444,4.3614,4.3896,4.2515,4.1628,4.1918,4.0459,3.9457,3.9457,3.9457,3.9333,3.9063,3.8646,3.8886,3.9903,3.846,3.821,3.9404,3.7598,3.626,3.55,3.55,3.55,3.55,3.55,3.5486,3.5439,3.5439,3.5289,3.5043,3.5281,3.5258,3.5062,3.5289,3.5273,3.5105,3.5105,3.4935,3.4704,3.4784,3.4714,3.458,3.4663,3.4663,3.4632,3.4632,3.4813,3.5044,3.5044,3.4999,3.4869,3.4524,3.4413,3.4306,3.4062,3.3443,3.2909,3.2967,3.324,3.3758,3.4649,3.5755,3.7291,3.9615,4.0872,4.2102,4.3835,4.4105,4.419,4.4446,0.0,4.4433,4.4816,4.5472,4.5986,4.6269,4.6308,4.623,4.6113,4.6121,4.6019,4.5737,4.5808,4.5864,4.5899,4.6008,4.6115,4.6268,4.6289,4.6308,4.6308,4.6308,4.6246,4.612,4.612,4.6075,4.5971,4.5971,4.5971,4.5971,4.5971,4.5924,4.5858,4.5858,4.5756,4.5627,4.5627,4.562,4.571,4.3515,4.3515,4.3515,4.3515,4.3515,4.3546,4.3742,4.3756,4.3896,4.4261,4.2897,4.1918,4.2084,4.0599,3.9599,3.9599,3.9765,3.9608,3.8992,3.8712,3.8829,3.9376,3.8348,3.7813,3.7911,3.7123,3.6308,3.55,3.55,3.55,3.55,3.55,3.55,3.55,3.55,3.5432,3.532,3.5446,3.5432,3.5339,3.5446,3.5432,3.5312,3.5312,3.5138,3.4935,3.5079,3.4944,3.4714,3.487,3.4917,3.4917,3.4917,3.5096,3.5312,3.5312,3.5215,3.5034,3.4764,3.4694,3.4581,3.4129,3.3705,3.345,3.3587,3.408,3.477,3.5753,3.711,3.8584,4.0208,4.1604,4.2914,4.4206,4.48,0.0,0.0,4.5253,4.5321,4.5516,4.5876,4.6149,4.6289,4.6308,4.6308,4.6308,4.6174,4.6042,4.5907,4.5867,4.5881,4.5899,4.6108,4.6201,4.6199,4.6199,4.6168,4.6082,4.6082,4.6047,4.5992,4.5992,4.5967,4.5899,4.5899,4.5899,4.5899,4.5899,4.5866,4.5803,4.5803,4.5723,4.5594,4.5594,4.5594,4.5729,4.3597,4.3546,4.3515,4.3515,4.3515,4.3595,4.3955,4.4001,4.4175,4.4657,4.3238,4.2222,4.2322,4.0816,3.981,3.981,4.0043,3.9918,3.924,3.8839,3.8601,3.8601,3.8031,3.7296,3.6442,3.6423,3.6115,3.55,3.55,3.55,3.55,3.55,3.55,3.55,3.55,3.55,3.55,3.55,3.55,3.55,3.55,3.55,3.55,3.55,3.5369,3.5215,3.5432,3.525,3.4917,3.5122,3.5198,3.5198,3.5198,3.5327,3.55,3.55,3.5361,3.5138,3.4944,3.4889,3.4727,3.4063,3.3882,3.3983,3.4377,3.4982,3.5825,3.7055,3.8527,3.99,4.092,4.2383,4.374,4.466,0.0,0.0,0.0,4.5959,4.5995,4.612,4.6147,4.6198,4.6289,4.6308,4.6308,4.6308,4.6147,4.6001,4.5903,4.5867,4.5857,4.5899,4.615,4.6245,4.611,4.6108,4.6036,4.5899,4.5899,4.5885,4.5877,4.5877,4.5862,4.5831,4.5831,4.5831,4.5831,4.5831,4.5801,4.5754,4.5754,4.5685,4.5594,4.5594,4.5594,4.5748,4.3893,4.371,4.3515,4.3515,4.3515,4.3595,4.3955,4.4001,4.4261,4.4966,4.3547,4.2611,4.2989,4.1467,4.043,4.043,4.0465,4.0434,4.0377,3.8927,3.8062,3.8062,3.7243,3.6423,3.5615,3.5596,3.5558,3.55,3.55,3.55,3.55,3.55,3.55,3.55,3.55,3.55,3.55,3.55,3.55,3.55,3.55,3.55,3.55,3.55,3.5493,3.546,3.5493,3.546,3.5439,3.5453,3.546,3.546,3.546,3.5486,3.55,3.55,3.5493,3.5479,3.5446,3.5439,3.542,3.5369,3.535,3.5542,3.6306,3.6543,3.707,3.8757,3.9804,4.092,4.2604,4.3711,4.4686,4.5564,0.0,0.0,4.6075,4.6082,4.6142,4.6268,4.6289,4.6289,4.6308,4.6308,4.6308,4.6308,4.605,4.5907,4.5899,4.571,4.5701,4.5894,4.615,4.6245,4.611,4.6108,4.6036,4.5899,4.5899,4.5876,4.5822,4.5822,4.5747,4.5627,4.5627,4.5627,4.5627,4.5627,4.561,4.562,4.562,4.5612,4.5594,4.5594,4.5594,4.5825,4.435,4.4266,4.4165,4.4165,4.4165,4.4107,4.3914,4.3888,4.3874,4.3858,4.2812,4.2119,4.228,4.1219,4.0496,4.0496,4.0496,4.0285,3.9785,3.8642,3.7546,3.6481,3.6135,3.5808,3.5519,3.55,3.55,3.55,3.55,3.55,3.55,3.55,3.55,3.55,3.55,3.55,3.55,3.55,3.55,3.55,3.55,3.55,3.55,3.55,3.55,3.55,3.55,3.55,3.55,3.55,3.55,3.55,3.55,3.5846,3.6231,3.6231,3.5885,3.5615,3.6115,3.5885,3.55,3.55,3.5885,3.6327,3.6635,3.7546,3.8642,3.9804,4.0774,4.1957,4.365,4.4335,4.4929,4.5831,0.0,4.6075,4.6201,4.6224,4.6247,4.6289,4.6308,4.6308,4.6308,4.6308,4.6268,4.6177,4.5998,4.5886,4.5842,4.5769,4.577,4.5894,4.608,4.6149,4.6108,4.6027,4.5927,4.583,4.5751,4.5699,4.568,4.568,4.5651,4.5594,4.5594,4.5594,4.5594,4.5594,4.5594,4.5594,4.5594,4.5594,4.5594,4.5594,4.5594,4.5768,4.4751,4.467,4.4593,4.4593,4.4593,4.4411,4.3869,4.3798,4.3634,4.3167,4.2335,4.1904,4.2181,4.1181,4.0612,4.0873,4.0669,4.0265,3.9708,3.8623,3.7257,3.5577,3.55,3.55,3.55,3.55,3.55,3.55,3.55,3.55,3.55,3.55,3.55,3.55,3.55,3.55,3.55,3.55,3.55,3.55,3.55,3.55,3.55,3.55,3.55,3.55,3.55,3.55,3.5538,3.5788,3.5885,3.5923,3.6192,3.6654,3.7123,3.7123,3.6712,3.6404,3.6962,3.6712,3.6288,3.6288,3.6692,3.7257,3.7777,3.8854,4.006,4.1133,4.2157,4.3192,4.435,4.4869,4.5352,4.6004,4.6142,4.6199,4.6289,4.6308,4.6308,4.6308,4.6308,4.6308,4.6308,4.6308,4.6247,4.6113,4.5978,4.5867,4.5809,4.5808,4.5845,4.5899,4.5988,4.6039,4.6039,4.5959,4.5855,4.5733,4.5651,4.5594,4.5594,4.5594,4.5594,4.5594,4.5594,4.5594,4.5594,4.5594,4.5594,4.5594,4.5594,4.5594,4.5594,4.5594,4.5594,4.5729,4.5041,4.4837,4.4624,4.4624,4.4624,4.4442,4.3898,4.3808,4.3615,4.3148,4.2335,4.2143,4.3008,4.1554,4.0854,4.1712,4.0989,4.0496,4.0496,3.8931,3.7257,3.5596,3.5519,3.55,3.55,3.5519,3.5519,3.5519,3.5519,3.5519,3.5519,3.55,3.55,3.55,3.55,3.55,3.55,3.55,3.55,3.55,3.55,3.55,3.55,3.55,3.55,3.55,3.55,3.55,3.5635,3.6423,3.6692,3.6865,3.7738,3.8007,3.8007,3.8007,3.8007,3.8007,3.8027,3.8027,3.8027,3.8007,3.8007,3.845,4.0131,4.0623,4.1197,4.2871,4.4015,4.4705,4.4705,4.5462,4.611,4.611,4.6203,4.6308,4.6308,4.6308,4.6308,4.6308,4.6308,4.6308,4.6308,4.6308,4.6247,4.6113,4.5978,4.5867,4.579,4.5852,4.5899,4.5903,4.5899,4.5899,4.5899,4.5899,4.5799,4.5594,4.5594,4.5594,4.5594,4.5614,4.5614,4.5594,4.5614,4.5614,4.5594,4.5594,4.5594,4.5594,4.5594,4.5594,4.5594,4.5594,4.5594,4.5729,4.5429,4.5362,4.5293,4.5293,4.5293,4.5045,4.4278,4.3664,4.3038,4.228,4.1962,4.1904,4.2162,4.172,4.1527,4.1769,4.0989,4.0265,3.9688,3.9188,3.8411,3.7296,3.6135,3.55,3.55,3.6058,3.6346,3.6346,3.6346,3.6346,3.6327,3.5769,3.55,3.55,3.55,3.55,3.55,3.55,3.55,3.55,3.55,3.55,3.55,3.55,3.55,3.55,3.55,3.5865,3.6385,3.6615,3.7123,3.7757,3.8642,3.8488,3.8123,3.8719,3.8911,3.9034,3.9611,4.02,4.0373,3.92,3.9342,4.0072,4.1274,4.2021,4.2803,4.4011,4.4565,4.5014,4.5574,4.5992,4.6246,4.6246,4.6269,4.6308,4.6308,4.6308,4.6308,4.6308,4.6308,4.6308,4.6308,4.6203,4.6091,4.5974,4.5876,4.5842,4.5862,4.5881,4.5936,4.6039,4.594,4.5899,4.5899,4.585,4.5803,4.5733,4.5651,4.5594,4.5614,4.622,4.6182,4.5633,4.624,4.6163,4.5594,4.5594,4.5594,4.5594,4.5594,4.5594,4.5594,4.5594,4.5594,4.5633,4.5594,4.5594,4.5594,4.5594,4.5594,4.5306,4.4432,4.3893,4.3278,4.2431,4.2316,4.245,4.2758,4.2508,4.245,4.2758,4.17,4.0816,4.0315,3.9662,3.9073,3.8546,3.7219,3.6481,3.6481,3.6969,3.7219,3.7219,3.7219,3.7219,3.7199,3.6712,3.6288,3.5981,3.6346,3.6115,3.5519,3.5846,3.5788,3.55,3.55,3.55,3.55,3.55,3.5692,3.5923,3.5615,3.6231,3.7219,3.7219,3.8007,3.9084,3.9611,3.9419,3.9165,4.0099,4.037,4.0564,4.1409,4.2022,4.2273,4.1602,4.1506,4.1827,4.2831,4.3486,4.4143,4.5059,4.5365,4.5592,4.6097,4.6247,4.6308,4.6308,4.6308,4.6308,4.6308,4.6308,4.6308,4.6308,4.6308,4.6289,4.6224,4.6147,4.6042,4.5907,4.5915,4.5933,4.5978,4.6033,4.6075,4.6108,4.603,4.6095,4.6321,4.5983,4.5763,4.573,4.5635,4.5787,4.6124,4.6297,4.6297,4.6124,4.6317,4.6086,4.5594,4.5594,4.5594,4.5594,4.5594,4.5594,4.5594,4.5594,4.5594,4.5594,4.5594,4.5594,4.5603,4.562,4.5603,4.5353,4.4562,4.4352,4.4047,4.3297,4.3201,4.3489,4.422,4.3643,4.3508,4.4239,4.2835,4.1885,4.1808,4.0373,3.9496,3.9419,3.8642,3.8219,3.8219,3.8142,3.8123,3.8123,3.8123,3.8123,3.8104,3.8046,3.7584,3.6846,3.7642,3.7161,3.5769,3.65,3.6385,3.5712,3.5712,3.5712,3.5712,3.5712,3.6173,3.6719,3.6001,3.6759,3.8132,3.8231,3.9316,4.0646,4.0646,4.0711,4.094,4.1859,4.2177,4.2438,4.3279,4.358,4.3814,4.4616,4.4152,4.3702,4.4615,4.4919,4.5217,4.5961,4.6222,4.6308,4.6308,4.6308,4.6308,4.6308,4.6308,4.6328,4.6406,4.6348,4.6328,4.6406,4.6348,4.6247,4.612,4.6113,4.6045,4.5924,4.6033,4.611,4.6117,4.6226,4.6247,4.6119,4.6171,4.6488,4.7036,4.6352,4.5919,4.5729,4.5633,4.6067,4.6885,4.6144,4.6259,4.6962,4.6163,4.5787,4.571,4.5633,4.5594,4.5594,4.5594,4.5594,4.5594,4.5594,4.5594,4.5594,4.5594,4.5594,4.5627,4.5733,4.5673,4.5577,4.5488,4.4816,4.4239,4.4066,4.4047,4.4105,4.4278,4.4143,4.4105,4.4278,4.3393,4.2527,4.1846,4.147,4.095,4.0265,4.0054,3.9958,3.9958,3.9342,3.9015,3.9015,3.9015,3.9015,3.8996,3.8315,3.7892,3.7738,3.7911,3.7796,3.7469,3.7642,3.7623,3.7469,3.7469,3.7469,3.7469,3.7469,3.7565,3.7702,3.7641,3.8249,3.9209,3.9956,4.0888,4.1747,4.1747,4.2218,4.2811,4.3033,4.3581,4.4165,4.4366,4.4876,4.5437,4.5724,4.563,4.5523,4.5755,4.5828,4.5927,4.6206,4.6289,4.6308,4.6308,4.6308,4.6308,4.6308,4.6308,4.6543,4.7226,4.6738,4.6543,4.7246,4.6719,4.6289,4.6268,4.6152,4.6084,4.6069,4.6082,4.6145,4.6247,4.6289,4.6289,4.6268,4.6814,4.717,4.7311,4.7617,4.7368,4.6605,4.5932,4.6067,4.6904,4.7355,4.7663,4.7836,4.7644,4.7201,4.6567,4.5874,4.5594,4.5594,4.5594,4.5594,4.5594,4.5594,4.5594,4.5594,4.5594,4.5594,4.561,4.5685,4.5651,4.561,4.5685,4.5266,4.4921,4.4921,4.4921,4.4921,4.4921,4.4921,4.4921,4.4921,4.4162,4.3489,4.3028,4.2239,4.1604,4.1143,4.1123,4.1123,4.1123,4.1123,4.07,3.9881,3.9881,3.9881,3.9861,3.9419,3.8988,3.8649,3.9089,3.8805,3.8034,3.8478,3.8407,3.8007,3.8007,3.8007,3.8022,3.8073,3.8318,3.8633,3.835,3.8781,3.9699,4.098,4.172,4.2171,4.2584,4.3031,4.3494,4.3965,4.4445,4.4899,4.5341,4.5774,4.6113,4.6175,4.6199,4.6199,4.6199,4.6199,4.6222,4.6289,4.6308,4.6308,4.6308,4.6308,4.6445,4.6855,4.6914,4.707,4.7539,4.7207,4.6933,4.6973,4.6933,4.707,4.7414,4.7004,4.6891,4.7301,4.7401,4.7475,4.7539,4.7148,4.7109,4.7539,4.7515,4.785,4.8628,4.8487,4.8335,4.8174,4.7244,4.7028,4.749,4.7913,4.8336,4.8702,4.8279,4.7644,4.6865,4.6413,4.597,4.5594,4.5594,4.5594,4.5594,4.5594,4.5594,4.5594,4.5594,4.5594,4.5603,4.5627,4.562,4.5603,4.5627,4.562,4.5594,4.5594,4.5594,4.5594,4.5594,4.5594,4.5594,4.5594,4.494,4.4451,4.4316,4.3008,4.2181,4.2019,4.2019,4.2019,4.2019,4.2739,4.2316,4.0727,4.0727,4.065,4.0496,4.065,4.0285,3.9561,4.0636,4.0211,3.8746,3.9657,3.9503,3.8674,3.8657,3.8568,3.8464,3.8572,3.9046,3.9567,3.8976,3.9331,4.0312,4.1851,4.2474,4.2728,4.3452,4.3786,4.4052,4.4887,4.5132,4.5314,4.6093,4.6308,4.6308,4.6308,4.6308,4.6308,4.6308,4.6308,4.6308,4.6308,4.6308,4.6348,4.6484,4.6523,4.6816,4.7676,4.7812,4.7871,4.8027,4.793,4.7617,4.7031,4.7461,4.8064,4.8667,4.8076,4.7959,4.8683,4.8843,4.8906,4.8906,4.8203,4.8144,4.8887,4.834,4.8688,5.0026,4.9312,4.9192,4.9666,4.8953,4.8514,4.8317,4.8317,4.8797,4.9613,4.8727,4.7976,4.736,4.7206,4.6621,4.5825,4.5825,4.5747,4.5654,4.5781,4.5832,4.5845,4.5594,4.5594,4.5635,4.5754,4.568,4.5643,4.5761,4.568,4.5594,4.5594,4.5594,4.5594,4.5594,4.5594,4.5594,4.5594,4.5498,4.5094,4.4355,4.4085,4.3643,4.2951,4.2912,4.2912,4.2912,4.3047,4.2624,4.1623,4.1623,4.1239,4.0516,4.1277,4.1162,4.0419,4.2059,4.2293,4.1512,4.2271,4.2158,4.1448,4.1335,4.0894,4.0339,4.0343,4.047,4.0618,4.0632,4.1229,4.2165,4.3142,4.3982,4.4626,4.4743,4.529,4.5935,4.6073,4.6112,4.6132,4.6269,4.6308,4.6308,4.6308,4.6308,4.6308,4.6308,4.6308,4.6308,4.6308,4.6308,4.6523,4.7285,4.7422,4.7715,4.8574,4.8711,4.8984,4.9746,4.9199,4.8965,4.9609,4.9101,4.8769,4.8866,4.8769,4.8749,4.8866,4.8886,4.8906,4.8906,4.8789,4.8789,4.8906,4.9512,4.9941,5.0175,5.0614,5.0542,4.9951,5.0446,5.0169,4.9221,4.9221,4.9763,5.0658,4.9787,4.9342,4.9187,4.8413,4.7561,4.6721,4.6721,4.634,4.5859,4.6542,4.6765,4.6817,4.5594,4.5594,4.5629,4.568,4.5643,4.5629,4.5688,4.5635,4.5594,4.5594,4.5594,4.5594,4.5594,4.5594,4.5594,4.5594,4.5665,4.5541,4.5155,4.475,4.4362,4.4013,4.3993,4.3993,4.3993,4.4439,4.4265,4.3418,4.2853,4.24,4.2021,4.2485,4.244,4.2047,4.2959,4.3116,4.2697,4.3184,4.3156,4.2777,4.271,4.2216,4.1495,4.1579,4.1312,4.0983,4.1564,4.2361,4.3262,4.4121,4.4687,4.5098,4.5566,4.5996,4.6308,4.6308,4.6308,4.6308,4.6308,4.6308,4.6308,4.6308,4.6308,4.6308,4.6308,4.6308,4.6308,4.6308,4.6699,4.7148,4.7539,4.8008,4.8613,4.9473,4.9629,4.9766,5.0156,4.9863,4.9766,5.0156,4.9433,4.9277,5.0215,4.9883,4.9805,5.0254,5.0293,5.0293,5.0293,4.9863,4.9824,5.0273,5.0234,5.043,5.0879,5.1093,5.1028,5.0677,5.0957,5.0584,4.9633,5.013,5.0597,5.0996,5.0588,5.0167,4.9687,4.9304,4.8561,4.7685,4.7685,4.7438,4.7078,4.6981,4.7204,4.7625]}]]